[[{"header":{"parameterUnit":"m.s-1","parameterCategory":1,"la1":30.6,"la2":28.766,"lo1":-90.7593,"lo2":-88.6598,"dy":0.0162,"dx":0.0183,"nx":116,"ny":114,"refTime":"2023-04-15T12:00:00:Z","depth":0,"parameterNumber":2,"parameterNumberName":"U-component_of_WINDS"},"data":[0.0,0.0,0.0,0.0,0.0,0.0,0.0,0.0,0.0,0.0,0.0,0.0,0.0,0.0,0.0,0.0,0.0,0.0,0.0,0.0,0.0,0.0,0.0,0.0,0.0,0.0,0.0,0.0,0.0,0.0,0.0,0.0,0.0,0.0,0.0,0.0,0.0,0.0,0.0,0.0,0.0,0.0,0.0,0.0,0.0,0.0,0.0,0.0,0.0,0.0,0.0,0.0,0.0,0.0,0.0,0.0,0.0,0.0,0.0,0.0,0.0,0.0,0.0,0.0,0.0,0.0,0.0,0.0,0.0,0.0,0.0,0.0,0.0,0.0,0.0,0.0,0.0,0.0,0.0,0.0,0.0,0.0,0.0,0.0,0.0,0.0,0.0,0.0,0.0,0.0,0.0,0.0,0.0,0.0,0.0,0.0,0.0,0.0,0.0,0.0,0.0,0.0,0.0,0.0,0.0,0.0,0.0,0.0,0.0,0.0,0.0,0.0,0.0,0.0,0.0,0.0,0.0,0.0,0.0,0.0,0.0,0.0,0.0,0.0,0.0,0.0,0.0,0.0,0.0,0.0,0.0,0.0,0.0,0.0,0.0,0.0,0.0,0.0,0.0,0.0,0.0,0.0,0.0,0.0,0.0,0.0,0.0,0.0,0.0,0.0,0.0,0.0,0.0,0.0,0.0,0.0,0.0,0.0,0.0,0.0,0.0,0.0,0.0,0.0,0.0,0.0,0.0,0.0,0.0,0.0,0.0,0.0,0.0,0.0,0.0,0.0,0.0,0.0,0.0,0.0,0.0,0.0,0.0,0.0,0.0,0.0,0.0,0.0,0.0,0.0,0.0,0.0,0.0,0.0,0.0,0.0,0.0,0.0,0.0,0.0,0.0,0.0,0.0,0.0,0.0,0.0,0.0,0.0,0.0,0.0,0.0,0.0,0.0,0.0,0.0,0.0,0.0,0.0,0.0,0.0,0.0,0.0,0.0,0.0,0.0,0.0,0.0,0.0,0.0,0.0,0.0,0.0,0.0,0.0,0.0,0.0,0.0,0.0,0.0,0.0,0.0,0.0,0.0,0.0,0.0,0.0,0.0,0.0,0.0,0.0,0.0,0.0,0.0,0.0,0.0,0.0,0.0,0.0,0.0,0.0,0.0,0.0,0.0,0.0,0.0,0.0,0.0,0.0,0.0,0.0,0.0,0.0,0.0,0.0,0.0,0.0,0.0,0.0,0.0,0.0,0.0,0.0,0.0,0.0,0.0,0.0,0.0,0.0,0.0,0.0,0.0,0.0,0.0,0.0,0.0,0.0,0.0,0.0,0.0,0.0,0.0,0.0,0.0,0.0,0.0,0.0,0.0,0.0,0.0,0.0,0.0,0.0,0.0,0.0,0.0,0.0,0.0,0.0,0.0,0.0,0.0,0.0,0.0,0.0,0.0,0.0,0.0,0.0,0.0,0.0,0.0,0.0,0.0,0.0,0.0,0.0,0.0,0.0,0.0,0.0,0.0,0.0,0.0,0.0,0.0,0.0,0.0,0.0,0.0,0.0,0.0,0.0,0.0,0.0,0.0,0.0,0.0,0.0,0.0,0.0,0.0,0.0,0.0,0.0,0.0,0.0,0.0,0.0,0.0,0.0,0.0,0.0,0.0,0.0,0.0,0.0,0.0,0.0,0.0,0.0,0.0,0.0,0.0,0.0,0.0,0.0,0.0,0.0,0.0,0.0,0.0,0.0,0.0,0.0,0.0,0.0,0.0,0.0,0.0,0.0,0.0,0.0,0.0,0.0,0.0,0.0,0.0,0.0,0.0,0.0,0.0,0.0,0.0,0.0,0.0,0.0,0.0,0.0,0.0,0.0,0.0,0.0,0.0,0.0,0.0,0.0,0.0,0.0,0.0,0.0,0.0,0.0,0.0,0.0,0.0,0.0,0.0,0.0,0.0,0.0,0.0,0.0,0.0,0.0,0.0,0.0,0.0,0.0,0.0,0.0,0.0,0.0,0.0,0.0,0.0,0.0,0.0,0.0,0.0,0.0,0.0,0.0,0.0,0.0,0.0,0.0,0.0,0.0,0.0,0.0,0.0,0.0,0.0,0.0,0.0,0.0,0.0,0.0,0.0,0.0,0.0,0.0,0.0,0.0,0.0,0.0,0.0,0.0,0.0,0.0,0.0,0.0,0.0,0.0,0.0,0.0,0.0,0.0,0.0,0.0,0.0,0.0,0.0,0.0,0.0,0.0,0.0,0.0,0.0,0.0,0.0,0.0,0.0,0.0,0.0,0.0,0.0,0.0,0.0,0.0,0.0,0.0,0.0,0.0,0.0,0.0,0.0,0.0,0.0,0.0,0.0,0.0,0.0,0.0,0.0,0.0,0.0,0.0,0.0,0.0,0.0,0.0,0.0,0.0,0.0,0.0,0.0,0.0,0.0,0.0,0.0,0.0,0.0,0.0,0.0,0.0,0.0,0.0,0.0,0.0,0.0,0.0,0.0,0.0,0.0,0.0,0.0,0.0,0.0,0.0,0.0,0.0,0.0,0.0,0.0,0.0,0.0,0.0,0.0,0.0,0.0,0.0,0.0,0.0,0.0,0.0,0.0,0.0,0.0,0.0,0.0,0.0,0.0,0.0,0.0,0.0,0.0,0.0,0.0,0.0,0.0,0.0,0.0,0.0,0.0,0.0,0.0,0.0,0.0,0.0,0.0,0.0,0.0,0.0,0.0,0.0,0.0,0.0,0.0,0.0,0.0,0.0,0.0,0.0,0.0,0.0,0.0,0.0,0.0,0.0,0.0,0.0,0.0,0.0,0.0,0.0,0.0,0.0,0.0,0.0,0.0,0.0,0.0,0.0,0.0,0.0,0.0,0.0,0.0,0.0,0.0,0.0,0.0,0.0,0.0,0.0,0.0,0.0,0.0,0.0,0.0,0.0,0.0,0.0,0.0,0.0,0.0,0.0,0.0,0.0,0.0,0.0,0.0,0.0,0.0,0.0,0.0,0.0,0.0,0.0,0.0,0.0,0.0,0.0,0.0,0.0,0.0,0.0,0.0,0.0,0.0,0.0,0.0,0.0,0.0,0.0,0.0,0.0,0.0,0.0,0.0,0.0,0.0,0.0,0.0,0.0,0.0,0.0,0.0,0.0,0.0,0.0,0.0,0.0,0.0,0.0,0.0,0.0,0.0,0.0,0.0,0.0,0.0,0.0,0.0,0.0,0.0,0.0,0.0,0.0,0.0,0.0,0.0,0.0,0.0,0.0,0.0,0.0,0.0,0.0,0.0,0.0,0.0,0.0,0.0,0.0,0.0,0.0,0.0,0.0,0.0,0.0,0.0,0.0,0.0,0.0,0.0,0.0,0.0,0.0,0.0,0.0,0.0,0.0,0.0,0.0,0.0,0.0,0.0,0.0,0.0,0.0,0.0,0.0,0.0,0.0,0.0,0.0,0.0,0.0,0.0,0.0,0.0,0.0,0.0,0.0,0.0,0.0,0.0,0.0,0.0,0.0,0.0,0.0,0.0,0.0,0.0,0.0,0.0,0.0,0.0,0.0,0.0,0.0,0.0,0.0,0.0,0.0,0.0,0.0,0.0,0.0,0.0,0.0,0.0,0.0,0.0,0.0,0.0,0.0,0.0,0.0,0.0,0.0,0.0,0.0,0.0,0.0,0.0,0.0,0.0,0.0,0.0,0.0,0.0,0.0,0.0,0.0,0.0,0.0,0.0,0.0,0.0,0.0,0.0,0.0,0.0,0.0,0.0,0.0,0.0,0.0,0.0,0.0,0.0,0.0,0.0,0.0,0.0,0.0,0.0,0.0,0.0,0.0,0.0,0.0,0.0,0.0,0.0,0.0,0.0,0.0,0.0,0.0,0.0,0.0,0.0,0.0,0.0,0.0,0.0,0.0,0.0,0.0,0.0,0.0,0.0,0.0,0.0,0.0,0.0,0.0,0.0,0.0,0.0,0.0,0.0,0.0,0.0,0.0,0.0,0.0,0.0,0.0,0.0,0.0,0.0,0.0,0.0,0.0,0.0,0.0,0.0,0.0,0.0,0.0,0.0,0.0,0.0,0.0,0.0,0.0,0.0,0.0,0.0,0.0,0.0,0.0,0.0,0.0,0.0,0.0,0.0,0.0,0.0,0.0,0.0,0.0,0.0,0.0,0.0,0.0,0.0,0.0,0.0,0.0,0.0,0.0,0.0,0.0,0.0,0.0,0.0,0.0,0.0,0.0,0.0,0.0,0.0,0.0,0.0,0.0,0.0,0.0,0.0,0.0,0.0,0.0,0.0,0.0,0.0,0.0,0.0,0.0,0.0,0.0,0.0,0.0,0.0,0.0,0.0,0.0,0.0,0.0,0.0,0.0,0.0,0.0,0.0,0.0,0.0,0.0,0.0,0.0,0.0,0.0,0.0,0.0,0.0,0.0,0.0,0.0,0.0,0.0,0.0,0.0,0.0,0.0,0.0,0.0,0.0,0.0,0.0,0.0,0.0,0.0,0.0,0.0,0.0,0.0,0.0,0.0,0.0,0.0,0.0,0.0,0.0,0.0,0.0,0.0,0.0,0.0,0.0,0.0,0.0,0.0,0.0,0.0,0.0,0.0,0.0,0.0,0.0,0.0,0.0,0.0,0.0,0.0,0.0,0.0,0.0,0.0,0.0,0.0,0.0,0.0,0.0,0.0,0.0,0.0,0.0,0.0,0.0,0.0,0.0,0.0,0.0,0.0,0.0,0.0,0.0,0.0,0.0,0.0,0.0,0.0,0.0,0.0,0.0,0.0,0.0,0.0,0.0,0.0,0.0,0.0,0.0,0.0,0.0,0.0,0.0,0.0,0.0,0.0,0.0,0.0,0.0,0.0,0.0,0.0,0.0,0.0,0.0,0.0,0.0,0.0,0.0,0.0,0.0,0.0,0.0,0.0,0.0,0.0,0.0,0.0,0.0,0.0,0.0,0.0,0.0,0.0,0.0,0.0,0.0,0.0,0.0,0.0,0.0,0.0,0.0,0.0,0.0,0.0,0.0,0.0,0.0,0.0,0.0,0.0,0.0,0.0,0.0,0.0,0.0,0.0,0.0,0.0,0.0,0.0,0.0,0.0,0.0,0.0,0.0,0.0,0.0,0.0,0.0,0.0,0.0,0.0,0.0,0.0,0.0,0.0,0.0,0.0,0.0,0.0,0.0,0.0,0.0,0.0,0.0,0.0,0.0,0.0,0.0,0.0,0.0,0.0,0.0,0.0,0.0,0.0,0.0,0.0,0.0,0.0,0.0,0.0,0.0,0.0,0.0,0.0,0.0,0.0,0.0,0.0,0.0,0.0,0.0,0.0,0.0,0.0,0.0,0.0,0.0,0.0,0.0,0.0,0.0,0.0,0.0,0.0,0.0,0.0,0.0,0.0,0.0,0.0,0.0,0.0,0.0,0.0,0.0,0.0,0.0,0.0,0.0,0.0,0.0,0.0,0.0,0.0,0.0,0.0,0.0,0.0,0.0,0.0,0.0,0.0,0.0,0.0,0.0,0.0,0.0,0.0,0.0,0.0,0.0,0.0,0.0,0.0,0.0,0.0,0.0,0.0,0.0,0.0,0.0,0.0,0.0,0.0,0.0,0.0,0.0,0.0,0.0,0.0,0.0,0.0,0.0,0.0,0.0,0.0,0.0,0.0,0.0,0.0,0.0,0.0,0.0,0.0,0.0,0.0,0.0,0.0,0.0,0.0,0.0,0.0,0.0,0.0,0.0,0.0,0.0,0.0,0.0,0.0,0.0,0.0,0.0,0.0,0.0,0.0,0.0,0.0,0.0,0.0,0.0,0.0,0.0,0.0,0.0,0.0,0.0,0.0,0.0,0.0,0.0,0.0,0.0,0.0,0.0,0.0,0.0,0.0,0.0,0.0,0.0,0.0,0.0,0.0,0.0,0.0,0.0,0.0,0.0,0.0,0.0,0.0,0.0,0.0,0.0,0.0,0.0,0.0,0.0,0.0,0.0,0.0,0.0,0.0,0.0,0.0,0.0,0.0,0.0,0.0,0.0,0.0,0.0,0.0,0.0,0.0,0.0,0.0,0.0,0.0,0.0,0.0,0.0,0.0,0.0,0.0,0.0,0.0,5.2841,0.0,0.0,0.0,0.0,0.0,0.0,0.0,0.0,0.0,0.0,0.0,0.0,0.0,0.0,0.0,0.0,0.0,0.0,0.0,0.0,0.0,0.0,0.0,0.0,0.0,0.0,0.0,0.0,0.0,0.0,0.0,0.0,0.0,0.0,0.0,0.0,0.0,0.0,0.0,0.0,0.0,0.0,0.0,0.0,0.0,0.0,0.0,0.0,0.0,0.0,0.0,0.0,0.0,0.0,0.0,0.0,0.0,0.0,0.0,0.0,0.0,0.0,0.0,0.0,0.0,0.0,0.0,0.0,0.0,0.0,0.0,0.0,0.0,0.0,0.0,0.0,0.0,0.0,0.0,0.0,0.0,0.0,0.0,0.0,0.0,0.0,0.0,0.0,0.0,0.0,0.0,0.0,0.0,0.0,0.0,0.0,0.0,0.0,0.0,0.0,0.0,0.0,0.0,0.0,0.0,0.0,0.0,0.0,0.0,0.0,0.0,0.0,0.0,0.0,0.0,0.0,5.3619,0.0,0.0,0.0,0.0,0.0,0.0,0.0,0.0,0.0,0.0,0.0,0.0,0.0,0.0,0.0,0.0,0.0,0.0,0.0,0.0,0.0,0.0,0.0,0.0,0.0,0.0,0.0,0.0,0.0,0.0,0.0,0.0,0.0,0.0,0.0,0.0,0.0,0.0,0.0,0.0,0.0,0.0,0.0,0.0,0.0,0.0,0.0,0.0,0.0,0.0,0.0,0.0,0.0,0.0,0.0,0.0,0.0,0.0,0.0,0.0,0.0,0.0,0.0,0.0,0.0,0.0,0.0,0.0,0.0,0.0,0.0,0.0,0.0,0.0,0.0,0.0,0.0,0.0,0.0,0.0,0.0,0.0,0.0,0.0,0.0,0.0,0.0,0.0,0.0,0.0,0.0,0.0,0.0,0.0,0.0,0.0,0.0,0.0,0.0,0.0,0.0,0.0,0.0,0.0,0.0,0.0,0.0,0.0,5.7645,5.8017,5.8457,5.7848,5.7915,5.8389,5.6562,5.4735,5.3179,0.0,0.0,0.0,0.0,0.0,0.0,0.0,0.0,0.0,0.0,0.0,0.0,0.0,0.0,0.0,0.0,0.0,0.0,0.0,0.0,0.0,0.0,0.0,5.829,5.8988,5.9061,5.9061,0.0,0.0,0.0,0.0,0.0,0.0,0.0,0.0,0.0,0.0,0.0,0.0,6.1594,6.1704,6.1704,6.163,6.2438,0.0,0.0,0.0,0.0,0.0,0.0,0.0,0.0,0.0,0.0,0.0,0.0,0.0,0.0,0.0,0.0,0.0,0.0,0.0,0.0,0.0,0.0,0.0,0.0,0.0,0.0,0.0,0.0,0.0,0.0,0.0,0.0,0.0,0.0,0.0,0.0,0.0,0.0,0.0,0.0,0.0,0.0,0.0,5.6596,5.7239,0.0,0.0,0.0,0.0,0.0,0.0,0.0,0.0,0.0,0.0,0.0,0.0,0.0,5.7679,5.8423,5.9742,6.0148,5.9674,6.1028,6.1366,6.0858,6.0757,6.0757,6.0858,6.0554,0.0,5.619,5.575,0.0,0.0,0.0,0.0,0.0,0.0,0.0,0.0,0.0,0.0,0.0,0.0,0.0,0.0,0.0,0.0,0.0,0.0,0.0,0.0,0.0,5.7997,5.8143,5.851,5.8547,5.8731,5.9171,0.0,0.0,0.0,0.0,0.0,0.0,0.0,0.0,0.0,6.1814,6.2401,6.2291,6.2768,6.3246,6.3686,6.3576,6.3282,6.2768,6.2328,0.0,0.0,0.0,0.0,0.0,0.0,0.0,0.0,0.0,0.0,0.0,0.0,0.0,0.0,0.0,0.0,0.0,0.0,0.0,0.0,0.0,0.0,0.0,0.0,0.0,0.0,0.0,0.0,0.0,0.0,0.0,0.0,0.0,0.0,0.0,0.0,0.0,0.0,0.0,5.6021,5.707,5.6156,5.6867,5.663,0.0,0.0,0.0,0.0,0.0,0.0,0.0,0.0,0.0,5.9302,5.9641,6.0351,6.1535,6.2212,6.2787,6.326,6.3937,6.4309,6.4377,6.3971,6.3768,6.3768,6.3768,6.255,6.0419,5.8389,5.69,5.5716,0.0,0.0,0.0,0.0,5.3518,5.345,0.0,0.0,0.0,0.0,0.0,0.0,0.0,0.0,0.0,0.0,0.0,0.0,5.7997,5.818,5.84,5.8584,5.8621,5.8951,5.9758,5.8877,0.0,0.0,0.0,0.0,0.0,0.0,0.0,6.0713,6.2548,6.3356,6.3172,6.4016,6.4714,6.5264,6.4677,6.3943,6.3099,6.2475,6.2328,6.2475,0.0,0.0,0.0,0.0,0.0,0.0,0.0,0.0,0.0,0.0,0.0,0.0,0.0,0.0,0.0,0.0,0.0,0.0,0.0,0.0,0.0,0.0,0.0,0.0,0.0,0.0,0.0,0.0,0.0,0.0,0.0,0.0,0.0,0.0,0.0,0.0,0.0,5.7239,5.8084,5.6224,5.8287,5.866,0.0,0.0,0.0,0.0,0.0,0.0,6.0114,6.0689,6.1434,6.2381,6.2618,6.3328,6.4613,6.485,6.5493,6.6576,6.6745,6.7151,6.7658,6.7083,6.6846,6.6812,6.6643,6.5933,6.4681,6.1501,5.9167,5.7509,5.6224,5.5175,5.4363,5.4363,5.4228,5.4059,0.0,0.0,0.0,0.0,0.0,0.0,0.0,0.0,0.0,0.0,0.0,5.7997,5.7997,5.8694,5.9465,6.0199,6.0272,6.0639,6.141,6.0015,5.9171,5.9208,0.0,0.0,0.0,0.0,0.0,6.152,6.1667,6.2511,6.4053,6.4861,6.5264,6.5301,6.5264,6.4787,6.4016,6.398,6.3062,6.1704,6.2438,0.0,0.0,0.0,0.0,0.0,0.0,0.0,0.0,0.0,0.0,0.0,0.0,0.0,0.0,0.0,0.0,0.0,0.0,0.0,0.0,0.0,0.0,0.0,0.0,0.0,0.0,0.0,0.0,0.0,0.0,0.0,0.0,0.0,0.0,0.0,0.0,0.0,0.0,5.9945,6.3057,0.0,0.0,0.0,0.0,6.1028,6.1095,6.1772,6.3226,6.3328,6.4005,6.5425,6.617,6.6914,6.7658,6.8436,6.8876,6.8944,6.962,6.9992,7.0026,6.9992,6.9958,6.9925,6.9214,6.8876,6.8538,6.4816,6.1975,5.9844,5.9099,5.7915,5.663,5.663,5.619,5.5615,0.0,0.0,0.0,0.0,0.0,0.0,0.0,0.0,0.0,5.7997,5.7997,5.8217,5.8731,5.9061,5.9538,6.0346,6.0419,6.075,6.1557,6.0089,5.9428,5.9942,0.0,0.0,0.0,0.0,6.0529,6.1594,6.3209,6.4567,6.5632,6.5925,6.6366,6.6806,6.6292,6.5586,6.4674,6.3664,6.2918,6.2331,6.1542,6.109,0.0,0.0,0.0,0.0,0.0,0.0,0.0,0.0,0.0,0.0,0.0,0.0,0.0,0.0,0.0,0.0,0.0,0.0,0.0,0.0,0.0,0.0,0.0,0.0,0.0,0.0,0.0,0.0,0.0,0.0,0.0,0.0,0.0,0.0,0.0,0.0,0.0,6.3734,6.6576,0.0,6.3362,6.326,6.3429,6.3429,6.4749,6.5797,6.6305,6.7286,6.803,6.8571,6.8842,6.935,7.0094,7.0364,7.0534,7.0534,7.077,7.0906,7.0906,7.0906,7.0635,7.0195,7.0432,6.9992,6.9011,6.7658,6.5493,6.2787,6.0588,5.9099,5.8118,5.7171,5.663,5.6359,0.0,0.0,0.0,0.0,0.0,0.0,0.0,0.0,0.0,5.7997,5.7997,5.8327,5.9134,5.9685,6.0346,6.1153,6.1227,6.1557,6.2401,6.0419,5.9443,6.0017,5.903,0.0,0.0,6.0529,6.163,6.2438,6.4347,6.5852,6.6916,6.7173,6.7724,6.8495,6.7944,6.7378,6.6671,6.5077,6.3619,6.2211,6.1172,6.0756,6.0629,0.0,0.0,0.0,0.0,0.0,0.0,0.0,0.0,0.0,0.0,0.0,0.0,0.0,0.0,0.0,0.0,0.0,0.0,0.0,0.0,0.0,0.0,0.0,0.0,0.0,0.0,0.0,0.0,0.0,0.0,0.0,0.0,0.0,0.0,0.0,6.6643,6.6136,6.9586,7.0669,6.7218,6.732,6.759,6.759,6.8741,6.9519,6.9755,7.0737,7.1176,7.0939,7.0939,7.1176,7.1684,7.1447,7.1447,7.1684,7.1447,7.1312,7.1312,7.1312,7.1041,7.0601,7.1109,7.077,6.9823,6.9316,6.7929,6.5831,6.3057,6.1231,6.0047,5.9066,5.822,5.7369,0.0,0.0,0.0,0.0,0.0,0.0,0.0,5.7997,5.7997,5.7997,5.7997,5.8327,5.9171,6.0639,6.1924,6.2768,6.2842,6.3172,6.398,6.1006,5.9213,5.9292,0.0,0.0,6.1594,6.2438,6.3319,6.42,6.5007,6.6219,6.7797,6.8568,6.9339,7.011,7.011,7.0073,6.9888,6.8199,6.5144,6.1517,6.1475,6.1508,6.14,0.0,0.0,0.0,0.0,0.0,0.0,0.0,0.0,0.0,0.0,0.0,0.0,0.0,0.0,0.0,0.0,0.0,0.0,0.0,0.0,0.0,0.0,0.0,0.0,0.0,0.0,0.0,0.0,0.0,0.0,0.0,0.0,0.0,6.1501,6.5967,6.8707,6.732,7.2293,7.4695,7.1819,7.28,7.3578,7.3544,7.2935,7.2834,7.3477,7.3544,7.3206,7.2462,7.2428,7.2428,7.2428,7.1718,7.1684,7.2394,7.165,7.1312,7.1312,7.1312,7.1312,7.1312,7.1312,7.1312,7.121,6.9722,6.9113,6.8876,6.6576,6.4377,6.2482,6.2415,6.096,5.8781,0.0,0.0,0.0,0.0,0.0,0.0,0.0,5.7997,5.7997,5.7997,5.7997,5.8547,5.9942,6.1006,6.2181,6.3613,6.3172,6.2915,6.3135,6.0676,5.9223,5.9262,0.0,0.0,6.2438,6.3906,6.5301,6.6696,6.7504,6.8458,6.9449,6.9669,6.9889,7.011,7.011,6.9332,6.807,6.7558,6.597,6.3604,6.2641,6.1917,6.1305,0.0,0.0,0.0,0.0,0.0,0.0,0.0,0.0,0.0,0.0,0.0,0.0,0.0,0.0,0.0,0.0,0.0,0.0,0.0,0.0,0.0,0.0,0.0,0.0,0.0,0.0,0.0,0.0,0.0,0.0,0.0,0.0,6.6102,6.6102,6.9214,7.236,7.4627,7.6826,7.7874,7.7063,7.6352,7.5709,7.5134,7.5439,7.527,7.4356,7.4796,7.4492,7.324,7.3206,7.3206,7.3206,7.2462,7.2191,7.2394,7.165,7.1312,7.1312,7.1312,7.1312,7.1312,7.1312,7.1312,7.1244,7.0297,6.9586,6.8876,6.6576,6.5324,6.458,6.299,6.1298,5.9524,0.0,0.0,0.0,0.0,0.0,0.0,0.0,5.7546,5.7546,5.7546,5.8066,5.9134,6.0713,6.163,6.2658,6.398,6.3649,6.3062,6.2365,6.0056,5.8766,5.8678,0.0,6.1404,6.3729,6.5767,6.743,6.8715,6.9155,6.9816,7.0587,7.0587,7.0954,7.1615,7.1194,7.0599,6.9836,6.8998,6.7996,6.6941,6.5365,6.3996,6.2645,6.111,6.0358,5.9931,5.9461,5.895,5.8457,5.8374,0.0,0.0,0.0,0.0,0.0,0.0,0.0,0.0,0.0,0.0,0.0,0.0,0.0,0.0,0.0,0.0,0.0,0.0,0.0,0.0,0.0,0.0,0.0,0.0,6.6711,6.9755,7.1007,7.2969,7.5337,7.8111,7.9363,8.0141,8.0479,7.916,7.8077,7.7604,7.7435,7.6961,7.6082,7.642,7.6115,7.4965,7.4897,7.4762,7.4424,7.368,7.3308,7.3308,7.2259,7.1751,7.1751,7.1447,7.1312,0.0,7.1312,7.1312,7.1244,7.05,6.9755,0.0,0.0,0.0,0.0,0.0,6.0906,5.9577,0.0,0.0,0.0,0.0,0.0,0.0,0.0,5.6912,5.6912,5.6912,5.8227,5.9758,6.1153,6.2144,6.3025,6.387,6.387,6.3172,6.1569,5.9434,5.8284,5.8471,6.0812,6.3199,6.561,6.8033,6.9743,7.0624,7.0624,7.1027,7.1725,7.1725,7.2459,7.3817,7.2917,7.2791,7.3137,7.1412,7.0545,7.0187,6.8693,6.6766,6.4772,6.3328,6.2706,6.2571,6.2501,6.125,5.9667,6.0218,0.0,0.0,0.0,0.0,0.0,0.0,0.0,0.0,0.0,0.0,0.0,0.0,0.0,0.0,0.0,0.0,0.0,0.0,0.0,0.0,0.0,0.0,0.0,0.0,7.0161,7.2766,7.5574,7.6724,7.7807,7.9194,8.0581,8.1697,8.2441,8.1257,8.0412,8.031,7.9194,7.8416,7.8247,0.0,0.0,0.0,0.0,7.6657,7.5845,7.51,7.4695,7.4593,7.3105,7.2394,7.236,7.165,7.1312,7.1312,7.1312,7.1312,7.1278,7.0601,6.9823,6.9011,6.8132,6.6762,6.5042,6.1998,6.0238,5.9067,0.0,0.0,0.0,0.0,0.0,0.0,0.0,5.6912,5.6912,5.6912,5.8227,5.9318,5.9648,6.097,6.2144,6.2989,6.2475,6.1638,6.0612,5.9501,5.9708,6.1581,6.3441,6.5811,6.893,7.0807,7.2532,7.3964,7.3964,7.4074,7.4221,7.4221,7.4368,7.4661,7.4445,7.3595,7.2227,7.1862,7.0784,6.939,6.8996,6.7845,6.6214,6.472,6.377,6.3169,6.1961,6.2063,6.2498,6.1429,6.1571,6.2266,6.2279,6.1446,0.0,0.0,0.0,0.0,0.0,0.0,0.0,0.0,0.0,0.0,0.0,0.0,0.0,0.0,0.0,0.0,0.0,0.0,0.0,6.8605,7.2225,7.5473,7.7299,7.872,7.9904,8.075,8.1663,8.2475,8.3219,8.2509,8.1731,8.1122,8.1359,8.1021,7.9837,7.9769,7.9431,7.872,7.8111,7.7435,7.669,7.5879,7.5202,7.4593,0.0,0.0,7.236,7.165,7.1312,7.1312,7.1312,7.1312,7.1312,7.1142,7.0297,6.8977,6.7557,6.553,6.3272,6.2583,6.087,5.8574,0.0,0.0,0.0,0.0,0.0,0.0,0.0,5.6616,5.6757,5.6367,5.7956,5.9355,5.9758,6.0529,6.1153,6.1557,6.086,6.0377,6.0295,6.06,6.1445,6.2989,6.5369,6.787,7.0364,7.2083,7.3581,7.4918,7.4918,7.4918,7.4918,7.4918,7.5139,7.5506,7.5004,7.4136,7.3102,7.2647,7.1525,7.0195,7.0195,6.9755,6.8876,6.6981,6.6034,6.5561,6.4444,6.4309,6.4491,6.3777,6.3478,6.3486,6.3565,6.3055,6.2087,0.0,0.0,0.0,0.0,0.0,0.0,0.0,0.0,0.0,0.0,0.0,0.0,0.0,0.0,6.299,0.0,0.0,7.0026,7.3071,7.5709,7.7942,7.9431,8.0919,8.1832,8.1832,8.2509,8.3253,8.3998,8.3389,8.2813,8.2408,8.2408,8.2103,8.1359,8.1291,8.0953,8.0209,7.9837,7.8923,7.7468,7.7029,7.6284,7.5134,7.3646,7.2935,7.2902,7.1819,7.1312,7.1312,7.1312,7.1312,7.1278,7.0906,7.0094,6.889,6.7154,6.4751,6.2386,6.2028,6.0404,5.809,0.0,0.0,0.0,0.0,0.0,0.0,0.0,0.0,5.6668,5.6004,5.7855,5.9391,5.9869,6.0089,6.0162,6.0162,5.9722,5.991,6.0925,6.221,6.338,6.437,6.7133,6.9561,7.1338,7.2824,7.4196,7.5395,7.5395,7.5395,7.5395,7.5395,7.5726,7.6252,7.532,7.4618,7.427,7.3426,7.2399,7.1548,7.1684,7.1751,7.1548,6.9688,6.8808,6.847,6.7726,6.6981,6.6339,6.6339,6.5459,6.4377,6.4546,6.441,6.3632,6.0892,6.1535,0.0,0.0,0.0,0.0,0.0,0.0,0.0,0.0,0.0,6.1061,6.2888,6.441,6.6373,6.9417,7.0906,7.3138,7.7502,7.8957,8.0006,8.1325,8.2644,8.3287,8.2678,8.3253,8.3964,8.4573,8.4065,8.3659,8.3524,8.3084,8.278,8.2644,8.2611,8.2272,8.1528,8.1224,8.0073,7.801,7.7841,7.7063,7.5676,7.4356,7.3612,7.3443,7.2124,7.1447,7.1312,7.1312,7.1312,7.1244,7.05,6.9755,6.8924,6.7045,6.4708,6.2044,6.0993,5.9316,5.7408,0.0,0.0,0.0,0.0,0.0,0.0,0.0,0.0,0.0,5.6773,5.8227,5.8988,5.8327,5.8914,5.9355,5.9355,5.9905,6.1171,6.3365,6.4124,6.5408,6.7549,6.9323,7.1089,7.2858,7.3936,7.5284,7.7047,7.7047,7.7047,7.7047,7.7047,7.7084,7.7096,7.6119,7.512,7.4305,7.3903,7.3189,7.2326,7.2969,7.324,7.3206,7.2969,7.2056,7.0838,7.006,6.935,6.8707,6.8707,6.8132,6.7523,6.8267,6.7523,6.6136,6.4478,0.0,6.0994,5.8355,5.7881,5.8863,6.1873,6.1839,6.255,0.0,0.0,6.6745,6.962,7.1345,7.2496,7.2935,7.527,7.7536,7.8788,8.0141,8.1325,8.2171,8.2983,8.3456,8.3389,8.4031,8.4539,8.4606,8.4539,8.4234,8.3558,8.4031,8.4099,8.3422,8.3389,8.305,8.2306,8.1021,7.9566,7.801,7.7333,7.6589,7.5676,7.4864,7.4119,7.3443,7.2665,7.1921,7.1312,7.1312,7.1312,7.1244,7.05,6.9755,6.9011,6.8027,6.5766,6.262,6.016,5.804,5.6161,0.0,0.0,0.0,0.0,0.0,0.0,0.0,0.0,0.0,0.0,5.7838,5.8364,5.8033,5.829,5.851,5.851,5.9685,6.1573,6.4383,6.6057,6.7973,7.0139,7.1273,7.245,7.3814,7.4185,7.5361,7.7304,7.7304,7.7304,7.7304,7.7304,7.7212,7.702,7.6646,7.5831,7.4659,7.4594,7.3944,7.3071,7.3375,7.3477,7.3443,7.3003,7.2462,7.1853,7.1109,6.9789,0.0,6.8944,6.8571,6.8132,6.935,6.8673,6.7252,6.6203,6.4918,0.0,6.2685,6.211,0.0,0.0,6.5324,6.7083,6.9485,7.006,7.0669,7.28,7.4762,7.6251,7.669,7.8483,8.0276,0.0,8.2171,8.2847,8.3592,8.3964,8.3998,8.3558,8.4167,8.464,8.464,8.464,8.4505,8.4167,8.4437,8.4471,8.4167,8.3727,8.3152,8.2441,8.1393,8.0141,7.8653,7.7908,7.7367,7.7029,7.5371,7.4458,7.4086,7.2935,7.1988,7.1312,7.1312,7.1312,7.1278,7.0973,7.0398,6.9566,6.8071,6.5843,6.342,6.1439,5.9092,5.6526,0.0,0.0,0.0,0.0,0.0,0.0,0.0,0.0,0.0,0.0,5.7679,5.7997,5.7997,5.7997,5.7997,5.7997,5.9281,6.1382,6.4561,6.6945,6.9332,7.1721,7.2499,7.3252,7.4234,7.431,7.5156,7.6856,7.7181,7.7451,7.7671,7.7671,7.7623,7.7683,7.7055,7.6311,7.5387,7.5275,7.4706,7.3849,7.4492,7.4458,7.4052,7.351,7.2665,7.165,7.0703,6.9045,6.732,6.7489,6.7049,6.6609,6.7929,6.7726,6.6914,6.6609,6.5831,6.5087,6.5087,0.0,0.0,6.6,6.8808,7.1447,7.1515,7.28,7.4356,7.5845,7.7604,7.9058,7.96,8.0919,8.2238,8.3321,8.3659,8.3998,8.4539,8.4437,8.4031,8.3287,8.349,8.3795,8.3998,8.437,8.464,8.464,8.464,8.464,8.464,8.4099,8.3389,8.2441,8.1663,8.0479,7.8822,7.8077,7.757,7.7333,7.5709,7.4796,7.4559,7.3071,7.1988,7.1312,7.1312,7.1312,7.1312,7.1075,7.0567,6.9701,6.8025,6.5914,6.3709,6.2588,6.0017,5.6944,0.0,0.0,0.0,0.0,0.0,0.0,0.0,0.0,0.0,0.0,0.0,0.0,0.0,5.7997,5.7997,5.7997,5.8767,6.0639,6.3943,6.6214,6.8877,7.2083,7.2577,7.3252,7.4234,7.431,7.483,7.5891,7.6793,7.7745,7.8552,7.8552,7.8993,7.9599,7.752,7.6576,7.6525,7.5879,7.5236,7.4762,7.6961,7.6961,7.5642,7.5608,7.3375,7.006,6.8538,6.7049,6.5527,6.414,6.3193,6.2685,6.3463,6.4174,6.485,6.5527,6.4715,6.3599,6.3599,0.0,6.7286,6.9485,7.2259,7.5033,7.7232,7.7773,7.8247,7.9735,8.0648,8.119,8.1224,8.2441,8.3456,8.349,8.4099,8.4606,8.464,8.3998,8.3253,8.2543,8.1832,8.1663,0.0,8.3795,8.464,8.464,8.464,8.464,8.464,8.4606,8.393,8.2475,8.1663,8.0242,7.8044,7.7299,7.6555,7.5777,7.5709,7.5303,7.4559,7.3071,7.1988,7.1312,7.1312,7.1312,7.1244,7.0534,6.9789,6.9045,6.8233,6.5832,6.3004,6.2972,6.0453,5.7004,0.0,0.0,0.0,0.0,0.0,0.0,0.0,0.0,0.0,0.0,0.0,0.0,0.0,0.0,0.0,0.0,5.8767,6.0382,6.3062,6.6464,6.9272,7.1283,7.2935,7.4174,7.4977,7.5089,7.5864,7.7411,7.8435,7.9103,7.9396,7.8705,7.9021,8.0221,7.8044,7.7647,7.8624,7.7656,7.7063,7.6826,7.6589,7.6149,7.554,7.4052,7.1819,6.9147,0.0,6.4106,6.1907,6.14,6.0757,6.0385,6.1637,6.1839,6.167,6.1907,6.3057,6.4546,6.6034,0.0,7.0567,7.3815,7.6149,7.8044,7.9769,8.0547,8.1054,8.1562,8.1088,8.0547,8.0547,8.0987,8.146,8.1934,8.3084,8.4065,8.4539,8.4403,8.3592,8.1866,8.1866,0.0,0.0,0.0,0.0,8.4539,8.464,8.464,8.464,8.4133,8.3422,8.2441,8.1663,8.0682,7.9464,7.8247,7.7739,7.7942,7.642,7.5067,7.3849,7.2834,7.1988,7.1312,7.1312,7.1312,7.1244,7.05,7.0026,6.9688,6.8402,6.6187,6.3709,6.3164,6.0453,5.7064,0.0,0.0,0.0,0.0,0.0,0.0,0.0,0.0,0.0,0.0,0.0,0.0,0.0,0.0,0.0,0.0,0.0,5.9685,6.1814,6.4934,6.7543,6.9298,7.0996,7.205,7.254,7.254,7.3219,7.4688,7.6342,7.7623,7.8362,7.7977,7.8493,7.9648,7.7521,7.7267,7.841,7.7263,7.6792,7.6657,7.5134,7.4187,7.3477,7.1244,6.8876,0.0,6.3903,6.1231,5.8896,5.8626,5.822,5.8017,5.8998,6.0047,6.096,6.1231,6.3632,6.6745,6.9214,7.1582,7.4086,7.7266,7.9194,8.0615,8.1799,8.2441,8.2712,8.2475,8.1224,8.004,7.9498,7.9194,7.9194,7.9634,8.075,8.1968,8.3253,8.2983,8.2408,8.1765,8.1663,8.146,0.0,0.0,0.0,8.4099,8.4234,8.4336,8.4606,8.4167,8.3422,8.2441,8.1934,8.1088,7.9837,7.8585,7.7942,7.7874,7.669,7.5202,7.3477,7.3003,7.2259,7.1312,7.1312,7.1312,7.1244,7.05,7.0026,6.9688,6.8402,6.6187,6.3677,6.3164,6.0453,5.7094,0.0,0.0,0.0,0.0,0.0,0.0,0.0,0.0,0.0,0.0,0.0,0.0,0.0,0.0,0.0,0.0,0.0,0.0,6.0199,6.1887,6.387,6.6219,6.7012,6.7311,6.7298,6.7369,6.7694,6.835,7.1183,7.3602,7.5742,7.6397,7.7156,7.788,7.5775,7.5273,7.595,7.4901,7.4356,7.4255,7.2732,7.1278,6.9755,6.7557,6.4884,6.2144,6.0689,5.8727,5.6697,5.6021,0.0,0.0,5.6021,5.9032,6.2685,6.3565,6.644,6.9958,7.2935,7.5371,7.7638,7.9837,8.1426,8.2644,8.3389,8.3524,8.3287,8.2509,8.1088,7.9498,0.0,0.0,7.6826,7.6893,7.7638,7.8957,8.1156,8.0276,8.0141,0.0,0.0,0.0,0.0,0.0,0.0,8.3389,0.0,8.3828,8.4573,8.464,8.3964,8.2509,8.2441,8.1393,7.9228,7.845,7.7266,7.5777,7.6555,7.5709,7.3544,7.351,7.2699,7.1379,7.1345,7.1312,7.1244,7.05,6.9755,6.9011,6.8113,6.5832,6.3004,6.2844,6.0422,5.7094,0.0,0.0,0.0,0.0,0.0,0.0,0.0,0.0,0.0,0.0,0.0,0.0,0.0,0.0,0.0,0.0,0.0,0.0,5.8584,6.1263,6.3099,6.3723,6.5504,6.6772,6.7275,6.7948,6.8607,6.9337,7.15,7.2788,7.3373,7.2762,7.3305,7.4774,7.2583,7.2465,7.3737,7.2126,7.1404,7.1142,6.9079,6.7996,6.7489,6.5797,6.3666,6.1535,6.1129,5.9201,5.6765,0.0,0.0,0.0,0.0,6.2212,6.4512,6.6948,6.9925,7.3003,7.6014,7.8483,8.0581,8.2238,8.2949,8.3422,8.4167,8.3896,8.3118,8.1832,7.9058,7.6386,0.0,0.0,0.0,7.6724,7.9363,0.0,8.3524,8.3456,0.0,0.0,0.0,8.1765,8.1596,8.1393,0.0,0.0,8.349,8.3828,8.4573,8.464,8.42,8.3253,8.2712,8.1866,8.075,7.9464,7.8077,7.6589,7.6792,7.598,7.4289,7.3747,7.3003,7.209,7.1548,7.1312,7.1244,7.05,6.9755,6.8924,6.7168,6.5068,6.2844,6.1361,5.9276,5.7034,0.0,0.0,0.0,0.0,0.0,0.0,0.0,0.0,0.0,0.0,0.0,0.0,0.0,0.0,0.0,0.0,0.0,0.0,0.0,5.9685,6.086,6.1227,6.2453,6.3345,6.3761,6.4554,6.5345,6.6046,6.8259,6.9654,7.0324,7.003,7.0428,7.1429,6.9735,6.9703,7.0835,6.908,6.8464,0.0,0.0,6.441,6.4208,6.2347,6.0892,5.981,5.981,5.9573,0.0,0.0,0.0,6.2381,6.4208,6.6305,6.8538,7.121,0.0,7.6521,7.9194,8.1054,8.2543,8.3693,8.3998,8.3761,8.2881,8.2611,8.1629,7.8517,7.5946,0.0,0.0,0.0,0.0,0.0,0.0,0.0,8.2915,8.2881,8.2847,0.0,8.3084,0.0,8.2746,8.2441,8.2746,0.0,8.3693,8.3828,8.4573,8.464,8.4268,8.3524,8.3084,8.2205,8.0818,8.0006,7.8686,7.6893,7.7232,7.6251,7.4086,7.368,7.2902,7.1887,0.0,7.1312,7.1244,7.05,6.9423,6.8082,6.656,6.438,6.1901,6.0578,5.8848,5.7004,0.0,0.0,0.0,0.0,0.0,0.0,0.0,0.0,0.0,0.0,0.0,0.0,0.0,0.0,0.0,0.0,0.0,0.0,0.0,0.0,5.8327,5.9024,5.9061,5.903,5.9003,5.9907,6.0696,6.1254,6.3703,6.5569,6.6921,6.7547,6.7811,6.7811,6.7023,6.6982,6.7376,6.5964,6.5739,6.5862,6.2377,6.0977,6.0774,0.0,5.7881,5.7915,5.8017,0.0,0.0,0.0,6.6981,6.6034,6.8368,7.1007,7.3713,7.5811,7.7976,8.0141,8.2171,8.3253,8.393,8.4471,8.4539,8.3727,8.0851,8.0445,7.9261,7.4221,0.0,7.1312,6.918,7.0601,7.2259,7.2766,0.0,7.8991,8.1393,8.119,8.1731,8.4336,8.4065,8.3896,8.4573,8.4031,8.393,8.4573,8.4031,8.393,8.4606,8.464,8.4268,8.3524,8.3422,8.2374,8.0378,8.0242,7.9126,7.7063,7.7671,7.6521,7.3781,7.3578,7.28,7.1582,7.1413,0.0,7.1278,7.0601,6.9099,6.707,6.6166,6.3838,6.0927,6.0074,5.8644,5.7004,0.0,0.0,0.0,0.0,0.0,0.0,0.0,0.0,0.0,0.0,5.7997,5.7997,0.0,0.0,0.0,0.0,0.0,0.0,0.0,0.0,0.0,5.8217,5.8217,5.8207,5.8176,5.964,6.0468,6.0573,6.2333,6.3335,6.3628,6.3774,6.3847,6.3795,6.4383,6.4235,6.3633,6.343,6.3004,6.2275,6.0253,5.9461,5.9357,5.8273,0.0,0.0,0.0,0.0,0.0,0.0,6.9857,7.1548,7.4424,7.6521,7.8247,7.9837,8.146,8.2949,8.3964,8.4809,8.5249,8.4742,8.4167,8.3084,8.0716,7.8889,0.0,0.0,7.0601,6.918,6.7523,6.9045,7.1582,7.4627,0.0,0.0,0.0,0.0,8.4065,0.0,0.0,0.0,0.0,0.0,0.0,0.0,0.0,8.4471,8.4606,8.464,8.4268,8.3524,8.2915,8.2103,8.1088,8.0513,7.9397,7.7807,7.7942,7.7063,7.527,7.4052,7.3341,7.3037,7.1853,0.0,7.1312,7.1176,6.9477,6.701,6.5837,6.3599,6.0825,5.9136,5.7873,5.7004,0.0,0.0,0.0,0.0,0.0,0.0,0.0,5.6565,5.7262,5.8474,5.8988,5.8914,5.807,5.7997,5.7997,0.0,0.0,0.0,0.0,0.0,0.0,0.0,0.0,0.0,5.8621,5.9795,0.0,0.0,0.0,6.2805,6.2805,0.0,0.0,6.2842,6.3246,6.3152,6.2711,6.2349,6.1918,6.1474,6.029,5.9509,5.9078,0.0,0.0,0.0,0.0,0.0,0.0,0.0,7.1007,7.4695,7.8111,8.0209,8.1596,8.2712,8.3795,8.4776,8.5114,8.579,8.6196,8.5418,8.437,8.2509,7.872,0.0,0.0,0.0,6.8402,6.7557,6.644,6.8402,0.0,0.0,0.0,0.0,0.0,0.0,0.0,0.0,0.0,0.0,0.0,0.0,0.0,0.0,0.0,8.464,8.464,8.464,8.4471,8.4099,8.2983,8.2238,8.1866,8.075,7.9464,7.7976,7.7976,7.6995,7.51,7.3984,7.3274,7.2868,7.1785,0.0,7.017,7.017,6.817,6.4953,6.4349,6.2436,5.9879,5.8564,5.7932,5.7483,0.0,0.0,0.0,0.0,0.0,0.0,0.0,5.7373,5.8143,5.9758,6.0382,6.0126,5.8657,5.851,5.8364,0.0,0.0,0.0,0.0,0.0,0.0,0.0,0.0,0.0,0.0,0.0,0.0,0.0,0.0,0.0,0.0,0.0,0.0,0.0,0.0,6.3135,6.2792,6.2529,6.2259,0.0,0.0,6.0501,0.0,0.0,0.0,0.0,0.0,0.0,0.0,0.0,7.0906,7.4965,7.8855,8.1663,8.3558,8.3828,8.4911,8.5993,8.5824,8.6433,8.6941,8.5993,8.464,8.2137,7.6893,7.4424,0.0,0.0,6.6576,6.6406,6.5797,6.776,6.9688,0.0,0.0,0.0,0.0,0.0,0.0,0.0,0.0,0.0,0.0,0.0,0.0,0.0,0.0,0.0,8.464,8.464,8.4539,8.4403,8.3118,8.234,8.2171,8.0851,7.9464,7.7976,7.7976,7.6792,7.4593,7.3815,7.2979,7.1926,7.1219,0.0,0.0,6.8797,6.6598,6.3357,6.3202,6.1508,5.9249,5.859,5.8231,5.7992,0.0,0.0,0.0,0.0,0.0,0.0,0.0,5.9134,6.0676,6.2254,6.1887,6.1153,6.0272,6.0199,5.9612,0.0,0.0,0.0,0.0,0.0,0.0,0.0,0.0,0.0,0.0,0.0,0.0,0.0,0.0,0.0,0.0,0.0,0.0,0.0,0.0,0.0,0.0,6.4369,0.0,0.0,0.0,0.0,0.0,0.0,0.0,0.0,0.0,0.0,0.0,0.0,0.0,7.0466,7.483,7.9566,8.3253,8.1968,0.0,0.0,8.596,8.6805,8.755,8.6129,8.464,8.2137,7.6893,0.0,0.0,6.6711,6.5797,6.5764,6.5696,6.6474,6.803,0.0,0.0,7.4458,0.0,0.0,0.0,0.0,0.0,0.0,0.0,0.0,0.0,0.0,0.0,0.0,8.464,8.464,8.4302,8.3625,8.2813,8.2069,8.1393,8.0581,7.9464,7.7976,7.7976,7.6792,7.4593,7.3815,7.2445,7.0433,6.9706,0.0,0.0,6.7368,6.6099,6.3902,6.3388,6.1814,5.9907,5.9249,5.865,5.8112,0.0,0.0,0.0,0.0,0.0,0.0,5.7886,5.8143,5.9171,6.1741,6.2218,6.2034,6.119,6.1557,6.0823,5.8217,0.0,0.0,0.0,0.0,0.0,0.0,0.0,0.0,0.0,0.0,0.0,0.0,0.0,0.0,0.0,0.0,0.0,0.0,0.0,0.0,0.0,0.0,0.0,0.0,0.0,0.0,0.0,0.0,0.0,0.0,0.0,0.0,0.0,0.0,0.0,0.0,6.8876,7.2902,0.0,0.0,8.2644,8.5182,8.6704,8.7854,8.8497,8.7922,8.4945,8.1156,7.7299,0.0,6.9654,6.6914,6.6,6.5696,6.5696,6.5561,6.6,6.7658,6.8166,0.0,7.4221,0.0,0.0,0.0,0.0,0.0,0.0,0.0,0.0,0.0,0.0,0.0,8.464,8.464,8.4268,8.3524,8.278,8.2035,8.1291,8.0547,7.9464,7.7976,7.7976,7.6792,7.4593,7.3815,7.2317,7.0239,6.9514,0.0,0.0,6.5941,6.4708,6.2809,6.2141,6.1176,5.9997,5.9338,5.8949,5.865,0.0,0.0,0.0,0.0,0.0,5.7446,5.8217,5.807,5.8841,6.1594,6.2254,6.2218,6.1667,6.1704,6.0823,5.8547,5.8143,0.0,0.0,0.0,0.0,0.0,0.0,0.0,0.0,0.0,0.0,6.1263,0.0,0.0,0.0,0.0,0.0,0.0,0.0,0.0,0.0,0.0,0.0,0.0,0.0,0.0,0.0,0.0,0.0,0.0,0.0,0.0,0.0,0.0,0.0,0.0,0.0,0.0,0.0,0.0,8.0412,8.3693,8.6027,8.7854,8.9038,8.8801,8.5148,8.0851,0.0,7.3341,6.9248,6.7489,6.6542,6.6034,6.6034,6.5595,6.5425,6.5933,6.6406,6.7861,7.1176,7.2902,0.0,0.0,0.0,0.0,0.0,0.0,0.0,0.0,0.0,0.0,8.464,8.464,8.4167,8.3186,8.2678,8.1934,8.0953,8.0242,7.9228,7.7976,7.7536,7.6251,7.4255,7.351,7.1794,6.9287,6.8797,0.0,0.0,6.4512,6.3711,6.2301,6.1433,6.0805,6.0296,5.9428,5.9099,5.9039,0.0,0.0,0.0,0.0,0.0,0.0,5.9061,5.9869,6.097,6.2585,6.2108,6.1594,6.1594,6.0199,5.9245,5.9208,5.8474,0.0,0.0,0.0,0.0,0.0,0.0,0.0,0.0,0.0,6.0419,6.0419,6.2034,6.2805,0.0,0.0,0.0,0.0,0.0,0.0,0.0,0.0,0.0,0.0,0.0,0.0,6.6186,0.0,0.0,0.0,0.0,0.0,0.0,0.0,0.0,0.0,0.0,6.5662,0.0,0.0,7.7198,8.2577,8.3321,8.6264,8.8903,8.8192,8.5182,8.1629,7.8653,7.4525,7.0635,6.8368,6.732,6.6812,6.6812,6.6779,6.6779,6.6812,6.8064,6.9857,7.209,0.0,0.0,0.0,0.0,0.0,0.0,0.0,0.0,0.0,0.0,0.0,8.464,8.464,8.3964,8.2475,8.2408,8.1697,8.0209,7.9498,7.8754,7.7976,7.6454,7.4931,7.3477,7.2732,7.0552,0.0,0.0,0.0,0.0,6.3079,6.3079,6.2929,6.1613,6.1104,6.0954,5.9608,5.9099,5.9099,0.0,0.0,0.0,0.0,0.0,0.0,0.0,5.8584,5.9355,6.097,6.0933,6.1006,6.152,6.0639,5.9795,5.9281,5.8474,0.0,0.0,0.0,0.0,0.0,0.0,0.0,0.0,0.0,6.0419,6.0419,6.2034,6.2805,6.2805,6.2805,6.2805,0.0,0.0,0.0,0.0,0.0,0.0,0.0,0.0,6.6547,6.5514,0.0,0.0,0.0,0.0,0.0,0.0,0.0,0.0,0.0,0.0,0.0,0.0,6.7184,7.2225,0.0,7.9228,8.1325,8.2949,8.2712,8.0242,7.7435,7.6014,7.2631,6.9451,6.8166,6.732,6.6812,6.6812,6.6406,6.6373,6.7387,6.7557,6.8132,0.0,0.0,0.0,0.0,0.0,0.0,0.0,0.0,0.0,0.0,0.0,0.0,8.464,8.464,8.393,8.2475,8.2408,8.146,7.9464,7.9228,7.8483,7.7232,7.6758,7.5439,7.3477,7.324,7.0984,0.0,0.0,0.0,0.0,6.3079,6.3079,6.2959,6.1613,6.1104,6.0954,5.9608,5.9099,5.9099,0.0,0.0,0.0,0.0,0.0,0.0,0.0,5.7997,5.8364,5.9355,5.9501,5.9795,6.0603,5.9979,5.9428,5.9245,5.8474,0.0,0.0,0.0,0.0,0.0,0.0,0.0,0.0,5.9575,6.0566,6.086,6.2805,6.3613,6.3319,6.3613,6.3429,6.2805,6.2805,0.0,0.0,0.0,0.0,0.0,6.7357,6.7049,6.609,0.0,0.0,0.0,0.0,0.0,0.0,0.0,0.0,0.0,0.0,0.0,0.0,0.0,6.7895,7.2056,0.0,7.8213,7.987,8.0141,7.7942,0.0,7.5134,7.1954,6.8977,6.847,6.7523,6.6812,6.6812,6.6203,6.6068,6.7286,6.7117,6.7455,0.0,0.0,0.0,0.0,0.0,0.0,0.0,0.0,0.0,0.0,0.0,0.0,8.464,8.437,8.3659,8.2441,8.2408,8.1494,7.9532,7.8957,7.8213,7.7299,7.6454,7.5303,7.3883,7.3341,7.1117,0.0,0.0,0.0,0.0,6.3079,6.2929,6.26,6.1523,6.0954,6.0595,5.9518,5.9099,5.9099,0.0,0.0,0.0,0.0,0.0,0.0,0.0,5.7997,5.7997,5.7997,5.7997,5.829,5.9061,5.8437,5.829,5.9061,0.0,0.0,0.0,0.0,0.0,0.0,0.0,0.0,5.7997,5.9575,6.0786,6.152,6.4016,6.4824,6.4127,6.4934,6.4457,6.2915,6.2915,6.2879,0.0,0.0,0.0,0.0,6.721,6.7504,0.0,0.0,0.0,0.0,0.0,0.0,0.0,0.0,0.0,0.0,0.0,0.0,0.0,0.0,0.0,0.0,0.0,7.6115,7.8483,7.916,7.7266,7.5236,7.5236,7.2022,0.0,6.9011,6.7793,6.6745,6.6812,6.6136,6.5865,6.6677,6.6812,6.759,0.0,0.0,0.0,0.0,0.0,0.0,0.0,0.0,0.0,0.0,0.0,0.0,8.464,8.3896,8.3152,8.2441,8.2306,8.1562,8.0073,7.8619,7.7874,7.7807,7.5642,7.4593,7.4492,7.3037,7.0918,0.0,0.0,0.0,0.0,6.3279,6.2804,6.2032,6.1373,6.0685,5.9997,5.9338,5.9099,5.9099,0.0,0.0,0.0,0.0,0.0,0.0,0.0,0.0,0.0,0.0,5.7997,5.807,5.8253,5.8107,5.807,0.0,0.0,0.0,0.0,0.0,0.0,0.0,0.0,0.0,5.7997,5.9575,6.0493,6.0676,6.3172,6.4273,6.4127,6.4934,6.4751,6.3796,6.3796,6.3429,0.0,0.0,0.0,0.0,6.5558,6.5852,0.0,0.0,0.0,0.0,6.4521,6.3684,0.0,0.0,0.0,0.0,0.0,0.0,0.0,0.0,6.3768,6.458,6.7083,0.0,7.0567,7.0737,7.0737,7.0635,0.0,6.9383,0.0,0.0,0.0,0.0,0.0,0.0,6.529,6.6609,6.6812,6.7421,6.9113,0.0,0.0,0.0,0.0,0.0,0.0,0.0,0.0,0.0,0.0,8.464,8.464,8.3896,8.3152,8.2441,8.1325,8.0006,7.8517,7.7604,7.686,7.6217,7.5134,7.4289,7.3713,7.28,7.1158,0.0,0.0,0.0,6.4623,6.4623,6.3589,6.2032,6.1373,6.0685,5.9997,5.9338,5.9099,5.9099,0.0,0.0,0.0,0.0,0.0,0.0,0.0,0.0,0.0,0.0,0.0,5.7997,5.7997,5.7997,0.0,0.0,0.0,0.0,0.0,0.0,0.0,0.0,0.0,5.7997,5.7997,5.9575,6.0566,6.0933,6.3429,6.464,6.4677,6.5485,6.5228,6.4053,6.3686,6.3246,0.0,0.0,0.0,6.4163,6.4971,0.0,0.0,0.0,0.0,0.0,6.4457,6.3625,0.0,6.1554,6.1772,6.2245,0.0,0.0,0.0,0.0,6.2212,6.2753,6.3869,6.6,6.7996,6.8368,6.9011,6.9519,6.918,0.0,0.0,0.0,0.0,0.0,0.0,0.0,0.0,6.6102,6.6576,6.7929,0.0,0.0,0.0,0.0,0.0,0.0,0.0,0.0,0.0,0.0,0.0,8.4471,8.4133,8.3389,8.2678,8.19,8.0479,7.9329,7.8517,7.7063,7.6318,7.6217,7.4796,7.4052,7.395,7.2902,7.1446,0.0,0.0,0.0,6.5111,6.5111,6.3709,6.1613,6.1253,6.0505,5.9608,5.9249,5.9099,5.9099,0.0,0.0,0.0,0.0,0.0,0.0,0.0,0.0,0.0,0.0,0.0,0.0,0.0,0.0,0.0,0.0,0.0,0.0,0.0,0.0,0.0,0.0,5.7997,5.7997,5.7997,5.9575,6.075,6.141,6.4163,6.5485,6.5521,6.6549,6.6109,6.442,6.3576,6.3062,0.0,0.0,0.0,6.3943,6.464,0.0,0.0,0.0,0.0,0.0,0.0,0.0,0.0,6.1456,6.1588,6.1907,6.1197,0.0,0.0,0.0,0.0,0.0,6.2279,6.5087,6.7827,6.8301,6.8977,6.9316,6.8571,0.0,0.0,0.0,0.0,0.0,0.0,0.0,0.0,0.0,0.0,0.0,0.0,0.0,0.0,0.0,0.0,0.0,0.0,0.0,0.0,0.0,0.0,8.4167,8.3524,8.2678,8.1934,8.1291,7.987,7.9058,7.8923,7.6893,7.6149,7.669,7.4627,7.395,7.439,7.3037,7.1707,7.0398,0.0,0.0,6.5728,6.5419,6.3732,6.1378,6.1096,6.0206,5.9099,5.9099,5.9099,5.9099,0.0,0.0,0.0,0.0,0.0,0.0,0.0,0.0,0.0,0.0,0.0,0.0,0.0,0.0,0.0,0.0,0.0,0.0,0.0,0.0,0.0,5.7997,5.7997,5.7997,5.7997,5.9575,6.0456,6.0566,6.442,6.6329,6.6366,6.8531,6.8311,6.6109,6.5301,6.4127,6.2805,0.0,0.0,6.3025,6.3135,0.0,0.0,0.0,0.0,0.0,0.0,0.0,0.0,6.0669,6.0442,6.0317,5.9607,0.0,0.0,0.0,0.0,0.0,6.2787,6.5121,6.6711,6.5561,6.5831,6.6203,6.5459,0.0,0.0,0.0,0.0,0.0,0.0,0.0,0.0,0.0,0.0,0.0,0.0,0.0,0.0,0.0,0.0,0.0,0.0,0.0,0.0,0.0,0.0,8.3625,8.349,8.2205,8.1393,8.1291,7.987,7.8822,7.8145,7.7198,7.6454,7.5879,7.4897,7.4153,7.3612,7.28,7.1965,7.1142,0.0,7.0043,6.8438,6.6727,6.4799,6.261,6.0965,5.9787,5.9099,5.9099,5.9099,5.9099,0.0,0.0,0.0,0.0,0.0,0.0,0.0,0.0,0.0,0.0,0.0,0.0,0.0,0.0,0.0,0.0,0.0,0.0,0.0,0.0,5.818,5.8621,5.8217,5.7997,5.7997,6.0015,6.1484,6.2401,6.5595,6.7834,6.9082,6.8898,6.7981,6.6439,6.4714,6.3539,6.2805,6.2805,6.2805,6.2805,0.0,0.0,0.0,0.0,0.0,0.0,0.0,0.0,0.0,0.0,6.0553,5.9979,5.9235,0.0,0.0,0.0,0.0,0.0,6.1264,6.3024,6.4444,6.458,6.6677,6.8436,6.7286,0.0,0.0,0.0,0.0,0.0,0.0,0.0,0.0,0.0,0.0,0.0,0.0,0.0,0.0,0.0,0.0,0.0,0.0,0.0,0.0,0.0,0.0,0.0,8.234,8.1663,8.1088,8.0716,7.9667,7.8754,7.801,7.7266,7.6318,7.51,7.395,7.324,7.2868,7.2157,7.1616,7.1312,0.0,7.0076,6.8074,6.7117,6.4842,6.1947,6.0937,6.0027,5.9099,5.9099,5.9099,5.9099,0.0,0.0,0.0,0.0,0.0,0.0,0.0,0.0,0.0,0.0,0.0,0.0,0.0,0.0,0.0,0.0,0.0,0.0,0.0,5.7997,5.8253,5.8914,5.851,5.8474,5.8841,6.1043,6.2989,6.464,6.7467,6.9853,7.1835,6.9596,6.8017,6.6953,6.4494,6.3282,6.3099,6.2915,6.2805,6.2805,0.0,0.0,0.0,0.0,0.0,0.0,0.0,0.0,0.0,0.0,0.0,0.0,0.0,0.0,0.0,5.822,5.8287,5.8998,6.008,6.1501,6.2956,6.4275,0.0,6.9383,0.0,0.0,0.0,0.0,0.0,0.0,0.0,0.0,0.0,0.0,0.0,0.0,0.0,0.0,0.0,0.0,0.0,0.0,0.0,0.0,0.0,0.0,0.0,0.0,8.1359,8.1122,8.0682,7.9972,7.9397,7.8653,7.7739,7.7164,7.6149,7.4593,7.3443,7.2732,7.2394,7.1819,7.1481,7.1312,7.1312,6.9949,6.7673,6.7208,6.4789,6.1489,6.1036,6.0146,5.9099,5.9099,5.9099,5.9099,0.0,0.0,0.0,0.0,0.0,0.0,0.0,0.0,0.0,0.0,0.0,0.0,0.0,0.0,0.0,0.0,0.0,0.0,0.0,5.7997,5.8033,5.807,5.8767,5.9832,6.13,6.3025,6.4714,6.6329,7.0257,7.2642,7.3487,7.1835,7.022,6.8641,6.6219,6.4714,6.3943,6.3135,6.2805,6.2805,6.2805,0.0,0.0,0.0,0.0,0.0,0.0,0.0,0.0,0.0,0.0,0.0,0.0,0.0,5.8017,5.7915,5.7915,5.8457,6.0622,6.2313,6.3632,6.441,0.0,0.0,0.0,0.0,0.0,0.0,0.0,0.0,0.0,0.0,0.0,0.0,0.0,0.0,0.0,0.0,0.0,0.0,0.0,0.0,0.0,0.0,0.0,0.0,0.0,0.0,8.1291,8.0648,7.9938,7.9228,7.916,7.8416,7.6995,7.6927,7.6149,7.4627,7.4492,7.3713,7.2394,7.236,7.1954,7.1312,7.1312,7.0482,6.8958,6.7063,6.4942,6.2792,6.0874,5.9727,5.9099,5.9099,5.9099,5.9099,0.0,0.0,0.0,0.0,0.0,0.0,0.0,0.0,0.0,0.0,0.0,0.0,0.0,0.0,0.0,0.0,0.0,0.0,0.0,5.7997,5.8217,5.8731,5.8547,5.9428,6.1557,6.42,6.688,6.9486,7.301,7.4147,7.2899,7.0807,6.8678,6.6586,6.464,6.3576,6.3282,6.2952,6.2805,6.2805,6.2805,6.2805,0.0,0.0,0.0,0.0,0.0,0.0,0.0,0.0,6.1432,5.918,5.9457,5.8804,5.7881,5.7881,5.7881,5.8186,5.9505,6.1332,6.299,6.3734,0.0,0.0,0.0,0.0,0.0,0.0,0.0,0.0,0.0,0.0,0.0,0.0,0.0,0.0,0.0,0.0,0.0,0.0,0.0,0.0,0.0,0.0,0.0,0.0,0.0,0.0,7.9972,7.9667,7.9194,7.845,7.7976,7.7468,7.6893,7.5946,7.4965,7.3916,7.3916,7.3138,7.1718,7.1718,7.1582,7.1312,7.1312,7.0076,6.7874,6.708,6.5156,6.2304,6.0696,5.9668,5.9159,5.9548,5.9727,5.9787,0.0,0.0,0.0,0.0,0.0,0.0,0.0,0.0,0.0,0.0,0.0,0.0,0.0,0.0,0.0,0.0,0.0,0.0,5.7997,5.7997,5.8253,5.8804,5.8547,5.9391,6.1557,6.5081,6.8201,7.0917,7.4404,7.4735,7.2092,6.9926,6.7871,6.5962,6.3796,6.3099,6.3576,6.3025,6.2805,6.2805,6.2805,6.2805,0.0,0.0,0.0,0.0,0.0,0.0,0.0,0.0,6.1973,5.9896,6.0206,5.9386,5.8212,5.7973,5.8065,5.8321,5.8592,6.0148,6.1839,6.2618,0.0,0.0,0.0,0.0,0.0,0.0,0.0,0.0,0.0,0.0,0.0,0.0,0.0,0.0,0.0,0.0,0.0,0.0,0.0,0.0,0.0,0.0,0.0,0.0,0.0,0.0,0.0,7.8754,7.8416,7.7671,7.7164,7.6657,7.6183,7.5134,7.4119,7.3138,7.3138,7.2496,7.1312,7.1312,7.1312,7.1312,7.1312,6.9949,6.7774,6.7368,6.5014,6.1672,6.0535,5.9817,5.9458,5.9907,6.0206,6.0475,0.0,0.0,0.0,0.0,0.0,0.0,0.0,0.0,0.0,0.0,0.0,0.0,0.0,0.0,0.0,0.0,0.0,0.0,5.7997,5.7997,5.7997,5.7997,5.8767,5.9942,6.152,6.5558,6.8458,7.011,7.4111,7.4404,7.1248,6.9633,6.8458,6.7504,6.4273,6.3723,6.5191,6.3503,6.2805,6.2805,6.2805,6.2805,6.2805,0.0,0.0,0.0,0.0,0.0,0.0,0.0,6.3619,6.1748,6.2542,6.1122,5.9007,5.821,5.846,5.8863,5.8084,5.8964,6.0283,6.1095,0.0,0.0,0.0,0.0,0.0,0.0,0.0,0.0,0.0,0.0,0.0,0.0,0.0,0.0,0.0,0.0,0.0,0.0,0.0,0.0,0.0,0.0,0.0,0.0,0.0,0.0,0.0,7.7976,7.7638,7.6893,7.686,7.6149,7.4627,7.4593,7.3849,7.2394,7.2394,7.2022,7.1312,7.1312,7.1312,7.1312,7.1312,7.0482,6.9088,6.7774,6.4733,6.1044,6.0386,6.0116,6.0086,6.0116,6.0535,6.1134,0.0,0.0,0.0,0.0,0.0,0.0,0.0,0.0,0.0,0.0,0.0,0.0,0.0,0.0,0.0,0.0,0.0,0.0,5.7997,5.7997,5.7997,5.7997,5.8217,5.8584,5.9061,6.2475,6.6733,7.1798,7.2973,7.1615,6.7907,6.743,6.6145,6.4237,6.387,6.3649,6.3539,6.3025,6.2805,6.2805,6.2805,6.2805,6.2805,0.0,0.0,0.0,0.0,0.0,0.0,0.0,0.0,0.0,6.1893,6.1867,6.119,5.872,5.8976,5.9529,5.7046,5.8186,0.0,0.0,0.0,0.0,0.0,0.0,0.0,0.0,0.0,0.0,0.0,0.0,0.0,0.0,0.0,0.0,0.0,0.0,0.0,0.0,0.0,0.0,0.0,0.0,0.0,0.0,0.0,0.0,0.0,7.669,7.6048,7.5303,7.4762,7.4289,7.3815,7.3308,7.2834,7.2394,7.1887,7.1515,7.1312,7.1312,7.1312,7.1312,7.1312,7.0482,6.8991,6.6647,6.421,6.1792,6.1583,6.1224,6.0864,6.1343,6.1642,6.1882,0.0,0.0,0.0,0.0,0.0,0.0,0.0,0.0,0.0,0.0,0.0,0.0,0.0,0.0,0.0,0.0,0.0,0.0,0.0,5.7997,5.7997,5.7997,5.7997,5.8437,5.9391,6.163,6.4897,6.9155,7.011,6.9045,6.6035,6.6659,6.5852,6.3833,6.5007,6.4861,6.3796,6.3796,6.3429,6.2805,6.2805,6.2805,6.2805,0.0,0.0,0.0,0.0,0.0,0.0,0.0,0.0,0.0,6.1604,6.1512,6.101,5.9053,5.9199,5.9564,5.7899,0.0,0.0,0.0,0.0,0.0,0.0,0.0,0.0,0.0,0.0,0.0,0.0,0.0,0.0,0.0,0.0,0.0,0.0,0.0,0.0,0.0,0.0,0.0,0.0,0.0,0.0,0.0,0.0,0.0,0.0,7.5236,7.4627,7.4187,7.3713,7.3341,7.3071,7.2631,7.2259,7.1954,7.1515,7.1312,7.1312,7.1312,7.1312,7.1312,7.1312,7.017,6.8306,6.6679,6.4412,6.2091,6.2091,6.1852,6.1553,6.1942,6.2271,6.254,0.0,0.0,0.0,0.0,0.0,0.0,0.0,0.0,0.0,0.0,0.0,0.0,0.0,0.0,0.0,0.0,0.0,0.0,0.0,5.7997,5.7997,5.7997,5.7997,5.9024,6.1227,6.1998,6.2842,6.3759,6.6256,6.6659,6.5118,6.6806,6.6769,6.5375,6.6916,6.6733,6.5301,6.5154,6.4237,6.2915,6.2915,6.2915,6.2915,6.2915,0.0,0.0,0.0,0.0,0.0,0.0,0.0,0.0,6.1704,6.0792,5.9601,5.9277,5.9236,5.946,0.0,0.0,0.0,0.0,0.0,0.0,0.0,0.0,0.0,0.0,0.0,0.0,0.0,0.0,0.0,0.0,0.0,0.0,0.0,0.0,0.0,0.0,0.0,0.0,0.0,0.0,0.0,0.0,0.0,0.0,0.0,7.3781,7.3375,7.3375,7.3308,7.2969,7.2326,7.2293,7.1954,7.1312,7.1312,7.1312,7.1312,7.1312,7.1312,7.1312,7.1312,6.976,6.7164,6.7164,6.517,6.2181,6.2181,6.2181,6.2181,6.2181,6.254,6.2989,0.0,0.0,0.0,0.0,0.0,0.0,0.0,0.0,0.0,0.0,0.0,0.0,0.0,0.0,0.0,0.0,0.0,0.0,0.0,5.7997,5.7997,5.7997,5.7997,5.8253,5.8767,5.8951,5.9758,6.119,6.431,6.4971,6.3392,6.5668,6.6256,6.5338,6.6329,6.6219,6.5228,6.3906,6.3539,6.3796,6.3796,6.3796,6.3796,6.3796,6.3392,0.0,0.0,0.0,0.0,0.0,0.0,0.0,6.2548,6.2778,6.2522,6.0016,6.0084,6.0803,0.0,0.0,0.0,0.0,0.0,0.0,0.0,0.0,0.0,0.0,0.0,0.0,0.0,0.0,0.0,0.0,0.0,0.0,0.0,0.0,0.0,0.0,0.0,0.0,0.0,0.0,0.0,0.0,0.0,0.0,7.3781,7.3037,7.2631,7.2631,7.209,7.1718,7.1548,7.1548,7.1481,0.0,7.1312,7.1312,7.1312,7.1312,7.1312,7.1312,7.1312,6.976,6.7164,6.7164,6.5451,6.2869,6.2869,6.2869,6.2869,6.2869,6.263,6.2301,0.0,0.0,0.0,0.0,0.0,0.0,0.0,0.0,0.0,0.0,0.0,0.0,0.0,0.0,0.0,0.0,0.0,0.0,0.0,0.0,5.7997,5.7997,5.8194,5.8369,5.8369,5.8695,5.9509,6.0728,6.3027,6.387,6.3466,6.5521,6.6292,6.5925,6.7136,6.6769,6.5264,6.4383,6.3796,6.3466,6.3466,6.3466,6.3466,6.3466,6.2952,6.2218,6.2218,0.0,0.0,0.0,0.0,0.0,0.0,0.0,6.1482,6.0194,6.01,6.0594,0.0,0.0,0.0,0.0,0.0,0.0,0.0,0.0,0.0,0.0,0.0,0.0,0.0,0.0,0.0,0.0,0.0,0.0,0.0,0.0,0.0,0.0,0.0,0.0,0.0,0.0,0.0,0.0,0.0,7.3375,7.2969,7.2259,7.1887,7.1887,7.1515,7.1312,7.1312,7.1312,7.1312,7.1312,7.1312,7.1312,7.1312,7.1312,7.1312,7.1312,7.0939,6.9429,6.7164,6.6812,6.5263,6.3079,6.3079,6.3079,6.3079,6.3079,6.2869,6.251,0.0,0.0,0.0,0.0,0.0,0.0,0.0,0.0,0.0,0.0,0.0,0.0,0.0,0.0,0.0,0.0,0.0,0.0,0.0,0.0,0.0,5.7997,5.8461,5.8713,5.8713,5.9454,6.0273,6.1092,6.2251,6.3319,6.4347,6.5962,6.6623,6.6549,6.7907,6.732,6.5301,6.5007,6.4163,6.3025,6.3025,6.3025,6.3025,6.3025,6.2438,6.1594,6.1594,6.152,6.141,6.1557,0.0,0.0,0.0,0.0,5.9505,5.9957,5.9655,5.9793,0.0,0.0,0.0,0.0,0.0,0.0,0.0,0.0,0.0,0.0,0.0,0.0,0.0,0.0,0.0,0.0,0.0,0.0,0.0,0.0,0.0,0.0,0.0,0.0,0.0,0.0,0.0,0.0,0.0,7.2326,7.2225,7.165,7.1312,7.1312,7.1312,7.1312,7.1312,7.1312,7.1312,7.1312,7.1312,7.1312,7.1312,7.1176,7.1109,7.1075,7.0254,6.8777,6.694,6.6058,6.4737,6.3079,6.3079,6.3079,6.3079,6.2959,6.2839,6.266,0.0,0.0,0.0,0.0,0.0,0.0,0.0,0.0,0.0,0.0,0.0,0.0,0.0,0.0,0.0,0.0,0.0,0.0,5.7997,0.0,0.0,5.7997,5.8461,5.8713,5.8713,5.9454,6.0273,6.1092,6.2251,6.3613,6.5191,6.6769,6.7173,6.6512,6.6733,6.6256,6.5228,6.3759,6.3429,6.3906,6.3906,6.3906,6.3906,6.3906,6.2952,6.1594,6.1594,6.1153,6.0676,6.1374,6.1594,0.0,0.0,0.0,6.0114,5.9505,5.9241,5.9492,0.0,0.0,0.0,0.0,0.0,0.0,0.0,0.0,0.0,0.0,0.0,0.0,0.0,0.0,0.0,0.0,0.0,0.0,0.0,0.0,0.0,0.0,0.0,0.0,0.0,0.0,0.0,0.0,7.2462,7.2124,7.1481,7.1379,7.1312,7.1312,7.1312,7.1312,7.1312,7.1312,7.1312,7.1312,7.1312,7.1312,7.1312,7.0635,7.0331,7.0242,6.8977,6.7589,6.6167,6.4936,6.3899,6.3079,6.3079,6.3079,6.3019,6.245,6.1882,6.1283,0.0,0.0,0.0,0.0,0.0,0.0,0.0,0.0,0.0,0.0,0.0,0.0,0.0,0.0,0.0,5.7997,5.7997,5.7997,5.7997,5.7997,5.7997,5.7997,5.8713,5.9065,5.9065,6.0303,6.1128,6.1503,6.2835,6.4383,0.0,6.7136,6.7504,6.7136,6.6219,6.5632,6.5191,6.3539,6.3025,6.3392,6.3392,6.3099,6.2732,6.3209,6.2071,6.0309,6.0786,6.0419,5.9795,6.0162,6.0566,6.086,6.0419,0.0,0.0,0.0,0.0,0.0,0.0,0.0,0.0,0.0,0.0,0.0,0.0,0.0,0.0,0.0,0.0,0.0,0.0,0.0,0.0,0.0,0.0,0.0,0.0,0.0,0.0,0.0,0.0,0.0,0.0,0.0,0.0,0.0,7.1785,7.165,7.1345,7.1312,7.1312,7.1312,7.1312,7.1312,7.1312,7.1312,7.1312,7.1312,7.1312,7.1312,7.1278,7.0534,7.0195,7.0128,6.8652,6.7048,6.5464,6.4792,6.3718,6.257,6.2929,6.3079,6.2989,6.2331,6.1912,6.1523,0.0,0.0,0.0,0.0,0.0,0.0,0.0,0.0,0.0,0.0,0.0,0.0,0.0,0.0,0.0,0.0,5.7997,5.7997,5.7997,5.7997,5.7997,5.7997,5.8913,5.9389,5.9389,6.0894,6.1725,6.1769,6.3222,0.0,6.6512,6.754,6.8201,0.0,6.6733,6.5815,6.5521,6.3833,6.3246,6.3392,6.2768,6.2144,6.163,6.2034,6.097,5.9281,5.9905,0.0,0.0,0.0,0.0,0.0,0.0,0.0,0.0,0.0,0.0,0.0,0.0,0.0,0.0,0.0,0.0,0.0,0.0,0.0,0.0,0.0,0.0,0.0,0.0,0.0,0.0,0.0,0.0,0.0,0.0,0.0,0.0,0.0,0.0,0.0,0.0,0.0,0.0,0.0,7.1312,7.1312,7.1312,7.1312,7.1312,7.1312,7.1312,7.1312,7.1312,7.1312,7.1312,7.1312,7.1312,7.1312,7.1278,7.0534,7.0094,6.9823,6.8176,6.6469,6.4828,6.4398,6.322,6.1912,6.2391,6.257,6.251,6.1822,6.1583,6.1403,0.0,0.0,0.0,0.0,0.0,0.0,0.0,0.0,0.0,0.0,0.0,0.0,5.7997,5.7997,5.7997,5.7997,5.7997,5.7997,5.7997,5.7997,5.7997,5.7997,5.8913,0.0,5.9389,6.0697,6.1462,6.1769,6.2981,0.0,6.6512,6.8091,6.9669,7.1027,6.8641,6.7136,6.6329,0.0,0.0,0.0,6.2622,6.163,6.152,6.0786,0.0,0.0,0.0,0.0,0.0,0.0,0.0,0.0,0.0,0.0,0.0,0.0,0.0,0.0,0.0,0.0,0.0,0.0,0.0,0.0,0.0,0.0,0.0,0.0,0.0,0.0,0.0,0.0,0.0,0.0,0.0,0.0,0.0,0.0,0.0,0.0,0.0,0.0,0.0,0.0,0.0,0.0,7.1312,7.1312,7.1312,7.1312,7.1312,7.1312,7.1312,7.1312,7.1312,7.1312,7.1312,7.1312,7.1312,7.1312,7.1278,7.0534,6.9823,6.9026,6.7022,6.5306,6.3994,6.2692,6.1753,6.1164,6.1194,6.1224,6.1134,6.0446,6.0176,6.0086,0.0,0.0,0.0,0.0,0.0,0.0,0.0,0.0,0.0,0.0,0.0,0.0,0.0,5.7997,5.7997,5.7997,5.7997,5.7997,5.7997,5.7997,5.7997,5.7997,5.8913,5.9389,5.9389,6.0659,6.1457,6.1769,6.2425,6.3752,6.5742,6.6843,6.7944,6.8972,6.8641,6.8017,6.7136,6.5007,0.0,0.0,0.0,0.0,6.0786,0.0,0.0,0.0,0.0,0.0,0.0,0.0,0.0,0.0,0.0,0.0,0.0,0.0,0.0,0.0,0.0,0.0,0.0,0.0,0.0,0.0,0.0,0.0,0.0,0.0,0.0,0.0,0.0,0.0,0.0,0.0,0.0,0.0,0.0,0.0,0.0,0.0,0.0,0.0,0.0,0.0,0.0,0.0,0.0,7.1312,7.1312,7.1312,7.1312,7.1312,7.1312,7.1312,7.1312,7.1312,7.1312,7.1312,7.1312,7.1312,7.1278,7.006,6.935,6.8924,6.64,6.4621,6.3323,6.2371,6.1416,6.0505,6.0954,6.1104,6.1044,6.0326,6.0086,5.9997,0.0,0.0,0.0,0.0,0.0,0.0,0.0,0.0,0.0,0.0,0.0,0.0,0.0,0.0,5.8238,5.8238,5.8238,5.8186,5.7997,5.7997,5.7997,5.7997,5.8913,5.9389,5.9389,6.0548,6.1446,6.2057,6.2297,6.3547,6.5838,6.6408,6.7303,6.8336,6.8456,6.8201,0.0,0.0,0.0,6.3503,0.0,0.0,6.075,0.0,0.0,0.0,0.0,0.0,0.0,0.0,0.0,0.0,0.0,0.0,0.0,0.0,0.0,0.0,0.0,0.0,0.0,0.0,0.0,0.0,0.0,0.0,0.0,0.0,0.0,0.0,0.0,0.0,0.0,0.0,0.0,0.0,0.0,0.0,0.0,0.0,0.0,0.0,0.0,0.0,0.0,0.0,0.0,0.0,7.1312,7.1312,7.1312,7.1312,7.1312,7.1312,7.1312,7.1312,7.1312,7.1312,7.1312,7.1176,7.0906,7.0161,6.9208,6.7959,6.5923,6.428,6.294,6.1996,6.0927,5.9787,6.0266,6.0446,6.0386,5.9937,5.9757,5.9697,0.0,0.0,0.0,0.0,0.0,0.0,0.0,0.0,0.0,5.8051,0.0,0.0,0.0,0.0,0.0,5.871,5.8673,5.8503,5.8042,5.7997,5.7997,5.7997,5.8874,5.9389,5.9389,6.0311,6.1377,6.259,6.259,6.404,6.6706,6.7023,6.798,6.9372,6.8225,6.7667,6.754,0.0,6.5962,6.4971,0.0,6.0896,6.141,0.0,0.0,0.0,6.0419,6.0419,0.0,0.0,0.0,0.0,0.0,0.0,0.0,0.0,0.0,0.0,0.0,0.0,0.0,0.0,0.0,0.0,0.0,0.0,0.0,0.0,0.0,0.0,0.0,0.0,0.0,0.0,0.0,0.0,0.0,0.0,0.0,0.0,0.0,0.0,0.0,0.0,0.0,0.0,7.1312,7.1312,7.1312,7.1312,7.1312,7.1312,7.1312,7.1312,7.1312,7.1312,7.1312,7.1312,7.1312,7.0906,7.0195,7.0906,6.93,6.593,6.5417,6.435,6.2811,6.1496,6.0255,5.9099,5.9099,5.9099,5.9099,5.9129,5.9129,5.9099,0.0,0.0,0.0,0.0,0.0,0.0,6.0129,5.9492,5.9065,0.0,0.0,0.0,5.9533,5.9648,5.9483,5.9079,5.8518,5.8142,5.7997,5.7997,5.7997,5.7997,5.8549,5.9028,5.9389,5.9977,6.1029,6.259,6.259,6.3432,6.5087,6.572,6.6069,6.6156,6.6972,6.6531,6.5081,6.4861,0.0,0.0,6.1887,6.141,0.0,0.0,0.0,0.0,0.0,6.0786,0.0,0.0,6.0456,6.0676,0.0,0.0,0.0,0.0,0.0,0.0,5.7997,0.0,0.0,0.0,0.0,0.0,0.0,0.0,0.0,0.0,0.0,0.0,0.0,0.0,0.0,0.0,0.0,0.0,0.0,0.0,0.0,0.0,0.0,0.0,0.0,0.0,0.0,0.0,7.1312,7.1312,7.1312,7.1312,7.1312,7.1312,7.1312,7.1312,7.1312,7.1312,7.1312,7.1312,7.077,7.0398,7.0161,6.9248,6.7825,6.5956,6.4287,6.2837,6.1496,6.015,5.9392,5.9099,5.9099,5.9099,5.9159,5.9638,5.9518,5.9189,0.0,0.0,0.0,0.0,0.0,6.3105,6.1382,6.0912,6.0365,0.0,0.0,0.0,6.0352,6.049,6.0341,5.9817,5.9577,5.9169,5.8628,5.8751,5.8745,5.8591,5.8673,5.8913,5.9389,5.9855,6.0904,6.262,6.2806,6.3618,6.5041,6.5084,6.4932,6.4683,6.5162,6.4697,0.0,0.0,0.0,0.0,6.1924,0.0,0.0,6.1227,6.1117,0.0,0.0,0.0,6.2438,6.13,6.0786,0.0,0.0,0.0,0.0,0.0,0.0,0.0,0.0,0.0,0.0,0.0,0.0,0.0,6.6329,6.6537,0.0,0.0,0.0,0.0,0.0,0.0,0.0,0.0,0.0,0.0,0.0,0.0,0.0,0.0,0.0,0.0,0.0,7.1312,7.1312,7.1312,7.1312,7.1312,7.1312,7.1007,7.0973,7.1312,7.1007,7.0838,7.0838,7.0838,7.0703,7.0398,6.9958,6.9553,6.9214,6.8047,6.6576,6.4663,6.329,6.1707,6.015,5.9392,5.9099,5.9099,5.9099,5.9099,5.9159,5.9548,5.9608,5.9578,0.0,0.0,6.6513,6.5013,6.5397,6.5217,6.3265,6.2871,6.2178,0.0,6.0326,6.0547,6.1214,6.1422,6.1343,6.0898,6.1235,6.0881,5.9613,5.989,5.9851,5.9321,5.8913,5.8913,5.9319,5.976,6.0776,6.2498,6.2962,6.4078,6.5743,6.4866,6.4444,6.437,6.3317,0.0,0.0,0.0,0.0,6.2768,6.2034,6.2144,0.0,0.0,6.2181,0.0,6.2805,6.3246,6.3576,6.2108,6.0603,0.0,0.0,0.0,0.0,0.0,5.807,0.0,0.0,0.0,0.0,0.0,0.0,0.0,6.7357,6.6733,6.6145,0.0,0.0,0.0,0.0,0.0,0.0,0.0,0.0,0.0,0.0,0.0,0.0,0.0,0.0,0.0,7.1312,7.1312,7.1312,7.1312,7.1312,7.1312,7.1312,7.0601,7.05,7.1176,7.0466,7.006,7.006,7.006,6.9755,6.9113,6.9011,6.8605,6.7929,6.7312,6.5624,6.294,6.2487,6.1046,5.9099,5.9099,5.9099,5.9099,5.9099,5.9099,5.9129,5.9189,5.9578,6.0086,0.0,0.0,6.6013,6.5705,6.5782,6.5756,6.532,6.4346,6.3504,6.3155,6.2778,6.2561,6.2711,6.2708,6.2705,6.2633,6.21,6.1417,6.0519,6.0523,6.0041,5.8872,5.8716,5.8716,5.8835,5.8951,5.9845,6.162,6.2366,6.3483,6.4859,6.4955,6.4765,6.437,6.3723,0.0,0.0,0.0,0.0,6.2805,6.2658,0.0,6.2805,6.2658,6.2658,6.2805,6.2805,6.2511,6.2034,0.0,6.097,6.0272,0.0,0.0,0.0,0.0,0.0,0.0,0.0,0.0,0.0,0.0,0.0,0.0,6.1777,6.13,6.1447,0.0,0.0,0.0,0.0,0.0,0.0,0.0,0.0,0.0,0.0,0.0,0.0,0.0,0.0,0.0,7.1312,7.1312,7.1312,7.1312,7.1312,7.1312,7.1312,7.0601,7.0263,7.0398,6.9688,6.9316,6.9316,6.9316,6.9248,6.9079,6.8436,6.8064,6.7895,6.7165,6.5468,6.3004,6.2841,6.1379,5.9099,5.9099,5.9099,5.9099,5.9099,5.9099,5.9159,5.9697,5.9967,6.0176,0.0,6.6205,6.6513,6.6513,6.7205,6.7667,6.7205,6.671,6.6084,6.5276,6.4351,6.3765,6.3765,6.3568,6.3441,6.3441,6.3328,6.2727,6.1467,6.1552,6.1083,5.9798,5.9065,5.8796,5.9028,5.9065,5.9698,6.1045,6.1936,6.29,6.3974,6.4288,6.4095,6.352,6.36,6.323,0.0,0.0,6.3466,6.3429,6.2989,0.0,6.3392,6.2989,6.3062,6.3392,6.2989,6.2548,6.2254,6.2695,6.2291,0.0,0.0,6.075,5.9795,0.0,5.9501,5.9208,0.0,0.0,0.0,5.9722,0.0,0.0,0.0,6.0382,6.0639,6.3503,0.0,0.0,0.0,0.0,0.0,0.0,0.0,0.0,0.0,0.0,0.0,0.0,0.0,0.0,7.1312,7.1312,7.1312,7.1312,7.1312,7.1142,7.077,7.006,6.9654,6.9654,6.891,6.8504,6.8504,6.8504,6.8335,6.7963,6.7557,6.7354,6.7354,6.6316,6.5171,6.3826,6.2585,6.1224,5.997,5.9392,5.9099,5.9099,5.9099,5.9099,5.9189,5.9847,6.0296,6.0685,0.0,6.6397,6.6898,6.7051,6.8398,6.9283,6.8744,6.8761,6.8203,6.6514,6.5285,6.4552,6.4699,6.4177,6.3986,6.442,6.4396,6.3935,6.2897,6.264,6.2049,6.0954,5.9673,5.9102,5.9389,5.9389,5.9798,6.0581,6.1496,6.2348,6.3089,6.3408,6.3276,6.2826,6.3006,6.2879,0.0,0.0,0.0,6.4016,0.0,6.3466,6.4016,6.3319,6.3392,6.3723,6.2879,6.2695,6.2879,6.3429,0.0,6.2732,6.2218,6.1851,0.0,0.0,0.0,0.0,0.0,0.0,0.0,0.0,0.0,6.0162,0.0,0.0,0.0,6.2585,0.0,0.0,0.0,0.0,0.0,0.0,0.0,0.0,0.0,0.0,0.0,0.0,0.0,0.0,0.0,7.0973,7.1007,7.1312,7.1041,7.0737,7.0432,6.9586,6.9113,6.9113,6.8199,6.7692,6.7692,6.7692,6.732,6.6609,6.6609,6.6609,6.6576,6.5534,6.5038,6.4778,6.2358,6.1193,6.0918,5.9576,5.9099,5.9099,5.9099,5.9099,5.9189,5.9847,6.0505,6.1224,6.5897,6.5974,6.6244,6.6974,6.7898,6.8783,6.9436,6.8948,6.7883,6.6192,6.5397,6.523,0.0,0.0,0.0,0.0,0.0,0.0,6.5359,0.0,6.1902,6.1335,6.0425,5.9792,5.9389,5.9389,5.9668,6.0159,6.1048,6.1732,6.2243,6.2605,6.3047,6.3588,6.2067,0.0,0.0,0.0,6.3392,0.0,6.398,6.4016,0.0,6.398,6.3539,6.2842,6.2034,6.2181,6.2732,0.0,6.2291,6.2915,0.0,6.2805,0.0,0.0,0.0,0.0,0.0,0.0,0.0,0.0,6.1924,0.0,0.0,0.0,6.0089,5.8914,0.0,0.0,0.0,0.0,0.0,0.0,0.0,0.0,0.0,0.0,0.0,0.0,0.0,0.0,0.0,6.9722,6.9891,7.121,7.0094,6.9891,7.1109,6.9857,6.9113,6.9113,6.7692,6.6948,6.6948,6.6948,6.6542,6.5797,6.5797,6.5797,6.5831,6.5714,6.5306,6.4778,6.3355,6.2094,6.0918,5.9576,5.9099,5.9099,5.9099,5.9099,5.9189,5.9847,6.0505,6.1224,6.5243,6.5936,0.0,6.6436,6.7513,6.8706,6.959,6.9783,6.9278,6.7782,6.7697,6.785,0.0,0.0,0.0,0.0,0.0,0.0,0.0,0.0,6.3232,6.254,6.1157,6.0481,6.0545,5.9791,5.9625,6.0103,6.0748,6.116,6.1358,6.2017,6.2475,6.2793,6.244,0.0,6.3378,0.0,0.0,0.0,0.0,0.0,0.0,6.4273,6.387,6.3503,6.3172,6.3282,6.3429,0.0,6.3503,0.0,0.0,0.0,0.0,0.0,0.0,0.0,0.0,0.0,0.0,0.0,0.0,0.0,0.0,0.0,5.9391,0.0,0.0,0.0,0.0,0.0,0.0,0.0,6.1806,0.0,0.0,0.0,0.0,0.0,0.0,0.0,0.0,0.0,0.0,0.0,6.8741,6.8504,6.8707,6.8504,6.7996,6.7151,6.6914,6.6406,6.5527,6.5967,6.5797,6.5053,6.5053,6.529,6.5696,6.5696,6.5817,6.5855,6.3858,6.2682,6.1995,5.997,5.9099,5.9129,5.9518,5.9668,5.9757,6.0446,6.1104,6.1792,6.4705,0.0,0.0,0.0,6.6744,6.8013,6.8859,6.9475,6.9509,0.0,0.0,0.0,6.9937,6.9821,0.0,0.0,0.0,6.7628,0.0,0.0,6.4128,0.0,0.0,0.0,0.0,6.0449,6.0114,6.0103,6.0597,6.0781,6.0819,6.1435,6.1973,6.2411,0.0,6.3003,6.3688,0.0,0.0,6.4709,6.5977,6.6145,6.5558,6.4751,6.4273,6.409,6.409,6.3943,6.3686,6.3282,6.4494,0.0,6.4053,0.0,0.0,0.0,0.0,0.0,6.2989,0.0,0.0,0.0,0.0,0.0,0.0,0.0,0.0,0.0,0.0,0.0,0.0,0.0,0.0,0.0,0.0,6.1118,0.0,0.0,0.0,0.0,0.0,0.0,0.0,0.0,0.0,0.0,0.0,6.6812,6.7117,6.7421,6.7184,6.6305,6.6643,6.6203,6.4918,6.5425,6.5222,6.4309,6.4309,6.4681,6.5392,6.5392,6.5899,6.6728,6.4505,6.3355,6.2811,6.0567,5.9482,5.9428,5.9907,6.0296,6.0685,6.1194,6.1672,6.2181,6.4628,6.4628,0.0,0.0,0.0,6.6244,6.7051,6.7205,0.0,0.0,0.0,0.0,0.0,0.0,0.0,0.0,0.0,6.8359,6.8282,0.0,6.3858,0.0,0.0,0.0,0.0,0.0,6.1377,6.0103,6.0597,6.0781,6.0781,6.0819,6.1704,6.3218,6.1993,6.2811,6.5035,6.4878,6.5262,6.5998,6.6367,6.6476,6.6366,0.0,6.4787,6.409,6.409,0.0,0.0,6.3759,6.464,0.0,0.0,0.0,0.0,0.0,0.0,0.0,0.0,0.0,0.0,6.3025,0.0,0.0,0.0,0.0,6.2034,0.0,0.0,0.0,0.0,0.0,0.0,6.0382,0.0,0.0,0.0,0.0,0.0,0.0,0.0,0.0,0.0,0.0,0.0,0.0,0.0,0.0,6.7692,6.7218,6.7151,6.7793,6.7184,6.644,6.5662,6.5662,6.4952,6.3565,6.3565,6.3937,6.4647,6.4647,6.5425,6.6728,6.5382,6.4137,6.2908,6.1496,6.0621,6.0057,6.0086,6.0864,6.2032,6.2061,6.2091,6.2181,0.0,0.0,0.0,0.0,0.0,0.0,0.0,6.7975,0.0,0.0,0.0,0.0,0.0,0.0,7.4822,0.0,0.0,7.186,7.0167,6.8378,0.0,0.0,0.0,6.3428,0.0,0.0,0.0,6.0533,6.0734,6.0781,6.0781,6.0781,6.1396,6.2512,0.0,6.2963,0.0,0.0,0.0,0.0,0.0,6.6806,6.7247,0.0,0.0,6.5705,6.5705,6.5485,0.0,6.4971,6.5448,6.5999,6.5485,6.5301,6.5154,6.4347,6.387,0.0,0.0,0.0,6.4567,6.3172,0.0,0.0,0.0,0.0,0.0,0.0,0.0,0.0,0.0,0.0,6.0419,6.0419,5.9942,0.0,0.0,0.0,0.0,0.0,0.0,0.0,0.0,0.0,0.0,0.0,0.0,0.0,0.0,6.4512,6.4749,6.4986,6.5696,6.573,6.4986,6.5459,6.4952,6.3531,6.4005,6.4377,6.4613,6.5121,6.5865,6.6728,6.5437,6.4688,6.4137,6.2399,6.1545,6.1355,6.1378,6.1702,6.2091,6.2091,6.2361,6.278,6.4974,0.0,0.0,0.0,0.0,0.0,0.0,0.0,0.0,0.0,7.3245,0.0,7.7823,0.0,7.763,0.0,7.6553,7.4707,7.1552,7.0784,0.0,6.6782,6.6139,0.0,0.0,0.0,0.0,0.0,0.0,6.0929,6.0781,6.0781,6.1281,6.2127,0.0,0.0,0.0,0.0,6.6281,0.0,0.0,6.7384,0.0,0.0,6.7357,6.688,0.0,6.6329,6.6035,6.5815,6.6072,6.6402,6.5888,6.5742,6.5558,6.4751,6.453,6.4347,6.3503,6.4053,0.0,6.3172,6.3466,0.0,6.097,0.0,0.0,0.0,0.0,0.0,0.0,0.0,0.0,6.086,6.0162,5.9428,0.0,5.7911,0.0,0.0,0.0,0.0,0.0,0.0,0.0,0.0,0.0,0.0,0.0,0.0,6.3226,6.3497,6.4681,6.5087,6.4613,6.5053,6.4816,6.3903,6.4377,6.4749,6.5019,6.5459,6.6237,6.71,6.6042,6.5213,6.4528,6.3246,6.2301,6.1753,6.198,6.2241,6.245,6.245,6.272,6.3079,0.0,0.0,0.0,0.0,6.6013,0.0,0.0,0.0,7.1552,0.0,7.4361,7.6169,7.9515,7.9131,7.8938,7.9785,7.9054,0.0,7.2783,7.3178,0.0,0.0,6.7653,6.671,6.2917,6.3497,0.0,0.0,0.0,0.0,6.0834,6.0819,6.1243,6.205,6.2935,0.0,6.468,6.6667,6.7583,6.7673,6.8216,6.8161,6.7777,6.7687,6.7724,6.765,6.6843,6.6072,6.5558,6.6292,6.6512,6.6512,6.6549,6.6512,6.6292,6.5595,6.5338,6.5118,6.431,6.4127,6.3943,6.3025,0.0,0.0,0.0,0.0,6.464,0.0,0.0,0.0,0.0,0.0,0.0,6.1667,6.086,5.9795,0.0,0.0,0.0,0.0,0.0,0.0,0.0,0.0,0.0,0.0,0.0,0.0,0.0,0.0,6.2584,6.3396,6.414,6.458,6.4647,6.4647,6.4647,6.4647,6.4681,6.5053,6.5696,6.573,6.6542,6.7861,6.7066,6.5846,6.4255,6.4026,6.2851,6.1336,6.1882,6.254,6.3079,6.3079,6.3079,6.3079,6.7321,6.7282,6.7436,0.0,6.6205,6.609,0.0,0.0,0.0,0.0,7.663,7.8361,8.0516,8.0554,8.0516,8.0746,7.9977,0.0,0.0,0.0,0.0,7.0992,6.9657,6.8142,6.6255,6.529,0.0,6.2849,0.0,0.0,6.1172,6.0929,6.0935,6.1204,0.0,0.0,6.3757,6.5788,6.7113,6.7883,6.7628,6.8182,0.0,0.0,6.8054,6.8495,6.7687,6.7247,6.71,6.732,6.699,6.6586,6.7173,6.6549,6.5705,6.6072,6.5778,6.5118,6.431,6.453,6.464,6.3172,6.3466,6.3759,0.0,0.0,0.0,0.0,0.0,0.0,0.0,0.0,0.0,0.0,6.0052,0.0,0.0,0.0,0.0,0.0,0.0,0.0,0.0,0.0,0.0,0.0,0.0,0.0,0.0,0.0,0.0,6.1839,6.3125,6.4309,6.5392,6.5425,6.5425,6.5425,6.5967,6.6068,6.5696,6.6271,6.7015,6.7809,6.6668,6.6212,6.6122,6.4665,6.3685,6.3207,6.2966,6.2929,6.3079,6.3079,6.3079,6.3079,6.8475,0.0,0.0,6.9436,0.0,0.0,7.0514,0.0,0.0,7.5668,7.7438,0.0,7.9862,8.0631,8.1093,8.1093,8.0669,0.0,0.0,0.0,0.0,7.3298,7.156,6.974,6.7768,6.6135,0.0,6.2909,0.0,0.0,6.079,6.0789,6.0781,6.0858,0.0,6.332,0.0,6.5695,6.7311,6.8337,6.803,0.0,0.0,6.8445,6.8343,6.8661,6.7941,6.7687,6.7687,6.7687,6.7393,6.71,6.754,6.7063,6.6439,6.688,6.6439,6.5668,6.4824,6.4971,6.5007,6.3686,6.4273,6.4824,6.3649,6.464,6.5595,0.0,0.0,0.0,0.0,0.0,0.0,0.0,0.0,0.0,0.0,0.0,0.0,0.0,0.0,0.0,0.0,0.0,0.0,0.0,0.0,0.0,0.0,0.0,0.0,6.0757,6.2854,6.4546,6.5662,6.6,6.617,6.6203,6.6609,6.6745,6.6677,6.7083,6.7692,6.8402,6.7669,6.6898,6.6128,6.5243,6.4195,6.3152,6.3123,6.3079,6.3079,6.3079,6.3079,6.3079,0.0,0.0,0.0,0.0,0.0,0.0,0.0,7.3707,0.0,7.6322,0.0,7.9054,7.8861,8.0169,8.1093,8.1093,0.0,8.0477,7.8938,7.9338,7.807,7.4446,7.3341,7.1447,6.8429,6.6588,0.0,0.0,0.0,6.1614,6.0197,6.061,6.0781,6.0858,0.0,0.0,0.0,6.5782,6.7477,6.8559,6.8608,6.8975,6.9353,6.875,6.8511,6.8416,6.7878,6.7687,6.7687,6.7687,6.7687,6.7687,6.7687,6.7687,6.7687,6.7687,6.7136,6.6329,6.5521,6.5301,6.5118,6.431,6.5301,6.6109,6.4714,6.5558,6.6439,6.5632,6.4897,6.4751,0.0,0.0,0.0,0.0,0.0,0.0,0.0,0.0,0.0,0.0,0.0,0.0,0.0,0.0,0.0,0.0,0.0,0.0,0.0,0.0,0.0,6.008,6.2922,6.485,6.5662,0.0,6.6779,6.6948,6.6948,6.7286,6.7895,6.7996,6.8504,6.9248,6.9039,6.7586,6.5436,6.5842,6.4457,6.2271,6.2839,6.3079,6.3079,6.3079,6.3079,6.3079,0.0,0.0,0.0,0.0,0.0,7.5592,7.6284,7.7707,7.8823,7.9092,8.1208,8.217,8.0785,8.09,8.1093,8.1093,8.1093,0.0,0.0,0.0,0.0,7.636,7.4804,7.2881,7.0443,6.7494,6.5484,0.0,6.2071,6.078,6.0513,6.0709,6.0781,6.0819,0.0,0.0,6.3397,6.4551,0.0,6.7445,6.7706,6.8655,6.9847,6.8847,6.8511,6.8416,6.7878,6.7687,6.7687,6.7687,6.7687,6.7687,6.7687,6.7687,6.7687,6.7687,6.7136,6.6329,6.5521,6.5301,6.5118,6.431,6.5301,6.6439,6.6145,6.6806,6.7247,6.6476,6.6182,6.5521,6.3796,0.0,0.0,0.0,0.0,0.0,0.0,0.0,0.0,0.0,0.0,0.0,0.0,0.0,0.0,0.0,0.0,0.0,0.0,0.0,0.0,0.0,6.2448,0.0,0.0,0.0,6.6508,6.7692,6.7692,6.776,6.7929,6.8605,6.9282,6.9904,6.8777,6.7719,6.671,6.5721,6.4328,6.2929,6.3019,6.3079,6.3079,6.3079,6.3079,6.3079,0.0,0.0,0.0,0.0,0.0,0.0,0.0,8.1362,0.0,7.94,8.0169,8.0477,7.9246,8.0323,8.1093,8.1093,8.1093,8.1093,8.1093,8.0438,7.9205,7.7334,7.5792,0.0,7.1007,6.8138,6.5766,6.3807,6.2335,6.1069,5.9993,6.0529,6.0781,6.0819,0.0,6.2781,0.0,0.0,0.0,6.7795,6.7975,6.9,7.0432,6.9626,6.9148,6.8803,6.8308,6.793,6.7687,6.7687,6.7687,6.7687,6.7687,6.7687,6.7687,6.7687,6.7136,6.6402,6.6035,6.5925,6.5742,6.4934,6.5632,6.6402,6.5962,6.6182,6.6366,6.5962,6.5888,6.5411,6.3759,6.2144,0.0,0.0,0.0,0.0,0.0,0.0,0.0,0.0,0.0,0.0,0.0,0.0,0.0,0.0,0.0,0.0,0.0,0.0,0.0,0.0,0.0,0.0,0.0,0.0,0.0,6.7354,6.7354,6.776,6.8538,6.891,6.9485,7.0195,6.9903,6.9008,6.7588,6.5784,6.432,6.3079,6.3079,6.3079,6.3079,6.3079,6.3079,6.3079,0.0,7.6746,0.0,0.0,7.9092,0.0,8.2016,8.3785,8.3708,8.0285,7.9862,7.9554,7.8707,8.0246,8.1362,8.1362,8.1208,8.1093,8.1093,8.1093,8.0054,7.7798,7.6528,7.4297,7.1093,6.8405,6.5656,0.0,6.2258,6.1141,5.9424,6.0283,6.0671,0.0,0.0,0.0,0.0,0.0,6.5974,6.8167,6.8552,6.959,7.0871,7.0298,6.9847,6.9393,6.875,6.821,6.7863,6.7741,6.7687,6.7687,6.7687,6.7687,6.7687,6.7687,6.7136,6.6512,6.6512,6.6512,6.6329,6.5521,6.6035,6.6512,6.5521,6.5448,6.5485,6.5118,6.5044,6.4787,6.398,6.3025,0.0,0.0,0.0,0.0,0.0,0.0,0.0,0.0,0.0,0.0,0.0,0.0,0.0,0.0,0.0,5.4431,5.4566,5.6528,5.8254,0.0,0.0,6.4715,6.5459,0.0,6.7455,6.7049,6.7218,6.7861,6.8876,6.935,6.9789,7.0229,7.0973,7.0055,6.772,6.5933,6.432,6.3079,6.3079,6.3079,6.3079,6.3079,6.3079,6.3079,0.0,0.0,0.0,0.0,0.0,0.0,0.0,8.3785,8.4747,8.4362,8.4286,8.3978,8.3093,8.2516,8.217,8.217,8.1516,8.1093,8.1093,8.1093,8.0054,7.7798,7.7017,7.4899,7.1093,6.807,6.5316,0.0,0.0,5.989,0.0,5.9916,6.0391,0.0,0.0,0.0,0.0,6.3974,6.5628,6.7359,6.8936,7.0129,7.0871,7.0298,7.0061,6.9883,6.8847,6.8464,6.832,6.7863,6.7687,6.7687,6.7687,6.7687,6.7687,6.7687,6.7136,6.6512,6.6512,6.6512,6.6329,6.5521,6.6439,6.7173,6.5668,6.5852,6.5962,6.4494,6.42,6.3943,6.3099,6.4053,6.4494,0.0,0.0,0.0,0.0,0.0,0.0,0.0,0.0,0.0,0.0,5.6611,0.0,0.0,5.4014,5.389,5.4566,5.6055,5.7273,5.8084,0.0,6.3971,6.4681,6.617,6.7218,6.7793,6.8538,6.8571,6.8098,7.0161,7.077,7.0229,7.0973,6.9822,6.7202,6.5696,6.432,6.3079,6.3079,6.3079,6.3079,6.3079,6.3079,6.3079,0.0,0.0,0.0,0.0,0.0,0.0,0.0,8.517,8.5632,8.5632,8.4747,8.3785,8.2901,8.2516,8.2093,8.1631,8.1285,8.1093,8.1093,8.1093,8.0453,7.9023,7.7602,7.5607,7.3041,6.9679,6.6733,0.0,0.0,0.0,0.0,0.0,0.0,0.0,0.0,6.2627,6.4397,6.5089,6.6667,6.8706,6.9436,7.0167,7.0871,7.0652,7.0362,7.0026,6.9272,6.8795,6.8416,6.7878,6.7687,6.7687,6.7687,6.7687,6.7687,6.7687,6.7467,6.721,6.721,6.721,6.6916,6.5632,6.6145,6.6402,6.431,6.4457,6.4714,6.3576,6.4127,6.5007,6.5632,6.5521,6.5411,0.0,0.0,0.0,0.0,0.0,0.0,0.0,0.0,0.0,0.0,0.0,0.0,0.0,0.0,5.3822,5.4566,5.5141,5.6224,5.7848,0.0,6.2753,6.3937,6.5865,6.6948,6.7252,6.7996,6.847,6.8673,7.0026,7.0737,7.0872,7.1176,6.976,6.7164,6.6543,6.5032,6.3079,6.3079,6.3079,6.3079,6.3079,6.3079,6.3079,8.3939,0.0,8.2862,0.0,8.4247,8.4016,8.5824,8.6094,8.6094,8.6094,8.5055,8.4016,8.317,8.2593,8.2054,8.1516,8.1246,8.1093,8.1093,8.1093,8.0592,7.9477,7.772,0.0,7.3959,7.0597,6.7834,6.5668,6.3501,0.0,0.0,0.0,0.0,0.0,6.2435,6.3589,6.5551,6.6051,6.7436,6.936,6.986,7.0398,7.0898,7.0898,7.0652,7.0266,6.955,6.9064,6.8614,6.793,6.7687,6.7687,6.7687,6.7687,6.7687,6.7687,6.7687,6.7687,6.7687,6.7687,6.7283,6.5705,6.5888,6.5852,6.3392,6.3649,6.42,6.3356,6.431,6.5668,6.6769,6.6439,6.6292,6.7173,0.0,0.0,0.0,0.0,0.0,0.0,6.0493,5.8988,5.84,5.7261,0.0,0.0,0.0,0.0,5.4566,5.4803,0.0,0.0,0.0,0.0,0.0,6.5696,6.6914,6.7151,6.7895,6.8538,6.9113,6.9857,7.0601,7.1312,7.0882,6.9346,6.7164,6.6751,6.5219,6.3079,6.3079,6.3079,6.3079,6.3079,6.3079,6.3079,8.4709,8.4863,8.5132,8.594,8.6055,8.6055,8.6094,8.6094,8.6094,8.6094,8.6094,8.5747,8.4978,8.3324,8.2285,8.2285,8.1554,8.1093,8.1093,8.1093,8.0323,0.0,0.0,7.562,7.3048,7.03,6.8128,6.6476,0.0,0.0,6.1097,0.0,6.2087,6.3281,6.3281,6.3782,6.4705,6.6359,6.759,6.8552,7.0206,7.0898,7.0898,7.0898,7.0898,7.0748,6.9664,6.9313,6.9148,6.8047,6.7687,6.7687,6.7687,6.7687,6.7687,6.7687,6.7687,6.7687,6.7687,6.7687,6.7283,6.5705,6.5888,6.5852,6.3392,6.409,6.5081,6.4237,6.4714,6.5301,6.5338,6.6623,6.7393,6.6623,0.0,0.0,0.0,0.0,0.0,0.0,6.119,5.9208,5.9208,0.0,0.0,0.0,0.0,0.0,0.0,0.0,0.0,5.6799,6.0419,0.0,6.3497,6.5696,6.7184,6.7895,6.8707,6.9079,6.9113,6.9857,7.0601,7.1222,6.9822,6.8503,6.7061,6.5728,6.432,6.3079,6.3079,6.3079,6.3079,6.3079,6.3079,6.3079,8.644,8.6132,8.5786,8.6055,8.6094,8.6094,8.6094,8.6094,8.6094,8.6094,8.5093,8.4286,8.4055,8.3516,8.2708,0.0,8.1246,8.1093,0.0,8.1093,8.0862,8.0285,7.8064,7.6413,7.562,7.2266,7.0036,6.8935,0.0,0.0,0.0,6.3262,6.3787,6.3676,6.4641,6.5513,6.6359,6.7513,6.8475,6.9398,7.0475,7.0898,7.0898,7.0898,7.0898,7.0748,6.9701,6.9313,6.919,6.8511,6.8259,6.8308,6.866,6.8308,6.7757,6.8148,6.7982,6.7687,6.7687,6.7687,6.743,6.6366,6.6733,6.6806,6.4934,6.4934,6.5375,6.5668,6.5925,6.6292,6.6843,6.7797,6.8238,6.743,6.7981,0.0,0.0,0.0,0.0,0.0,5.9685,5.84,0.0,5.7681,0.0,0.0,0.0,0.0,0.0,0.0,0.0,0.0,6.0419,0.0,6.3497,6.5696,6.7184,6.7895,6.8707,6.962,7.0635,7.0838,7.1075,7.1222,6.9822,6.8405,6.7061,6.562,6.432,6.3079,6.3079,6.3079,6.3079,6.3079,6.3079,6.3079,8.7209,8.6709,8.6094,8.6094,8.6094,8.6094,8.6094,8.6094,8.6094,8.6094,8.5209,8.4401,8.4132,8.3785,0.0,8.1246,8.1093,8.1093,8.1093,8.1093,8.0939,8.0631,7.8676,7.7286,7.6638,0.0,0.0,7.0914,6.7957,6.568,6.4145,6.486,6.5242,6.5252,6.6354,6.7128,6.7667,6.8513,6.9206,6.9783,7.0591,7.1091,7.1398,7.1398,7.1398,7.1276,7.0378,6.9891,6.9511,6.8978,6.8795,6.8891,6.9433,6.9021,6.8357,6.8464,6.8259,6.7982,6.7757,6.7687,6.7504,6.6696,6.688,6.699,6.5999,6.5521,6.5521,6.6329,6.6512,6.6659,6.7136,6.8164,6.8752,6.8238,6.8568,6.8164,6.6072,0.0,0.0,0.0,0.0,0.0,0.0,5.8425,5.8274,0.0,0.0,0.0,0.0,0.0,0.0,5.8017,6.1129,0.0,6.4309,6.5967,6.732,6.8368,6.9417,7.0432,7.1312,7.1312,7.1312,7.1222,6.9822,6.8405,6.7061,6.562,6.432,6.3079,6.3079,6.3079,6.3079,6.3079,6.3079,6.3079,8.7325,8.6786,8.617,0.0,8.6094,0.0,8.6094,8.6094,8.6094,8.6094,8.6055,8.5747,8.4978,8.4055,8.2862,8.1323,0.0,0.0,0.0,8.1093,8.0746,7.9939,7.9274,7.8179,7.6616,7.4606,7.3119,7.2199,6.8609,6.6971,6.7226,6.6312,6.6483,6.7583,6.8139,6.841,6.8475,6.9321,6.9706,6.9783,7.0629,7.1475,7.2206,7.2283,7.2283,7.2188,7.1598,7.0896,7.0179,6.9588,6.9391,6.9548,6.9992,6.9811,6.9313,6.8795,6.8567,6.8416,6.7878,6.7794,6.7557,6.6769,6.6586,6.6586,6.6586,6.5999,6.5705,6.6439,6.6623,6.6659,6.6659,6.7981,6.9045,6.8935,6.8898,6.8311,6.6586,0.0,0.0,0.0,0.0,0.0,0.0,5.9365,5.9299,0.0,0.0,0.0,0.0,0.0,5.8795,6.0148,6.2448,6.4309,6.5662,6.644,6.759,6.9113,7.0601,7.1312,7.1312,7.1312,7.1312,7.1222,6.9822,6.8503,6.7266,6.5835,6.4401,6.3279,6.3279,6.3194,6.3079,6.3079,6.3079,6.3079,0.0,0.0,8.6863,8.6209,8.6094,8.6094,8.6094,8.6094,8.6094,8.6094,8.5555,8.5132,8.4939,8.3516,8.2439,8.2054,8.1439,8.1093,8.1093,8.1093,8.1016,8.0785,7.958,7.8713,7.8332,7.6133,7.4076,7.2199,7.086,6.9247,6.762,6.8342,6.8114,6.7051,6.8193,6.8578,6.8475,6.9321,6.9706,6.9821,7.1283,7.2014,7.2283,7.2937,7.3206,7.3034,7.1827,7.1658,7.1773,7.0411,7.034,7.0903,7.0754,7.0622,7.0432,6.9883,6.9433,6.8978,6.8464,6.8308,6.8173,6.7589,6.7393,6.7393,6.7393,6.7247,6.7173,6.7357,6.7907,6.8348,6.8348,6.9669,7.033,6.9119,6.8898,6.7907,6.5044,6.3613,0.0,0.0,6.0786,6.1043,6.1043,6.1045,6.0769,0.0,0.0,0.0,0.0,6.0385,6.1231,6.1028,6.37,6.5358,6.5696,6.644,6.759,6.9113,7.0601,7.1312,7.1312,7.1312,7.1312,7.1222,6.9822,6.8991,6.8601,6.7266,6.5835,6.4623,6.4623,6.3984,6.3079,6.3079,6.3079,6.3079,8.8632,8.7979,8.7248,8.6786,8.6363,8.6247,8.6632,8.6363,8.6094,8.6094,8.5709,8.544,8.544,8.4286,8.3478,8.3478,8.2016,8.1093,8.1093,8.1093,8.1093,8.1093,8.0328,7.9727,7.9344,7.7493,7.5236,7.2721,7.2066,7.088,6.9339,6.9595,6.9145,6.8147,6.9017,6.9311,6.9221,6.9931,7.0244,7.036,7.1668,7.2437,7.2899,7.3745,7.4053,7.3947,7.32,7.2952,7.2876,7.1957,7.1688,7.1751,7.1573,7.1206,7.0832,7.0524,7.0095,6.955,6.9021,6.8705,6.8368,6.7863,6.7878,6.8107,6.8181,6.8238,6.8348,6.8715,6.9155,6.9449,6.9449,7.0477,7.077,6.9155,6.8605,6.721,6.3943,6.2768,0.0,6.0566,6.1447,6.2328,6.2695,6.3021,6.27,6.1521,6.1983,0.0,6.063,6.2685,6.3429,6.2347,6.4512,6.5865,6.6203,6.732,6.8267,6.9113,7.0601,7.1312,7.1312,7.1312,7.1312,7.1222,7.0482,6.9822,6.9088,6.8405,6.7266,6.6048,6.5328,6.4623,6.3902,6.3279,6.3079,6.3079,8.8979,8.8209,8.7555,8.7401,8.6671,8.6363,8.7094,8.6594,8.6094,8.6094,8.6094,8.6094,8.6094,8.5401,8.4901,8.4901,8.2785,8.14,8.1285,8.117,8.1093,8.1093,8.1093,8.0746,8.0015,7.8588,7.6569,7.3838,7.2969,7.2155,7.1416,7.0383,6.9867,6.9714,7.0042,7.0141,7.0129,7.0652,7.0975,7.1168,7.2052,7.2899,7.3783,7.4591,7.4899,7.4899,7.4745,7.4361,7.3822,7.3437,7.2899,7.236,7.2091,7.1514,7.0898,7.0898,7.0669,7.0247,6.9626,6.9021,6.8548,6.8277,6.8383,6.858,6.8987,6.9009,6.9119,6.9926,7.0183,7.0293,7.0293,7.0844,7.077,6.9155,6.8128,6.6366,6.3099,0.0,6.163,6.0676,6.2218,6.3649,6.4383,6.4875,6.4495,6.3151,6.3904,6.3899,6.2662,6.4444,6.5019,6.3869,6.5155,6.617,6.6812,6.8335,6.9113,6.9113,7.0601,7.1312,7.1312,7.1312,7.1312,7.1312,7.1312,7.0574,6.9537,6.9537,6.8699,6.7368,6.5941,6.5328,6.4923,6.3592,6.3079,6.3079,9.0098,8.921,8.8248,8.7517,8.6671,8.617,8.6286,8.6209,8.6094,8.6094,8.6094,8.6094,8.6094,8.5401,8.4901,8.4901,8.3862,8.2901,8.217,8.1477,8.1093,8.1093,8.1093,8.1054,8.09,7.9466,7.7799,7.5931,7.4798,7.3452,7.2049,7.134,7.0597,6.9703,7.0239,7.0309,7.0129,7.0652,7.1321,7.2052,7.2937,7.3783,7.463,7.5476,7.5784,7.5707,7.4976,7.5091,7.5284,7.3129,7.2783,7.3053,7.1552,7.1014,7.0898,7.0898,7.1371,7.1573,7.0319,6.9588,6.9402,7.0273,6.9506,6.8729,6.9687,6.9376,6.9119,6.9926,7.066,7.1138,7.1138,7.1248,7.077,6.9155,6.765,6.5521,6.2254,0.0,6.3135,6.1594,6.409,6.5962,6.6109,6.5529,6.4961,6.4675,6.352,6.2965,6.334,6.4241,6.4952,6.5358,6.617,6.6677,6.6812,6.8335,6.9113,6.9113,7.0601,7.1312,7.1312,7.1312,7.1312,7.1312,7.1312,7.1222,7.1007,7.1007,7.017,6.8797,6.7368,6.6154,6.4923,6.3592,6.3079,6.3079,9.0432,8.9787,8.9094,8.8248,8.7363,8.6786,8.6786,8.6401,8.6094,8.6094,8.6094,8.6094,8.6094,8.5786,8.5555,8.5555,8.4786,8.3939,8.3054,8.2208,8.1554,8.1131,8.1093,8.09,8.04,7.9709,7.8394,7.6387,7.5842,7.4636,7.2833,7.2118,7.1353,7.0576,7.0503,7.0453,7.0346,7.1214,7.1822,7.2322,7.363,7.4361,7.4822,7.5668,7.6015,7.5938,7.5553,7.5668,7.5822,7.463,7.4207,7.4014,7.3206,7.2668,7.2322,7.2322,7.2245,7.2083,7.1565,7.1289,7.1102,7.0985,7.0374,6.9955,7.0606,7.0477,7.044,7.1248,7.1688,7.1945,7.1945,7.1615,7.0917,6.9743,6.7467,0.0,0.0,6.3209,6.3282,6.2989,6.5044,6.6659,6.71,6.6328,6.5715,6.5566,6.4428,6.4036,6.4661,6.5019,6.5527,6.6271,6.6643,6.6812,6.6812,6.8335,6.9113,6.9113,7.0601,7.1312,7.1312,7.1312,7.1312,7.1312,7.1312,7.1312,7.1312,7.1312,7.0916,7.017,6.8007,6.6751,6.5941,6.3902,6.3079,6.3079,9.0763,9.0056,8.944,8.8786,8.7825,8.7094,8.7094,8.6517,8.6094,8.6094,8.6286,8.6324,8.6132,8.6286,8.6324,8.6132,8.5555,8.4824,8.3939,8.3093,8.2131,8.1131,8.1093,8.0785,8.0131,8.0092,7.9051,7.6873,7.6766,7.5696,7.3757,7.2869,7.2132,7.1507,7.0975,7.0667,7.0561,7.1727,7.2206,7.236,7.4014,7.4707,7.4822,7.5668,7.6015,7.6015,7.6015,7.6015,7.5976,7.5784,7.5245,7.4668,7.4476,7.4014,7.3514,7.3514,7.3073,7.2617,7.283,7.2764,7.2434,7.1715,7.1231,7.1032,7.1489,7.1431,7.1541,7.2349,7.2496,7.2496,7.2496,7.1835,7.0991,6.9963,0.0,0.0,0.0,6.3833,6.3833,6.431,6.5815,6.71,6.7907,6.699,6.6352,6.638,6.5364,6.5079,6.5711,6.5696,6.6034,6.6779,6.6812,6.6812,6.6812,6.8335,6.9113,6.9113,7.0601,7.1312,7.1312,7.1312,7.1312,7.1312,7.1312,7.1312,7.1312,7.1312,7.1098,7.0574,6.8107,6.6958,6.647,6.4015,6.3079,6.3079,9.1457,8.9979,8.8748,8.8709,8.7325,8.6209,8.6209,8.6132,8.6094,8.6094,8.6786,8.7017,8.6209,8.6824,8.6978,8.617,8.6055,8.567,8.4863,8.3978,8.2785,8.117,8.1093,8.1054,8.1016,8.1016,8.0131,7.8369,7.7861,7.6731,7.4942,7.3822,7.2907,7.2112,7.1757,7.1195,7.0561,7.1727,7.2206,7.236,7.4014,7.4707,7.4822,7.5668,7.6015,7.6015,7.6015,7.6015,7.5861,7.5091,7.4745,7.4591,7.3822,7.3553,7.3514,7.3514,7.3629,7.3791,7.3794,7.3222,7.27,7.3137,7.205,7.118,7.2188,7.1835,7.1541,7.2349,7.2496,7.2496,7.2496,7.1835,7.0807,6.9229,0.0,0.0,6.442,6.5338,6.5962,6.5301,6.6623,6.7907,6.8752,6.7168,6.6415,6.7159,6.56,6.4932,6.5628,6.5696,6.6034,6.6779,6.6812,6.6812,6.6812,6.8335,6.9113,6.9113,7.0601,7.1312,7.1312,7.1312,7.1312,7.1312,7.1312,7.1312,7.1312,7.1312,7.0574,6.9217,6.7774,6.6365,6.5111,6.3592,6.3079,6.3079,9.0894,9.0056,8.9133,8.8094,8.7363,8.6709,8.617,8.6094,8.6286,8.6824,8.6709,8.6671,8.6863,8.6709,8.6478,8.6132,8.6094,8.5747,8.4939,8.4093,8.2862,8.117,8.1093,8.1093,8.1093,8.1093,8.0516,7.9323,7.8551,7.7433,7.5892,7.4899,7.411,7.3492,7.3184,7.2586,7.1902,7.32,7.3476,7.3168,7.4822,7.5515,7.5553,7.5861,7.6015,7.6015,7.6015,7.6015,7.5938,7.563,7.5515,7.5438,7.5168,7.5053,7.4956,7.4593,7.4332,7.4093,7.3672,7.3357,7.3146,7.3355,7.2674,7.2023,7.2406,7.2275,7.2129,7.2459,7.2496,7.2496,7.2496,7.1835,7.1284,7.1174,0.0,6.8311,6.7871,6.7907,6.7871,6.7577,6.8495,6.9302,6.9596,6.7995,6.7194,6.8008,6.6316,6.5595,6.6339,6.6373,6.6508,6.6812,6.6812,6.6812,6.6812,6.8335,6.9113,6.9113,7.0601,7.1312,7.1312,7.1312,7.1312,7.1312,7.1312,7.1312,7.1312,7.1312,7.0482,6.9088,6.7673,6.6365,6.4923,6.3592,6.3079,6.3019,9.0825,9.0056,8.9171,8.8017,8.7363,8.6786,8.6209,8.6324,8.6709,8.7325,8.7132,8.7055,8.7363,8.6863,8.6401,8.6132,8.6094,8.5863,8.5324,8.4209,8.2862,8.117,8.1093,8.1093,8.1093,8.1093,8.0669,7.9823,7.9208,7.8161,7.6641,7.5888,7.5171,7.4551,7.4105,7.3565,7.3069,7.4221,7.4245,7.3668,7.5322,7.5822,7.563,7.5899,7.6015,7.6015,7.6015,7.6015,7.6015,7.6015,7.6015,7.6015,7.6015,7.5848,7.5654,7.5236,7.4591,7.3934,7.3541,7.3238,7.3119,7.3119,7.2816,7.2496,7.2496,7.2496,7.2496,7.2496,7.2496,7.2496,7.2496,7.2055,7.1798,7.2092,7.0734,6.9779,7.0073,6.9633,6.9302,6.9302,6.9743,7.0183,7.044,6.9074,6.8453,6.9237,6.7538,6.6616,6.6779,6.7015,6.7049,6.6812,6.7286,6.732,6.6812,6.8335,6.9214,6.9451,7.0703,7.1312,7.1312,7.1312,7.1312,7.1312,7.1312,7.1312,7.1312,7.1312,7.0482,6.9088,6.7673,6.6365,6.4923,6.3592,6.3079,6.3019,9.1518,8.9979,8.8709,8.8671,8.7248,8.6094,8.6094,8.6824,8.7401,8.7401,8.8132,8.8363,8.7478,8.7401,8.7055,8.617,8.6094,8.6094,8.6094,8.4516,8.2862,8.117,8.1093,8.1093,8.1093,8.1093,8.0669,7.9823,7.9823,7.8938,7.7323,7.6714,7.593,7.5053,7.429,7.3908,7.3944,7.449,7.4245,7.3668,7.5322,7.5476,7.4822,7.5668,7.6015,7.6015,7.6015,7.6015,7.6015,7.6015,7.6015,7.6015,7.6015,7.5584,7.5091,7.5091,7.4299,7.3391,7.3391,7.2943,7.2496,7.2496,7.2496,7.2496,7.2532,7.2532,7.2532,7.2532,7.2532,7.2532,7.2532,7.2532,7.2275,7.1468,7.1321,7.1064,7.022,7.011,7.011,7.011,7.011,7.044,7.1248,7.0472,7.0229,7.1023,6.9278,6.7787,6.6896,6.7489,6.7557,6.6846,6.8301,6.8368,6.6846,6.8335,6.9451,7.0195,7.0939,7.1312,7.1312,7.1312,7.1312,7.1312,7.1312,7.1312,7.1312,7.1312,7.0482,6.8991,6.7673,6.6365,6.4923,6.3592,6.3079,6.3079,9.0556,8.9479,8.8517,8.7902,8.6863,8.6094,8.6094,8.6324,8.6709,8.7325,8.7094,8.7017,8.7363,8.6863,8.6363,8.6132,8.6094,8.5593,8.4401,8.3862,8.2862,8.117,8.1093,8.1093,8.1093,8.1093,8.0977,8.0708,8.0092,7.9554,7.9054,7.8238,7.7406,7.6639,7.6984,7.614,7.4528,7.5917,7.5668,7.4437,7.5553,7.5822,7.563,7.5899,7.6015,7.6092,7.6669,7.6515,7.6092,7.6707,7.6899,7.684,7.6399,7.5894,7.5296,7.4853,7.4606,7.4457,7.4457,7.3918,7.334,7.334,7.334,7.3487,7.4074,7.4184,7.4184,7.4184,7.4184,7.4184,7.4184,7.4184,7.3927,7.312,7.2973,7.2716,7.1908,7.1798,7.1798,7.1798,7.1798,7.1872,7.2129,7.1308,7.0843,7.1059,6.9278,6.8068,6.7787,6.7842,6.7557,6.6846,6.8301,6.8876,6.8436,6.9383,6.9722,6.9451,7.0703,7.1312,7.1312,7.1312,7.1312,7.1312,7.1312,7.1312,7.1312,7.1312,6.9949,6.7774,6.7368,6.5728,6.3706,6.3279,6.3079,6.2959,9.0171,8.9325,8.844,8.7555,8.6978,8.6517,8.617,8.6401,8.6786,8.7325,8.694,8.6824,8.7325,8.6632,8.6094,8.6094,8.6094,8.5517,8.4209,8.3785,8.2978,8.1631,8.1285,8.1093,8.1093,8.1093,8.1093,8.1093,8.0554,8.0131,7.9785,7.9246,7.8554,7.7784,7.8284,7.7476,7.5784,7.6861,7.6476,7.5245,7.5784,7.6015,7.6053,7.6361,7.6515,7.663,7.7476,7.7438,7.7053,7.7592,7.7553,7.7262,7.6953,7.6268,7.5442,7.5146,7.4977,7.4918,7.4918,7.4551,7.4258,7.4551,7.3927,7.345,7.4258,7.4441,7.4441,7.4441,7.4698,7.4918,7.4918,7.4661,7.4258,7.378,7.3413,7.3046,7.2569,7.2496,7.2496,7.2496,7.2496,7.2496,7.2496,7.2011,7.1511,7.1159,6.992,6.9025,6.8674,6.8486,6.803,6.7252,6.8741,6.9248,6.8639,6.9958,7.0398,6.9992,7.0872,7.1312,7.1312,7.1312,7.1312,7.1312,7.1312,7.1312,7.1312,7.1312,7.0296,6.8732,6.7572,6.6154,6.4623,6.3478,6.2899,6.257,9.0167,8.9286,8.8325,8.7555,8.7325,8.7017,8.6209,8.6786,8.7286,8.7286,8.7286,8.7286,8.7286,8.6594,8.6055,8.6017,8.5978,8.567,8.4939,8.417,8.3324,8.2439,8.1631,8.1208,8.1208,8.1131,8.1093,8.1093,8.1093,8.0708,7.9939,7.9939,7.9438,7.8631,7.8707,7.8207,7.7284,7.7361,7.6861,7.6015,7.6092,7.613,7.6207,7.7092,7.74,7.7515,7.8323,7.8554,7.8515,7.8592,7.8092,7.7424,7.7568,7.6717,7.5743,7.5805,7.5476,7.5139,7.5139,7.5065,7.5212,7.6019,7.4441,7.2936,7.3817,7.4001,7.4001,7.4001,7.4588,7.5139,7.5139,7.4515,7.4001,7.3927,7.323,7.2679,7.2606,7.2569,7.2496,7.2496,7.2496,7.2496,7.2496,7.2569,7.224,7.1395,7.1118,7.0655,6.9663,6.9404,6.8793,6.7929,6.9316,6.9383,6.7895,7.0094,7.1176,7.1109,7.1244,7.1278,7.121,7.1278,7.1312,7.1312,7.1312,7.1312,7.1312,7.1312,7.1222,7.0882,6.8306,6.7234,6.6656,6.4117,6.2685,6.2002,8.9056,8.8286,8.7632,8.744,8.6824,8.6324,8.6132,8.6247,8.6363,8.6363,8.6363,8.6363,8.6363,8.6209,8.5863,8.5209,8.517,8.5093,8.4901,8.4709,8.4247,8.3362,8.2516,8.2054,8.2054,8.14,8.1093,8.1093,8.1093,8.1016,8.0823,8.0823,8.0362,7.9554,8.0246,7.9323,7.7323,7.7977,7.7361,7.6053,7.6746,7.7015,7.7092,7.7938,7.8246,7.8361,7.9208,7.9092,7.8592,7.9285,7.8938,7.8199,7.7979,7.7666,7.7232,7.6291,7.6397,7.679,7.679,7.6313,7.6019,7.6864,7.5726,7.4771,7.6203,7.6533,7.6533,7.6533,7.668,7.679,7.679,7.6644,7.6313,7.5689,7.4918,7.4147,7.3523,7.2899,7.2496,7.2496,7.2496,7.2496,7.2496,7.3083,7.3355,7.3141,7.3016,7.2474,7.1466,7.0679,6.9536,6.7929,6.8842,6.8876,6.7895,6.9586,7.0161,6.9586,7.077,7.1007,7.0466,7.1041,7.1312,7.1312,7.1312,7.1312,7.1312,7.1312,7.0666,6.9633,6.9024,6.7117,6.4702,6.4089,6.2768,6.1253,8.921,8.8594,8.7902,8.7478,8.7363,8.7055,8.6247,8.6094,8.6094,8.6094,8.6094,8.6094,8.6094,8.5747,8.5363,8.4939,8.4901,8.5055,8.544,8.5132,8.4516,8.3632,8.2747,8.2131,8.1747,8.1323,8.1093,8.1093,8.1093,8.1093,8.1093,8.1093,8.0862,8.0439,8.09,8.0131,7.8515,7.8938,7.8361,7.7246,7.7669,7.7861,7.7938,7.8784,7.9131,7.9246,8.0092,8.0131,7.9823,8.0285,7.9823,7.9051,7.8689,7.8255,7.7748,7.6934,7.6974,7.7304,7.7304,7.7011,7.679,7.7194,7.668,7.6166,7.6644,7.6754,7.6754,7.6754,7.7047,7.7304,7.7304,7.7011,7.6607,7.6166,7.5432,7.4625,7.3817,7.334,7.2936,7.2569,7.2496,7.2496,7.2496,7.2899,7.3303,7.367,7.3561,7.318,7.254,7.1315,6.9921,6.847,6.8504,6.8335,6.7895,6.9079,6.9282,6.8538,7.0432,7.1109,7.0737,7.1142,7.1109,7.0804,7.1142,7.0906,7.0331,7.1007,7.0478,6.9136,6.8748,6.7035,6.4506,6.3804,6.2256,6.0535,8.9556,8.9171,8.8479,8.7748,8.8094,8.7979,8.6555,8.6209,8.6094,8.6094,8.6094,8.6094,8.6094,8.5247,8.4747,8.4901,8.4747,8.5093,8.6055,8.5478,8.4709,8.3862,8.2978,8.2131,8.1323,8.117,8.1093,8.1093,8.1093,8.1093,8.1093,8.1093,8.1093,8.1093,8.1093,8.0631,7.9823,7.9823,7.9285,7.8515,7.8669,7.8707,7.8823,7.9708,8.0015,8.0131,8.0823,8.1093,8.1093,8.1093,8.0631,7.9966,7.9495,7.8844,7.82,7.7756,7.757,7.745,7.745,7.7365,7.7304,7.7304,7.7304,7.7157,7.646,7.6313,7.6313,7.6313,7.6864,7.7304,7.7304,7.6754,7.6313,7.6313,7.5652,7.4882,7.4184,7.3854,7.345,7.2789,7.2569,7.2496,7.2496,7.2606,7.3046,7.3817,7.3842,7.364,7.3106,7.168,7.0269,6.8996,6.8132,6.7726,6.7726,6.8504,6.8571,6.7929,6.9958,7.0872,7.0737,7.0872,7.0601,7.0026,7.0669,7.0229,6.918,7.0432,7.0195,6.9059,6.8511,6.6903,6.4693,6.2965,6.1278,5.9847,8.8825,8.8748,8.8671,8.8517,8.7979,8.7478,8.7248,8.6594,8.6094,8.6094,8.6094,8.6094,8.6094,8.4709,8.4093,8.4824,8.4209,8.4439,8.6017,8.6017,8.5555,8.4747,8.3901,8.3016,8.217,8.1477,8.1093,8.1093,8.1093,8.1093,8.1093,8.1093,8.1093,8.1093,8.1093,8.0631,7.9823,7.9823,7.9285,7.8554,7.9323,7.9631,7.9708,8.0592,8.0939,8.0939,8.1054,8.1093,8.1093,8.1093,8.1016,8.0805,8.0163,7.9893,7.9695,7.9114,7.8551,7.8146,7.8146,7.7768,7.7304,7.7304,7.7304,7.7304,7.7194,7.7157,7.7157,7.7157,7.7231,7.7304,7.7304,7.7231,7.7157,7.7157,7.646,7.5909,7.5799,7.4588,7.367,7.356,7.2936,7.2496,7.2496,7.312,7.3854,7.4698,7.5348,7.5023,7.329,7.236,7.0748,6.815,6.7354,6.6948,6.6948,6.7692,6.7996,6.7895,6.891,6.9045,6.8368,6.9079,6.935,6.9248,6.935,6.9282,6.9113,6.9316,6.9282,6.9113,6.9005,6.6997,6.3896,6.0744,5.9525,5.9219,9.0171,8.9787,8.9363,8.9363,8.9056,8.8479,8.7555,8.7055,8.6632,8.617,8.6094,8.6094,8.6094,8.5055,8.4478,8.4863,8.4555,8.4824,8.6017,8.6094,8.5747,8.4939,8.4055,8.317,8.2324,8.1516,8.1093,8.1093,8.1093,8.1093,8.1093,8.1093,8.1093,8.1093,8.1093,8.09,8.0516,8.0516,8.0285,7.9977,8.0362,8.0516,8.0554,8.0939,8.1093,8.1093,8.1093,8.1093,8.1093,8.1093,8.1093,8.0991,8.0315,8.0125,7.9969,7.938,7.8804,7.8309,7.8309,7.7826,7.7304,7.7304,7.7304,7.7304,7.7304,7.7304,7.7304,7.7304,7.7304,7.7304,7.7304,7.7304,7.7304,7.7304,7.7011,7.6607,7.6166,7.5506,7.4882,7.4441,7.3266,7.2679,7.312,7.3083,7.356,7.4808,7.4808,7.4577,7.4009,7.2371,7.0604,6.8829,6.7486,6.6812,6.6812,6.7117,6.7286,6.7286,6.7658,6.8098,6.8571,6.8944,6.8842,6.8436,6.891,6.8605,6.7895,6.8741,6.8605,6.7861,6.8267,6.6419,6.3128,6.0197,5.9099,5.9069]},{"header":{"parameterUnit":"m.s-1","parameterCategory":1,"la1":30.6,"la2":28.766,"lo1":-90.7593,"lo2":-88.6598,"dy":0.0162,"dx":0.0183,"nx":116,"ny":114,"refTime":"2023-04-15T12:00:00:Z","depth":0,"parameterNumber":3,"parameterNumberName":"V-component_of_WINDS"},"data":[0.0,0.0,0.0,0.0,0.0,0.0,0.0,0.0,0.0,0.0,0.0,0.0,0.0,0.0,0.0,0.0,0.0,0.0,0.0,0.0,0.0,0.0,0.0,0.0,0.0,0.0,0.0,0.0,0.0,0.0,0.0,0.0,0.0,0.0,0.0,0.0,0.0,0.0,0.0,0.0,0.0,0.0,0.0,0.0,0.0,0.0,0.0,0.0,0.0,0.0,0.0,0.0,0.0,0.0,0.0,0.0,0.0,0.0,0.0,0.0,0.0,0.0,0.0,0.0,0.0,0.0,0.0,0.0,0.0,0.0,0.0,0.0,0.0,0.0,0.0,0.0,0.0,0.0,0.0,0.0,0.0,0.0,0.0,0.0,0.0,0.0,0.0,0.0,0.0,0.0,0.0,0.0,0.0,0.0,0.0,0.0,0.0,0.0,0.0,0.0,0.0,0.0,0.0,0.0,0.0,0.0,0.0,0.0,0.0,0.0,0.0,0.0,0.0,0.0,0.0,0.0,0.0,0.0,0.0,0.0,0.0,0.0,0.0,0.0,0.0,0.0,0.0,0.0,0.0,0.0,0.0,0.0,0.0,0.0,0.0,0.0,0.0,0.0,0.0,0.0,0.0,0.0,0.0,0.0,0.0,0.0,0.0,0.0,0.0,0.0,0.0,0.0,0.0,0.0,0.0,0.0,0.0,0.0,0.0,0.0,0.0,0.0,0.0,0.0,0.0,0.0,0.0,0.0,0.0,0.0,0.0,0.0,0.0,0.0,0.0,0.0,0.0,0.0,0.0,0.0,0.0,0.0,0.0,0.0,0.0,0.0,0.0,0.0,0.0,0.0,0.0,0.0,0.0,0.0,0.0,0.0,0.0,0.0,0.0,0.0,0.0,0.0,0.0,0.0,0.0,0.0,0.0,0.0,0.0,0.0,0.0,0.0,0.0,0.0,0.0,0.0,0.0,0.0,0.0,0.0,0.0,0.0,0.0,0.0,0.0,0.0,0.0,0.0,0.0,0.0,0.0,0.0,0.0,0.0,0.0,0.0,0.0,0.0,0.0,0.0,0.0,0.0,0.0,0.0,0.0,0.0,0.0,0.0,0.0,0.0,0.0,0.0,0.0,0.0,0.0,0.0,0.0,0.0,0.0,0.0,0.0,0.0,0.0,0.0,0.0,0.0,0.0,0.0,0.0,0.0,0.0,0.0,0.0,0.0,0.0,0.0,0.0,0.0,0.0,0.0,0.0,0.0,0.0,0.0,0.0,0.0,0.0,0.0,0.0,0.0,0.0,0.0,0.0,0.0,0.0,0.0,0.0,0.0,0.0,0.0,0.0,0.0,0.0,0.0,0.0,0.0,0.0,0.0,0.0,0.0,0.0,0.0,0.0,0.0,0.0,0.0,0.0,0.0,0.0,0.0,0.0,0.0,0.0,0.0,0.0,0.0,0.0,0.0,0.0,0.0,0.0,0.0,0.0,0.0,0.0,0.0,0.0,0.0,0.0,0.0,0.0,0.0,0.0,0.0,0.0,0.0,0.0,0.0,0.0,0.0,0.0,0.0,0.0,0.0,0.0,0.0,0.0,0.0,0.0,0.0,0.0,0.0,0.0,0.0,0.0,0.0,0.0,0.0,0.0,0.0,0.0,0.0,0.0,0.0,0.0,0.0,0.0,0.0,0.0,0.0,0.0,0.0,0.0,0.0,0.0,0.0,0.0,0.0,0.0,0.0,0.0,0.0,0.0,0.0,0.0,0.0,0.0,0.0,0.0,0.0,0.0,0.0,0.0,0.0,0.0,0.0,0.0,0.0,0.0,0.0,0.0,0.0,0.0,0.0,0.0,0.0,0.0,0.0,0.0,0.0,0.0,0.0,0.0,0.0,0.0,0.0,0.0,0.0,0.0,0.0,0.0,0.0,0.0,0.0,0.0,0.0,0.0,0.0,0.0,0.0,0.0,0.0,0.0,0.0,0.0,0.0,0.0,0.0,0.0,0.0,0.0,0.0,0.0,0.0,0.0,0.0,0.0,0.0,0.0,0.0,0.0,0.0,0.0,0.0,0.0,0.0,0.0,0.0,0.0,0.0,0.0,0.0,0.0,0.0,0.0,0.0,0.0,0.0,0.0,0.0,0.0,0.0,0.0,0.0,0.0,0.0,0.0,0.0,0.0,0.0,0.0,0.0,0.0,0.0,0.0,0.0,0.0,0.0,0.0,0.0,0.0,0.0,0.0,0.0,0.0,0.0,0.0,0.0,0.0,0.0,0.0,0.0,0.0,0.0,0.0,0.0,0.0,0.0,0.0,0.0,0.0,0.0,0.0,0.0,0.0,0.0,0.0,0.0,0.0,0.0,0.0,0.0,0.0,0.0,0.0,0.0,0.0,0.0,0.0,0.0,0.0,0.0,0.0,0.0,0.0,0.0,0.0,0.0,0.0,0.0,0.0,0.0,0.0,0.0,0.0,0.0,0.0,0.0,0.0,0.0,0.0,0.0,0.0,0.0,0.0,0.0,0.0,0.0,0.0,0.0,0.0,0.0,0.0,0.0,0.0,0.0,0.0,0.0,0.0,0.0,0.0,0.0,0.0,0.0,0.0,0.0,0.0,0.0,0.0,0.0,0.0,0.0,0.0,0.0,0.0,0.0,0.0,0.0,0.0,0.0,0.0,0.0,0.0,0.0,0.0,0.0,0.0,0.0,0.0,0.0,0.0,0.0,0.0,0.0,0.0,0.0,0.0,0.0,0.0,0.0,0.0,0.0,0.0,0.0,0.0,0.0,0.0,0.0,0.0,0.0,0.0,0.0,0.0,0.0,0.0,0.0,0.0,0.0,0.0,0.0,0.0,0.0,0.0,0.0,0.0,0.0,0.0,0.0,0.0,0.0,0.0,0.0,0.0,0.0,0.0,0.0,0.0,0.0,0.0,0.0,0.0,0.0,0.0,0.0,0.0,0.0,0.0,0.0,0.0,0.0,0.0,0.0,0.0,0.0,0.0,0.0,0.0,0.0,0.0,0.0,0.0,0.0,0.0,0.0,0.0,0.0,0.0,0.0,0.0,0.0,0.0,0.0,0.0,0.0,0.0,0.0,0.0,0.0,0.0,0.0,0.0,0.0,0.0,0.0,0.0,0.0,0.0,0.0,0.0,0.0,0.0,0.0,0.0,0.0,0.0,0.0,0.0,0.0,0.0,0.0,0.0,0.0,0.0,0.0,0.0,0.0,0.0,0.0,0.0,0.0,0.0,0.0,0.0,0.0,0.0,0.0,0.0,0.0,0.0,0.0,0.0,0.0,0.0,0.0,0.0,0.0,0.0,0.0,0.0,0.0,0.0,0.0,0.0,0.0,0.0,0.0,0.0,0.0,0.0,0.0,0.0,0.0,0.0,0.0,0.0,0.0,0.0,0.0,0.0,0.0,0.0,0.0,0.0,0.0,0.0,0.0,0.0,0.0,0.0,0.0,0.0,0.0,0.0,0.0,0.0,0.0,0.0,0.0,0.0,0.0,0.0,0.0,0.0,0.0,0.0,0.0,0.0,0.0,0.0,0.0,0.0,0.0,0.0,0.0,0.0,0.0,0.0,0.0,0.0,0.0,0.0,0.0,0.0,0.0,0.0,0.0,0.0,0.0,0.0,0.0,0.0,0.0,0.0,0.0,0.0,0.0,0.0,0.0,0.0,0.0,0.0,0.0,0.0,0.0,0.0,0.0,0.0,0.0,0.0,0.0,0.0,0.0,0.0,0.0,0.0,0.0,0.0,0.0,0.0,0.0,0.0,0.0,0.0,0.0,0.0,0.0,0.0,0.0,0.0,0.0,0.0,0.0,0.0,0.0,0.0,0.0,0.0,0.0,0.0,0.0,0.0,0.0,0.0,0.0,0.0,0.0,0.0,0.0,0.0,0.0,0.0,0.0,0.0,0.0,0.0,0.0,0.0,0.0,0.0,0.0,0.0,0.0,0.0,0.0,0.0,0.0,0.0,0.0,0.0,0.0,0.0,0.0,0.0,0.0,0.0,0.0,0.0,0.0,0.0,0.0,0.0,0.0,0.0,0.0,0.0,0.0,0.0,0.0,0.0,0.0,0.0,0.0,0.0,0.0,0.0,0.0,0.0,0.0,0.0,0.0,0.0,0.0,0.0,0.0,0.0,0.0,0.0,0.0,0.0,0.0,0.0,0.0,0.0,0.0,0.0,0.0,0.0,0.0,0.0,0.0,0.0,0.0,0.0,0.0,0.0,0.0,0.0,0.0,0.0,0.0,0.0,0.0,0.0,0.0,0.0,0.0,0.0,0.0,0.0,0.0,0.0,0.0,0.0,0.0,0.0,0.0,0.0,0.0,0.0,0.0,0.0,0.0,0.0,0.0,0.0,0.0,0.0,0.0,0.0,0.0,0.0,0.0,0.0,0.0,0.0,0.0,0.0,0.0,0.0,0.0,0.0,0.0,0.0,0.0,0.0,0.0,0.0,0.0,0.0,0.0,0.0,0.0,0.0,0.0,0.0,0.0,0.0,0.0,0.0,0.0,0.0,0.0,0.0,0.0,0.0,0.0,0.0,0.0,0.0,0.0,0.0,0.0,0.0,0.0,0.0,0.0,0.0,0.0,0.0,0.0,0.0,0.0,0.0,0.0,0.0,0.0,0.0,0.0,0.0,0.0,0.0,0.0,0.0,0.0,0.0,0.0,0.0,0.0,0.0,0.0,0.0,0.0,0.0,0.0,0.0,0.0,0.0,0.0,0.0,0.0,0.0,0.0,0.0,0.0,0.0,0.0,0.0,0.0,0.0,0.0,0.0,0.0,0.0,0.0,0.0,0.0,0.0,0.0,0.0,0.0,0.0,0.0,0.0,0.0,0.0,0.0,0.0,0.0,0.0,0.0,0.0,0.0,0.0,0.0,0.0,0.0,0.0,0.0,0.0,0.0,0.0,0.0,0.0,0.0,0.0,0.0,0.0,0.0,0.0,0.0,0.0,0.0,0.0,0.0,0.0,0.0,0.0,0.0,0.0,0.0,0.0,0.0,0.0,0.0,0.0,0.0,0.0,0.0,0.0,0.0,0.0,0.0,0.0,0.0,0.0,0.0,0.0,0.0,0.0,0.0,0.0,0.0,0.0,0.0,0.0,0.0,0.0,0.0,0.0,0.0,0.0,0.0,0.0,0.0,0.0,0.0,0.0,0.0,0.0,0.0,0.0,0.0,0.0,0.0,0.0,0.0,0.0,0.0,0.0,0.0,0.0,0.0,0.0,0.0,0.0,0.0,0.0,0.0,0.0,0.0,0.0,0.0,0.0,0.0,0.0,0.0,0.0,0.0,0.0,0.0,0.0,0.0,0.0,0.0,0.0,0.0,0.0,0.0,0.0,0.0,0.0,0.0,0.0,0.0,0.0,0.0,0.0,0.0,0.0,0.0,0.0,0.0,0.0,0.0,0.0,0.0,0.0,0.0,0.0,0.0,0.0,0.0,0.0,0.0,0.0,0.0,0.0,0.0,0.0,0.0,0.0,0.0,0.0,0.0,0.0,0.0,0.0,0.0,0.0,0.0,0.0,0.0,0.0,0.0,0.0,0.0,0.0,0.0,0.0,0.0,0.0,0.0,0.0,0.0,0.0,0.0,0.0,0.0,0.0,0.0,0.0,0.0,0.0,0.0,0.0,0.0,0.0,0.0,0.0,0.0,0.0,0.0,0.0,0.0,0.0,0.0,0.0,0.0,0.0,0.0,0.0,0.0,0.0,0.0,0.0,0.0,0.0,0.0,0.0,0.0,0.0,0.0,0.0,0.0,0.0,0.0,0.0,0.0,0.0,0.0,0.0,0.0,0.0,0.0,0.0,0.0,0.0,0.0,0.0,0.0,0.0,0.0,0.0,0.0,0.0,0.0,0.0,0.0,0.0,0.0,0.0,0.0,0.0,0.0,0.0,0.0,0.0,0.0,0.0,0.0,0.0,0.0,0.0,0.0,0.0,0.0,0.0,0.0,0.0,0.0,0.0,0.0,0.0,0.0,0.0,0.0,0.0,0.0,0.0,0.0,0.0,0.0,0.0,0.0,0.0,0.0,0.0,0.0,0.0,0.0,0.0,0.0,0.0,0.0,0.0,0.0,0.0,0.0,0.0,0.0,-3.0508,0.0,0.0,0.0,0.0,0.0,0.0,0.0,0.0,0.0,0.0,0.0,0.0,0.0,0.0,0.0,0.0,0.0,0.0,0.0,0.0,0.0,0.0,0.0,0.0,0.0,0.0,0.0,0.0,0.0,0.0,0.0,0.0,0.0,0.0,0.0,0.0,0.0,0.0,0.0,0.0,0.0,0.0,0.0,0.0,0.0,0.0,0.0,0.0,0.0,0.0,0.0,0.0,0.0,0.0,0.0,0.0,0.0,0.0,0.0,0.0,0.0,0.0,0.0,0.0,0.0,0.0,0.0,0.0,0.0,0.0,0.0,0.0,0.0,0.0,0.0,0.0,0.0,0.0,0.0,0.0,0.0,0.0,0.0,0.0,0.0,0.0,0.0,0.0,0.0,0.0,0.0,0.0,0.0,0.0,0.0,0.0,0.0,0.0,0.0,0.0,0.0,0.0,0.0,0.0,0.0,0.0,0.0,0.0,0.0,0.0,0.0,0.0,0.0,0.0,0.0,0.0,-3.0957,0.0,0.0,0.0,0.0,0.0,0.0,0.0,0.0,0.0,0.0,0.0,0.0,0.0,0.0,0.0,0.0,0.0,0.0,0.0,0.0,0.0,0.0,0.0,0.0,0.0,0.0,0.0,0.0,0.0,0.0,0.0,0.0,0.0,0.0,0.0,0.0,0.0,0.0,0.0,0.0,0.0,0.0,0.0,0.0,0.0,0.0,0.0,0.0,0.0,0.0,0.0,0.0,0.0,0.0,0.0,0.0,0.0,0.0,0.0,0.0,0.0,0.0,0.0,0.0,0.0,0.0,0.0,0.0,0.0,0.0,0.0,0.0,0.0,0.0,0.0,0.0,0.0,0.0,0.0,0.0,0.0,0.0,0.0,0.0,0.0,0.0,0.0,0.0,0.0,0.0,0.0,0.0,0.0,0.0,0.0,0.0,0.0,0.0,0.0,0.0,0.0,0.0,0.0,0.0,0.0,0.0,0.0,0.0,-3.3281,-3.3496,-3.375,-3.3398,-3.3437,-3.3711,-3.2656,-3.1601,-3.0703,0.0,0.0,0.0,0.0,0.0,0.0,0.0,0.0,0.0,0.0,0.0,0.0,0.0,0.0,0.0,0.0,0.0,0.0,0.0,0.0,0.0,0.0,0.0,-2.1216,-2.147,-2.1496,-2.1496,0.0,0.0,0.0,0.0,0.0,0.0,0.0,0.0,0.0,0.0,0.0,0.0,-2.2418,-2.2458,-2.2458,-2.2432,-2.2726,0.0,0.0,0.0,0.0,0.0,0.0,0.0,0.0,0.0,0.0,0.0,0.0,0.0,0.0,0.0,0.0,0.0,0.0,0.0,0.0,0.0,0.0,0.0,0.0,0.0,0.0,0.0,0.0,0.0,0.0,0.0,0.0,0.0,0.0,0.0,0.0,0.0,0.0,0.0,0.0,0.0,0.0,0.0,-3.2676,-3.3047,0.0,0.0,0.0,0.0,0.0,0.0,0.0,0.0,0.0,0.0,0.0,0.0,0.0,-3.3301,-3.373,-3.4492,-3.4726,-3.4453,-3.5234,-3.543,-3.5137,-3.5078,-3.5078,-3.5137,-3.4961,0.0,-3.2441,-3.2187,0.0,0.0,0.0,0.0,0.0,0.0,0.0,0.0,0.0,0.0,0.0,0.0,0.0,0.0,0.0,0.0,0.0,0.0,0.0,0.0,0.0,-2.1109,-2.1162,-2.1296,-2.1309,-2.1376,-2.1537,0.0,0.0,0.0,0.0,0.0,0.0,0.0,0.0,0.0,-2.2498,-2.2712,-2.2672,-2.2846,-2.302,-2.318,-2.314,-2.3033,-2.2846,-2.2686,0.0,0.0,0.0,0.0,0.0,0.0,0.0,0.0,0.0,0.0,0.0,0.0,0.0,0.0,0.0,0.0,0.0,0.0,0.0,0.0,0.0,0.0,0.0,0.0,0.0,0.0,0.0,0.0,0.0,0.0,0.0,0.0,0.0,0.0,0.0,0.0,0.0,0.0,0.0,-3.2344,-3.2949,-3.2422,-3.2832,-3.2695,0.0,0.0,0.0,0.0,0.0,0.0,0.0,0.0,0.0,-3.4238,-3.4434,-3.4844,-3.5527,-3.5918,-3.625,-3.6523,-3.6914,-3.7129,-3.7168,-3.6934,-3.6816,-3.6816,-3.6816,-3.6113,-3.4883,-3.3711,-3.2851,-3.2168,0.0,0.0,0.0,0.0,-3.0898,-3.0859,0.0,0.0,0.0,0.0,0.0,0.0,0.0,0.0,0.0,0.0,0.0,0.0,-2.1109,-2.1176,-2.1256,-2.1323,-2.1336,-2.1456,-2.175,-2.143,0.0,0.0,0.0,0.0,0.0,0.0,0.0,-2.2098,-2.2766,-2.306,-2.2993,-2.33,-2.3554,-2.3754,-2.3541,-2.3273,-2.2966,-2.2739,-2.2686,-2.2739,0.0,0.0,0.0,0.0,0.0,0.0,0.0,0.0,0.0,0.0,0.0,0.0,0.0,0.0,0.0,0.0,0.0,0.0,0.0,0.0,0.0,0.0,0.0,0.0,0.0,0.0,0.0,0.0,0.0,0.0,0.0,0.0,0.0,0.0,0.0,0.0,0.0,-3.3047,-3.3535,-3.2461,-3.3652,-3.3867,0.0,0.0,0.0,0.0,0.0,0.0,-3.4707,-3.5039,-3.5469,-3.6016,-3.6152,-3.6562,-3.7305,-3.7441,-3.7812,-3.8437,-3.8535,-3.8769,-3.9062,-3.873,-3.8594,-3.8574,-3.8476,-3.8066,-3.7344,-3.5508,-3.416,-3.3203,-3.2461,-3.1855,-3.1387,-3.1387,-3.1309,-3.1211,0.0,0.0,0.0,0.0,0.0,0.0,0.0,0.0,0.0,0.0,0.0,-2.1109,-2.1109,-2.1363,-2.1643,-2.1911,-2.1937,-2.2071,-2.2352,-2.1844,-2.1537,-2.155,0.0,0.0,0.0,0.0,0.0,-2.2392,-2.2445,-2.2752,-2.3313,-2.3607,-2.3754,-2.3768,-2.3754,-2.3581,-2.33,-2.3287,-2.2953,-2.2458,-2.2726,0.0,0.0,0.0,0.0,0.0,0.0,0.0,0.0,0.0,0.0,0.0,0.0,0.0,0.0,0.0,0.0,0.0,0.0,0.0,0.0,0.0,0.0,0.0,0.0,0.0,0.0,0.0,0.0,0.0,0.0,0.0,0.0,0.0,0.0,0.0,0.0,0.0,0.0,-3.4609,-3.6406,0.0,0.0,0.0,0.0,-3.5234,-3.5273,-3.5664,-3.6504,-3.6562,-3.6953,-3.7773,-3.8203,-3.8633,-3.9062,-3.9512,-3.9766,-3.9805,-4.0195,-4.041,-4.043,-4.041,-4.0391,-4.0371,-3.9961,-3.9766,-3.957,-3.7422,-3.5781,-3.4551,-3.4121,-3.3437,-3.2695,-3.2695,-3.2441,-3.2109,0.0,0.0,0.0,0.0,0.0,0.0,0.0,0.0,0.0,-2.1109,-2.1109,-2.1189,-2.1376,-2.1496,-2.167,-2.1964,-2.1991,-2.2111,-2.2405,-2.1871,-2.163,-2.1817,0.0,0.0,0.0,0.0,-2.2031,-2.2418,-2.3006,-2.35,-2.3888,-2.3995,-2.4155,-2.4315,-2.4128,-2.4685,-2.5639,-2.3803,-2.3681,-2.4553,-2.301,-2.2993,0.0,0.0,0.0,0.0,0.0,0.0,0.0,0.0,0.0,0.0,0.0,0.0,0.0,0.0,0.0,0.0,0.0,0.0,0.0,0.0,0.0,0.0,0.0,0.0,0.0,0.0,0.0,0.0,0.0,0.0,0.0,0.0,0.0,0.0,0.0,0.0,0.0,-3.6797,-3.8437,0.0,-3.6582,-3.6523,-3.6621,-3.6621,-3.7383,-3.7988,-3.8281,-3.8848,-3.9277,-3.959,-3.9746,-4.0039,-4.0469,-4.0625,-4.0723,-4.0723,-4.0859,-4.0937,-4.0937,-4.0937,-4.0781,-4.0527,-4.0664,-4.041,-3.9844,-3.9062,-3.7812,-3.625,-3.498,-3.4121,-3.3555,-3.3008,-3.2695,-3.2539,0.0,0.0,0.0,0.0,0.0,0.0,0.0,0.0,0.0,-2.1109,-2.1109,-2.1229,-2.1523,-2.1724,-2.1964,-2.2258,-2.2285,-2.2405,-2.2712,-2.1991,-2.193,-2.2738,-2.2365,0.0,0.0,-2.2031,-2.2432,-2.2726,-2.342,-2.3968,-2.4356,-2.4449,-2.4649,-2.493,-2.473,-2.5359,-2.643,-2.5144,-2.5542,-2.6889,-2.5026,-2.4701,-2.5114,0.0,0.0,0.0,0.0,0.0,0.0,0.0,0.0,0.0,0.0,0.0,0.0,0.0,0.0,0.0,0.0,0.0,0.0,0.0,0.0,0.0,0.0,0.0,0.0,0.0,0.0,0.0,0.0,0.0,0.0,0.0,0.0,0.0,0.0,0.0,-3.8476,-3.8184,-4.0176,-4.0801,-3.8809,-3.8867,-3.9023,-3.9023,-3.9687,-4.0137,-4.0273,-4.084,-4.1094,-4.0957,-4.0957,-4.1094,-4.1387,-4.125,-4.125,-4.1387,-4.125,-4.1172,-4.1172,-4.1172,-4.1016,-4.0762,-4.1055,-4.0859,-4.0312,-4.0019,-3.9219,-3.8008,-3.6406,-3.5351,-3.4668,-3.4101,-3.3613,-3.3289,0.0,0.0,0.0,0.0,0.0,0.0,0.0,-2.1109,-2.1109,-2.1109,-2.1109,-2.1229,-2.1537,-2.2071,-2.2539,-2.2846,-2.2873,-2.2993,-2.3287,-2.2205,-2.2434,-2.4257,0.0,0.0,-2.2418,-2.2726,-2.3046,-2.3367,-2.3661,-2.4102,-2.4676,-2.4957,-2.5237,-2.5518,-2.5518,-2.5504,-2.5783,-2.7554,-2.8664,-2.9178,-2.8993,-2.7707,-2.5905,0.0,0.0,0.0,0.0,0.0,0.0,0.0,0.0,0.0,0.0,0.0,0.0,0.0,0.0,0.0,0.0,0.0,0.0,0.0,0.0,0.0,0.0,0.0,0.0,0.0,0.0,0.0,0.0,0.0,0.0,0.0,0.0,0.0,-3.5508,-3.8086,-3.9668,-3.8867,-4.1738,-4.3125,-4.1465,-4.2031,-4.248,-4.2461,-4.2109,-4.2051,-4.2422,-4.2461,-4.2266,-4.1836,-4.1816,-4.1816,-4.1816,-4.1406,-4.1387,-4.1797,-4.1367,-4.1172,-4.1172,-4.1172,-4.1172,-4.1172,-4.1172,-4.1172,-4.1113,-4.0254,-3.9902,-3.9766,-3.8437,-3.7168,-3.6074,-3.6035,-3.5195,-3.428,0.0,0.0,0.0,0.0,0.0,0.0,0.0,-2.1109,-2.1109,-2.1109,-2.1109,-2.1309,-2.1817,-2.2205,-2.2632,-2.3153,-2.2993,-2.2899,-2.2979,-2.2084,-2.1849,-2.2305,0.0,0.0,-2.2726,-2.326,-2.3768,-2.4275,-2.4569,-2.4917,-2.5277,-2.5358,-2.5438,-2.5518,-2.5518,-2.7136,-2.9774,-3.0255,-3.2176,-3.4714,-3.0891,-2.9699,-3.0066,0.0,0.0,0.0,0.0,0.0,0.0,0.0,0.0,0.0,0.0,0.0,0.0,0.0,0.0,0.0,0.0,0.0,0.0,0.0,0.0,0.0,0.0,0.0,0.0,0.0,0.0,0.0,0.0,0.0,0.0,0.0,0.0,-3.8164,-3.8164,-3.9961,-4.1777,-4.3086,-4.4355,-4.4961,-4.4492,-4.4082,-4.3711,-4.3379,-4.3555,-4.3457,-4.293,-4.3183,-4.3008,-4.2285,-4.2266,-4.2266,-4.2266,-4.1836,-4.168,-4.1797,-4.1367,-4.1172,-4.1172,-4.1172,-4.1172,-4.1172,-4.1172,-4.1172,-4.1133,-4.0586,-4.0176,-3.9766,-3.8437,-3.7715,-3.7285,-3.6367,-3.5391,-3.4713,0.0,0.0,0.0,0.0,0.0,0.0,0.0,-2.209,-2.209,-2.209,-2.171,-2.1523,-2.2098,-2.2432,-2.2806,-2.3287,-2.3166,-2.2953,-2.2699,-2.3505,-2.3892,-2.4006,0.0,-2.5591,-2.4623,-2.4426,-2.4543,-2.501,-2.517,-2.5411,-2.5692,-2.5692,-2.5825,-2.6066,-2.6973,-2.8703,-3.1093,-3.291,-3.502,-3.6915,-3.4573,-3.3314,-3.2611,-3.0635,-2.9602,-2.923,-2.8043,-2.8118,-2.8511,-2.6296,0.0,0.0,0.0,0.0,0.0,0.0,0.0,0.0,0.0,0.0,0.0,0.0,0.0,0.0,0.0,0.0,0.0,0.0,0.0,0.0,0.0,0.0,0.0,0.0,-3.8516,-4.0273,-4.0996,-4.2129,-4.3496,-4.5098,-4.582,-4.6269,-4.6465,-4.5703,-4.5078,-4.4805,-4.4707,-4.4433,-4.3926,-4.4121,-4.3945,-4.3281,-4.3242,-4.3164,-4.2969,-4.2539,-4.2324,-4.2324,-4.1719,-4.1426,-4.1426,-4.125,-4.1172,0.0,-4.1172,-4.1172,-4.1133,-4.0703,-4.0273,0.0,0.0,0.0,0.0,0.0,-3.6596,-3.6152,0.0,0.0,0.0,0.0,0.0,0.0,0.0,-2.3574,-2.3574,-2.3574,-2.2497,-2.175,-2.2258,-2.2619,-2.2939,-2.3247,-2.3247,-2.2993,-2.2714,-2.5535,-2.7333,-2.7577,-2.8196,-2.8138,-2.7176,-2.5945,-2.5384,-2.5705,-2.5705,-2.5852,-2.6106,-2.6106,-2.6373,-2.6867,-2.8907,-3.0151,-3.1045,-3.483,-3.6723,-3.7319,-3.8667,-3.7391,-3.444,-3.3495,-3.3166,-3.292,-3.0822,-3.0705,-3.1393,-2.9533,0.0,0.0,0.0,0.0,0.0,0.0,0.0,0.0,0.0,0.0,0.0,0.0,0.0,0.0,0.0,0.0,0.0,0.0,0.0,0.0,0.0,0.0,0.0,0.0,-4.0508,-4.2012,-4.3633,-4.4297,-4.4922,-4.5723,-4.6523,-4.7168,-4.7598,-4.6914,-4.6426,-4.6367,-4.5723,-4.5273,-4.5176,0.0,0.0,0.0,0.0,-4.4258,-4.3789,-4.3359,-4.3125,-4.3066,-4.2207,-4.1797,-4.1777,-4.1367,-4.1172,-4.1172,-4.1172,-4.1172,-4.1152,-4.0762,-4.0312,-3.9844,-3.9336,-3.8739,-3.8122,-3.8553,-3.8561,-3.8359,0.0,0.0,0.0,0.0,0.0,0.0,0.0,-2.3574,-2.3574,-2.3574,-2.2497,-2.159,-2.171,-2.2191,-2.2619,-2.2926,-2.2739,-2.3199,-2.4643,-2.6647,-2.816,-2.9043,-2.9583,-2.9473,-2.8552,-2.7003,-2.64,-2.6921,-2.6921,-2.6961,-2.7014,-2.7014,-2.7068,-2.7175,-2.7649,-2.9734,-3.3106,-3.3892,-3.6261,-3.9259,-3.9635,-3.8973,-3.7653,-3.6804,-3.6263,-3.5739,-3.47,-3.4757,-3.518,-3.2491,-3.1881,-3.1897,-3.0208,-2.9144,0.0,0.0,0.0,0.0,0.0,0.0,0.0,0.0,0.0,0.0,0.0,0.0,0.0,0.0,0.0,0.0,0.0,0.0,0.0,-3.9609,-4.1699,-4.3574,-4.4629,-4.5449,-4.6133,-4.6621,-4.7148,-4.7617,-4.8047,-4.7637,-4.7187,-4.6836,-4.6973,-4.6777,-4.6094,-4.6055,-4.5859,-4.5449,-4.5098,-4.4707,-4.4277,-4.3808,-4.3418,-4.3066,0.0,0.0,-4.1777,-4.1367,-4.1172,-4.1172,-4.1172,-4.1172,-4.1172,-4.1074,-4.0586,-3.9824,-3.9004,-3.8986,-3.9537,-3.9678,-4.0098,-4.0634,0.0,0.0,0.0,0.0,0.0,0.0,0.0,-2.4178,-2.3946,-2.4655,-2.2976,-2.1603,-2.175,-2.2031,-2.2258,-2.2405,-2.2151,-2.3328,-2.6688,-2.8097,-3.0135,-3.2965,-3.2949,-3.2191,-3.0961,-2.9306,-2.8061,-2.7268,-2.7268,-2.7268,-2.7268,-2.7268,-2.7348,-2.7482,-2.8604,-3.1088,-3.4283,-3.5237,-3.7631,-4.0527,-4.0527,-4.0273,-3.9766,-3.8672,-3.8125,-3.7851,-3.7207,-3.7129,-3.7047,-3.5534,-3.5186,-3.501,-3.3798,-3.3175,-3.2666,0.0,0.0,0.0,0.0,0.0,0.0,0.0,0.0,0.0,0.0,0.0,0.0,0.0,0.0,-3.6367,0.0,0.0,-4.043,-4.2187,-4.3711,-4.5,-4.5859,-4.6719,-4.7246,-4.7246,-4.7637,-4.8066,-4.8496,-4.8144,-4.7812,-4.7578,-4.7578,-4.7402,-4.6973,-4.6933,-4.6738,-4.6308,-4.6094,-4.5566,-4.4726,-4.4473,-4.4043,-4.3379,-4.2519,-4.2109,-4.209,-4.1465,-4.1172,-4.1172,-4.1172,-4.1172,-4.1152,-4.0937,-4.0469,-3.9975,-4.0151,-4.0855,-4.1488,-4.125,-4.1904,-4.2789,0.0,0.0,0.0,0.0,0.0,0.0,0.0,0.0,-2.4054,-2.5375,-2.3228,-2.1617,-2.179,-2.1871,-2.1897,-2.1897,-2.1737,-2.3448,-2.7765,-2.9174,-3.1773,-3.6234,-3.6072,-3.4872,-3.3076,-3.1476,-2.9601,-2.7442,-2.7442,-2.7442,-2.7442,-2.7442,-2.7562,-2.7942,-3.005,-3.2445,-3.483,-3.701,-3.931,-4.1308,-4.1387,-4.1426,-4.1308,-4.0234,-3.9726,-3.9531,-3.9101,-3.8672,-3.8301,-3.8301,-3.7793,-3.7168,-3.7266,-3.7187,-3.6738,-3.5156,-3.5527,0.0,0.0,0.0,0.0,0.0,0.0,0.0,0.0,0.0,-3.5254,-3.6309,-3.7187,-3.832,-4.0078,-4.0937,-4.2226,-4.4746,-4.5586,-4.6191,-4.6953,-4.7715,-4.8086,-4.7734,-4.8066,-4.8476,-4.8828,-4.8535,-4.8301,-4.8223,-4.7969,-4.7793,-4.7715,-4.7695,-4.75,-4.707,-4.6894,-4.623,-4.5039,-4.4941,-4.4492,-4.3691,-4.293,-4.25,-4.2402,-4.1641,-4.125,-4.1172,-4.1172,-4.1172,-4.1133,-4.0703,-4.0273,-3.9994,-4.1085,-4.2223,-4.3444,-4.3105,-4.3891,-4.4852,0.0,0.0,0.0,0.0,0.0,0.0,0.0,0.0,0.0,-2.3807,-2.2497,-2.147,-2.1229,-2.1443,-2.1603,-2.1603,-2.1804,-2.3328,-2.6571,-2.9223,-3.2256,-3.5539,-3.6279,-3.5832,-3.3974,-3.1957,-3.0035,-2.8043,-2.8043,-2.8043,-2.8043,-2.8043,-2.8056,-2.8251,-3.0368,-3.2663,-3.4847,-3.7453,-3.9738,-4.1758,-4.2129,-4.2285,-4.2266,-4.2129,-4.1601,-4.0898,-4.0449,-4.0039,-3.9668,-3.9668,-3.9336,-3.8984,-3.9414,-3.8984,-3.8184,-3.7226,0.0,-3.5215,-3.3691,-3.3418,-3.3984,-3.5723,-3.5703,-3.6113,0.0,0.0,-3.8535,-4.0195,-4.1191,-4.1855,-4.2109,-4.3457,-4.4766,-4.5488,-4.6269,-4.6953,-4.7441,-4.791,-4.8183,-4.8144,-4.8516,-4.8808,-4.8848,-4.8808,-4.8633,-4.8242,-4.8516,-4.8555,-4.8164,-4.8144,-4.7949,-4.7519,-4.6777,-4.5937,-4.5039,-4.4648,-4.4219,-4.3691,-4.3223,-4.2793,-4.2402,-4.1953,-4.1523,-4.1172,-4.1172,-4.1172,-4.1133,-4.0703,-4.0273,-3.9844,-3.9672,-4.1295,-4.4051,-4.472,-4.5755,-4.6709,0.0,0.0,0.0,0.0,0.0,0.0,0.0,0.0,0.0,0.0,-2.2202,-2.1243,-2.1122,-2.1216,-2.1296,-2.1296,-2.1724,-2.3482,-2.6668,-2.8722,-3.1696,-3.6318,-3.7102,-3.6518,-3.442,-3.3613,-3.1601,-2.8136,-2.8136,-2.8136,-2.8136,-2.8136,-2.9061,-3.0533,-3.1357,-3.3762,-3.7427,-3.8418,-4.0148,-4.2187,-4.2363,-4.2422,-4.2402,-4.2148,-4.1836,-4.1484,-4.1055,-4.0293,0.0,-3.9805,-3.959,-3.9336,-4.0039,-3.9648,-3.8828,-3.8223,-3.748,0.0,-3.6191,-3.5859,0.0,0.0,-3.7715,-3.873,-4.0117,-4.0449,-4.0801,-4.2031,-4.3164,-4.4023,-4.4277,-4.5312,-4.6348,0.0,-4.7441,-4.7832,-4.8262,-4.8476,-4.8496,-4.8242,-4.8594,-4.8867,-4.8867,-4.8867,-4.8789,-4.8594,-4.875,-4.8769,-4.8594,-4.834,-4.8008,-4.7598,-4.6992,-4.6269,-4.541,-4.498,-4.4668,-4.4473,-4.3516,-4.2988,-4.2773,-4.2109,-4.1562,-4.1172,-4.1172,-4.1172,-4.1152,-4.0976,-4.0644,-4.0367,-4.0901,-4.2555,-4.4407,-4.4229,-4.5548,-4.7431,0.0,0.0,0.0,0.0,0.0,0.0,0.0,0.0,0.0,0.0,-2.1853,-2.1109,-2.1109,-2.1109,-2.1109,-2.1109,-2.1577,-2.3103,-2.5921,-2.773,-3.0688,-3.5175,-3.694,-3.6922,-3.4813,-3.4651,-3.2874,-2.9118,-2.8473,-2.819,-2.827,-2.827,-2.9409,-3.1189,-3.251,-3.4978,-3.8412,-3.9814,-4.1197,-4.2637,-4.3008,-4.2988,-4.2754,-4.2441,-4.1953,-4.1367,-4.082,-3.9863,-3.8867,-3.8965,-3.8711,-3.8457,-3.9219,-3.9101,-3.8633,-3.8457,-3.8008,-3.7578,-3.7578,0.0,0.0,-3.8105,-3.9726,-4.125,-4.1289,-4.2031,-4.293,-4.3789,-4.4805,-4.5644,-4.5957,-4.6719,-4.748,-4.8105,-4.8301,-4.8496,-4.8808,-4.875,-4.8516,-4.8086,-4.8203,-4.8379,-4.8496,-4.8711,-4.8867,-4.8867,-4.8867,-4.8867,-4.8867,-4.8555,-4.8144,-4.7598,-4.7148,-4.6465,-4.5508,-4.5078,-4.4785,-4.4648,-4.3711,-4.3183,-4.3047,-4.2187,-4.1562,-4.1172,-4.1172,-4.1172,-4.1172,-4.1035,-4.0742,-4.0445,-4.1279,-4.2805,-4.4403,-4.3825,-4.5432,-4.7782,0.0,0.0,0.0,0.0,0.0,0.0,0.0,0.0,0.0,0.0,0.0,0.0,0.0,-2.1109,-2.1109,-2.1109,-2.139,-2.2071,-2.3273,-2.6417,-2.8882,-3.0227,-3.5202,-3.6922,-3.4813,-3.4651,-3.3512,-3.1241,-2.9286,-2.8297,-2.8591,-2.8591,-2.8751,-2.9366,-3.3707,-3.5708,-3.6092,-4.1414,-4.3437,-4.3164,-4.4433,-4.4433,-4.3672,-4.3652,-4.2363,-4.0449,-3.957,-3.8711,-3.7832,-3.7031,-3.6484,-3.6191,-3.6641,-3.7051,-3.7441,-3.7832,-3.7363,-3.6719,-3.6719,0.0,-3.8848,-4.0117,-4.1719,-4.332,-4.459,-4.4902,-4.5176,-4.6035,-4.6562,-4.6875,-4.6894,-4.7598,-4.8183,-4.8203,-4.8555,-4.8848,-4.8867,-4.8496,-4.8066,-4.7656,-4.7246,-4.7148,0.0,-4.8379,-4.8867,-4.8867,-4.8867,-4.8867,-4.8867,-4.8848,-4.8457,-4.7617,-4.7148,-4.6328,-4.5058,-4.4629,-4.4199,-4.375,-4.3711,-4.3476,-4.3047,-4.2187,-4.1562,-4.1172,-4.1172,-4.1172,-4.1133,-4.0723,-4.0293,-3.9863,-3.9394,-4.1337,-4.4116,-4.4094,-4.5762,-4.7832,0.0,0.0,0.0,0.0,0.0,0.0,0.0,0.0,0.0,0.0,0.0,0.0,0.0,0.0,0.0,0.0,-2.139,-2.1977,-2.2953,-2.5015,-2.7287,-2.9709,-3.3624,-3.5578,-3.5162,-3.5015,-3.3975,-3.2065,-2.9912,-2.8791,-2.8898,-3.0409,-3.1526,-3.2208,-3.6808,-3.9137,-3.963,-4.3046,-4.4492,-4.4355,-4.4219,-4.3965,-4.3613,-4.2754,-4.1465,-3.9922,0.0,-3.7012,-3.5742,-3.5449,-3.5078,-3.4863,-3.5586,-3.5703,-3.5605,-3.5742,-3.6406,-3.7266,-3.8125,0.0,-4.0742,-4.2617,-4.3965,-4.5058,-4.6055,-4.6504,-4.6797,-4.709,-4.6816,-4.6504,-4.6504,-4.6758,-4.7031,-4.7305,-4.7969,-4.8535,-4.8808,-4.873,-4.8262,-4.7266,-4.7266,0.0,0.0,0.0,0.0,-4.8808,-4.8867,-4.8867,-4.8867,-4.8574,-4.8164,-4.7598,-4.7148,-4.6582,-4.5879,-4.5176,-4.4883,-4.5,-4.4121,-4.334,-4.2637,-4.2051,-4.1562,-4.1172,-4.1172,-4.1172,-4.1133,-4.0703,-4.043,-4.0234,-3.9492,-4.1358,-4.4403,-4.4228,-4.5762,-4.7883,0.0,0.0,0.0,0.0,0.0,0.0,0.0,0.0,0.0,0.0,0.0,0.0,0.0,0.0,0.0,0.0,0.0,-2.1724,-2.2498,-2.3634,-2.5253,-2.7647,-3.0686,-3.2835,-3.3826,-3.3826,-3.3754,-3.3449,-3.0651,-2.9409,-2.9884,-3.1505,-3.2513,-3.3195,-3.7809,-4.0223,-4.0818,-4.327,-4.4336,-4.4258,-4.3379,-4.2832,-4.2422,-4.1133,-3.9766,0.0,-3.6894,-3.5351,-3.4004,-3.3848,-3.3613,-3.3496,-3.4062,-3.4668,-3.5195,-3.5351,-3.6738,-3.8535,-3.9961,-4.1328,-4.2773,-4.4609,-4.5723,-4.6543,-4.7226,-4.7598,-4.7754,-4.7617,-4.6894,-4.6211,-4.5898,-4.5723,-4.5723,-4.5976,-4.6621,-4.7324,-4.8066,-4.791,-4.7578,-4.7207,-4.7148,-4.7031,0.0,0.0,0.0,-4.8555,-4.8633,-4.8691,-4.8848,-4.8594,-4.8164,-4.7598,-4.7305,-4.6816,-4.6094,-4.5371,-4.5,-4.4961,-4.4277,-4.3418,-4.2422,-4.2148,-4.1719,-4.1172,-4.1172,-4.1172,-4.1133,-4.0703,-4.043,-4.0234,-3.9492,-4.1358,-4.438,-4.4228,-4.5762,-4.7908,0.0,0.0,0.0,0.0,0.0,0.0,0.0,0.0,0.0,0.0,0.0,0.0,0.0,0.0,0.0,0.0,0.0,0.0,-2.1911,-2.2525,-2.3247,-2.4102,-2.6735,-2.9267,-3.1203,-3.1236,-3.247,-3.5014,-3.1136,-2.9924,-3.0987,-3.145,-3.1762,-3.2259,-3.6754,-3.8976,-3.9537,-4.1732,-4.293,-4.2871,-4.1992,-4.1152,-4.0273,-3.9004,-3.7461,-3.5879,-3.5039,-3.3906,-3.2734,-3.2344,0.0,0.0,-3.2344,-3.4082,-3.6191,-3.6699,-3.8359,-4.0391,-4.2109,-4.3516,-4.4824,-4.6094,-4.7012,-4.7715,-4.8144,-4.8223,-4.8086,-4.7637,-4.6816,-4.5898,0.0,0.0,-4.4355,-4.4394,-4.4824,-4.5586,-4.6855,-4.6348,-4.6269,0.0,0.0,0.0,0.0,0.0,0.0,-4.8144,0.0,-4.8398,-4.8828,-4.8867,-4.8476,-4.7637,-4.7598,-4.6992,-4.5742,-4.5293,-4.4609,-4.375,-4.4199,-4.3711,-4.2461,-4.2441,-4.1973,-4.1211,-4.1191,-4.1172,-4.1133,-4.0703,-4.0273,-3.9844,-3.9524,-4.1337,-4.4116,-4.4208,-4.5738,-4.7908,0.0,0.0,0.0,0.0,0.0,0.0,0.0,0.0,0.0,0.0,0.0,0.0,0.0,0.0,0.0,0.0,0.0,0.0,-2.1323,-2.2298,-2.2966,-2.3193,-2.6299,-2.8343,-2.9252,-2.9369,-3.0009,-3.0871,-2.8345,-2.7396,-2.7616,-2.9398,-2.9617,-2.8329,-3.3078,-3.5344,-3.5765,-3.7747,-3.958,-4.1074,-3.9883,-3.9258,-3.8965,-3.7988,-3.6758,-3.5527,-3.5293,-3.418,-3.2773,0.0,0.0,0.0,0.0,-3.5918,-3.7246,-3.8652,-4.0371,-4.2148,-4.3887,-4.5312,-4.6523,-4.748,-4.7891,-4.8164,-4.8594,-4.8437,-4.7988,-4.7246,-4.5644,-4.4101,0.0,0.0,0.0,-4.4297,-4.582,0.0,-4.8223,-4.8183,0.0,0.0,0.0,-4.7207,-4.7109,-4.6992,0.0,0.0,-4.8203,-4.8398,-4.8828,-4.8867,-4.8613,-4.8066,-4.7754,-4.7266,-4.6621,-4.5879,-4.5078,-4.4219,-4.4336,-4.3867,-4.2891,-4.2578,-4.2148,-4.1621,-4.1308,-4.1172,-4.1133,-4.0703,-4.0273,-3.9994,-4.0959,-4.2458,-4.4208,-4.5198,-4.652,-4.7857,0.0,0.0,0.0,0.0,0.0,0.0,0.0,0.0,0.0,0.0,0.0,0.0,0.0,0.0,0.0,0.0,0.0,0.0,0.0,-2.1724,-2.2151,-2.2285,-2.413,-2.5593,-2.6737,-2.707,-2.7906,-2.9233,-2.7405,-2.6738,-2.7171,-2.865,-2.8813,-2.7777,-3.1414,-3.3247,-3.3597,-3.5388,-3.698,0.0,0.0,-3.7187,-3.707,-3.5996,-3.5156,-3.4531,-3.4531,-3.4394,0.0,0.0,0.0,-3.6016,-3.707,-3.8281,-3.957,-4.1113,0.0,-4.418,-4.5723,-4.6797,-4.7656,-4.832,-4.8496,-4.8359,-4.7851,-4.7695,-4.7129,-4.5332,-4.3848,0.0,0.0,0.0,0.0,0.0,0.0,0.0,-4.7871,-4.7851,-4.7832,0.0,-4.7969,0.0,-4.7773,-4.7598,-4.7773,0.0,-4.832,-4.8398,-4.8828,-4.8867,-4.8652,-4.8223,-4.7969,-4.7461,-4.666,-4.6191,-4.543,-4.4394,-4.459,-4.4023,-4.2773,-4.2539,-4.209,-4.1504,0.0,-4.1172,-4.1133,-4.0703,-4.069,-4.111,-4.1794,-4.3425,-4.5388,-4.5856,-4.681,-4.7832,0.0,0.0,0.0,0.0,0.0,0.0,0.0,0.0,0.0,0.0,0.0,0.0,0.0,0.0,0.0,0.0,0.0,0.0,0.0,0.0,-2.1229,-2.1483,-2.1496,-2.2365,-2.4139,-2.4509,-2.5764,-2.8077,-2.6876,-2.6658,-2.7378,-2.7806,-2.8088,-2.8088,-3.0016,-3.1234,-3.1956,-3.3068,-3.3858,-3.4468,-3.4755,-3.4851,-3.4735,0.0,-3.3418,-3.3437,-3.3496,0.0,0.0,0.0,-3.8672,-3.8125,-3.9473,-4.0996,-4.2558,-4.3769,-4.5019,-4.6269,-4.7441,-4.8066,-4.8457,-4.8769,-4.8808,-4.834,-4.668,-4.6445,-4.5762,-4.2851,0.0,-4.1172,-3.9941,-4.0762,-4.1719,-4.2012,0.0,-4.5605,-4.6992,-4.6875,-4.7187,-4.8691,-4.8535,-4.8437,-4.8828,-4.8516,-4.8457,-4.8828,-4.8516,-4.8457,-4.8848,-4.8867,-4.8652,-4.8223,-4.8164,-4.7558,-4.6406,-4.6328,-4.5683,-4.4492,-4.4844,-4.418,-4.2598,-4.248,-4.2031,-4.1328,-4.123,0.0,-4.1152,-4.0762,-4.1314,-4.2523,-4.2559,-4.4286,-4.6751,-4.6514,-4.7066,-4.7832,0.0,0.0,0.0,0.0,0.0,0.0,0.0,0.0,0.0,0.0,-2.1109,-2.1109,0.0,0.0,0.0,0.0,0.0,0.0,0.0,0.0,0.0,-2.1189,-2.1189,-2.133,-2.1751,-2.2298,-2.2759,-2.3252,-2.346,-2.368,-2.3789,-2.3844,-2.3872,-2.4011,-2.4553,-2.579,-2.7339,-2.7416,-2.8381,-3.0038,-3.1199,-3.1616,-3.1727,-3.2969,0.0,0.0,0.0,0.0,0.0,0.0,-4.0332,-4.1308,-4.2969,-4.418,-4.5176,-4.6094,-4.7031,-4.7891,-4.8476,-4.8965,-4.9219,-4.8926,-4.8594,-4.7969,-4.6601,-4.5547,0.0,0.0,-4.0762,-3.9941,-3.8984,-3.9863,-4.1328,-4.3086,0.0,0.0,0.0,0.0,-4.8535,0.0,0.0,0.0,0.0,0.0,0.0,0.0,0.0,-4.8769,-4.8848,-4.8867,-4.8652,-4.8223,-4.7871,-4.7402,-4.6816,-4.6484,-4.584,-4.4922,-4.5,-4.4492,-4.3457,-4.2754,-4.2344,-4.2168,-4.1484,0.0,-4.1172,-4.1094,-4.1746,-4.269,-4.4199,-4.5574,-4.6884,-4.7887,-4.8133,-4.7832,0.0,0.0,0.0,0.0,0.0,0.0,0.0,-2.0588,-2.0842,-2.1283,-2.147,-2.1443,-2.1136,-2.1109,-2.1109,0.0,0.0,0.0,0.0,0.0,0.0,0.0,0.0,0.0,-2.1336,-2.1764,0.0,0.0,0.0,-2.2859,-2.2859,0.0,0.0,-2.2873,-2.302,-2.3612,-2.4545,-2.5349,-2.6283,-2.7209,-2.8757,-2.9995,-3.0918,0.0,0.0,0.0,0.0,0.0,0.0,0.0,-4.0996,-4.3125,-4.5098,-4.6308,-4.7109,-4.7754,-4.8379,-4.8945,-4.9141,-4.9531,-4.9766,-4.9316,-4.8711,-4.7637,-4.5449,0.0,0.0,0.0,-3.9492,-3.9004,-3.8359,-3.9492,0.0,0.0,0.0,0.0,0.0,0.0,0.0,0.0,0.0,0.0,0.0,0.0,0.0,0.0,0.0,-4.8867,-4.8867,-4.8867,-4.8769,-4.8555,-4.791,-4.748,-4.7266,-4.6621,-4.5879,-4.5019,-4.5019,-4.4453,-4.3359,-4.2715,-4.2305,-4.207,-4.1445,0.0,-4.279,-4.279,-4.3848,-4.5692,-4.6538,-4.7478,-4.8273,-4.8707,-4.8611,-4.8234,0.0,0.0,0.0,0.0,0.0,0.0,0.0,-2.0882,-2.1162,-2.175,-2.1977,-2.1884,-2.1349,-2.1296,-2.1243,0.0,0.0,0.0,0.0,0.0,0.0,0.0,0.0,0.0,0.0,0.0,0.0,0.0,0.0,0.0,0.0,0.0,0.0,0.0,0.0,-2.2979,-2.301,-2.4474,-2.5154,0.0,0.0,-2.8858,0.0,0.0,0.0,0.0,0.0,0.0,0.0,0.0,-4.0937,-4.3281,-4.5527,-4.7148,-4.8242,-4.8398,-4.9023,-4.9648,-4.9551,-4.9902,-5.0195,-4.9648,-4.8867,-4.7422,-4.4394,-4.2969,0.0,0.0,-3.8437,-3.834,-3.7988,-3.9121,-4.0234,0.0,0.0,0.0,0.0,0.0,0.0,0.0,0.0,0.0,0.0,0.0,0.0,0.0,0.0,0.0,-4.8867,-4.8867,-4.8808,-4.873,-4.7988,-4.7539,-4.7441,-4.668,-4.5879,-4.5019,-4.5019,-4.4336,-4.3066,-4.2617,-4.2347,-4.2367,-4.1951,0.0,0.0,-4.4677,-4.6201,-4.8396,-4.8278,-4.8926,-4.9715,-4.9163,-4.8862,-4.8661,0.0,0.0,0.0,0.0,0.0,0.0,0.0,-2.1523,-2.2084,-2.2659,-2.2525,-2.2258,-2.1937,-2.1911,-2.1697,0.0,0.0,0.0,0.0,0.0,0.0,0.0,0.0,0.0,0.0,0.0,0.0,0.0,0.0,0.0,0.0,0.0,0.0,0.0,0.0,0.0,0.0,-2.3588,0.0,0.0,0.0,0.0,0.0,0.0,0.0,0.0,0.0,0.0,0.0,0.0,0.0,-4.0684,-4.3203,-4.5937,-4.8066,-4.7324,0.0,0.0,-4.9629,-5.0117,-5.0547,-4.9726,-4.8867,-4.7422,-4.4394,0.0,0.0,-3.8516,-3.7988,-3.7969,-3.793,-3.8379,-3.9277,0.0,0.0,-4.2988,0.0,0.0,0.0,0.0,0.0,0.0,0.0,0.0,0.0,0.0,0.0,0.0,-4.8867,-4.8867,-4.8672,-4.8281,-4.7812,-4.7383,-4.6992,-4.6523,-4.5879,-4.5019,-4.5019,-4.4336,-4.3066,-4.2617,-4.31,-4.444,-4.3981,0.0,0.0,-4.6735,-4.7584,-4.9034,-4.842,-4.9169,-5.0268,-4.9715,-4.9213,-4.8761,0.0,0.0,0.0,0.0,0.0,0.0,-2.1069,-2.1162,-2.1537,-2.2472,-2.2645,-2.2579,-2.2271,-2.2405,-2.2138,-2.1189,0.0,0.0,0.0,0.0,0.0,0.0,0.0,0.0,0.0,0.0,0.0,0.0,0.0,0.0,0.0,0.0,0.0,0.0,0.0,0.0,0.0,0.0,0.0,0.0,0.0,0.0,0.0,0.0,0.0,0.0,0.0,0.0,0.0,0.0,0.0,0.0,-3.9766,-4.209,0.0,0.0,-4.7715,-4.918,-5.0058,-5.0723,-5.1094,-5.0762,-4.9043,-4.6855,-4.4629,0.0,-4.0215,-3.8633,-3.8105,-3.793,-3.793,-3.7851,-3.8105,-3.9062,-3.9355,0.0,-4.2851,0.0,0.0,0.0,0.0,0.0,0.0,0.0,0.0,0.0,0.0,0.0,-4.8867,-4.8867,-4.8652,-4.8223,-4.7793,-4.7363,-4.6933,-4.6504,-4.5879,-4.5019,-4.5019,-4.4336,-4.3066,-4.2617,-4.3238,-4.4747,-4.4285,0.0,0.0,-4.8794,-4.9652,-5.0862,-5.0321,-5.0206,-5.0343,-4.9791,-4.9464,-4.9213,0.0,0.0,0.0,0.0,0.0,-2.0909,-2.1189,-2.1136,-2.1416,-2.2418,-2.2659,-2.2645,-2.2445,-2.2458,-2.2138,-2.1309,-2.1162,0.0,0.0,0.0,0.0,0.0,0.0,0.0,0.0,0.0,0.0,-2.2298,0.0,0.0,0.0,0.0,0.0,0.0,0.0,0.0,0.0,0.0,0.0,0.0,0.0,0.0,0.0,0.0,0.0,0.0,0.0,0.0,0.0,0.0,0.0,0.0,0.0,0.0,0.0,0.0,-4.6426,-4.832,-4.9668,-5.0723,-5.1406,-5.1269,-4.916,-4.668,0.0,-4.2344,-3.998,-3.8965,-3.8418,-3.8125,-3.8125,-3.7871,-3.7773,-3.8066,-3.834,-3.918,-4.1094,-4.209,0.0,0.0,0.0,0.0,0.0,0.0,0.0,0.0,0.0,0.0,-4.8867,-4.8867,-4.8594,-4.8027,-4.7734,-4.7305,-4.6738,-4.6328,-4.5742,-4.5019,-4.4766,-4.4023,-4.2871,-4.2441,-4.3351,-4.5427,-4.5106,0.0,0.0,-5.0857,-5.1362,-5.2277,-5.1548,-5.1021,-5.0594,-4.9866,-4.959,-4.954,0.0,0.0,0.0,0.0,0.0,0.0,-2.1496,-2.179,-2.2191,-2.2779,-2.2605,-2.2418,-2.2418,-2.1911,-2.1563,-2.155,-2.1283,0.0,0.0,0.0,0.0,0.0,0.0,0.0,0.0,0.0,-2.1991,-2.1991,-2.2579,-2.2859,0.0,0.0,0.0,0.0,0.0,0.0,0.0,0.0,0.0,0.0,0.0,0.0,-2.7924,0.0,0.0,0.0,0.0,0.0,0.0,0.0,0.0,0.0,0.0,-3.791,0.0,0.0,-4.457,-4.7676,-4.8105,-4.9805,-5.1328,-5.0918,-4.918,-4.7129,-4.541,-4.3027,-4.0781,-3.9473,-3.8867,-3.8574,-3.8574,-3.8555,-3.8555,-3.8574,-3.9297,-4.0332,-4.1621,0.0,0.0,0.0,0.0,0.0,0.0,0.0,0.0,0.0,0.0,0.0,-4.8867,-4.8867,-4.8476,-4.7617,-4.7578,-4.7168,-4.6308,-4.5898,-4.5469,-4.5019,-4.4141,-4.3262,-4.2422,-4.1992,-4.3659,0.0,0.0,0.0,0.0,-5.2929,-5.2929,-5.2804,-5.1699,-5.1272,-5.1147,-5.0017,-4.959,-4.959,0.0,0.0,0.0,0.0,0.0,0.0,0.0,-2.1323,-2.1603,-2.2191,-2.2178,-2.2205,-2.2392,-2.2071,-2.1764,-2.1577,-2.1283,0.0,0.0,0.0,0.0,0.0,0.0,0.0,0.0,0.0,-2.1991,-2.1991,-2.2579,-2.2859,-2.2859,-2.2859,-2.2859,0.0,0.0,0.0,0.0,0.0,0.0,0.0,0.0,-2.6213,-2.7304,0.0,0.0,0.0,0.0,0.0,0.0,0.0,0.0,0.0,0.0,0.0,0.0,-3.8789,-4.1699,0.0,-4.5742,-4.6953,-4.7891,-4.7754,-4.6328,-4.4707,-4.3887,-4.1933,-4.0098,-3.9355,-3.8867,-3.8574,-3.8574,-3.834,-3.832,-3.8906,-3.9004,-3.9336,0.0,0.0,0.0,0.0,0.0,0.0,0.0,0.0,0.0,0.0,0.0,0.0,-4.8867,-4.8867,-4.8457,-4.7617,-4.7578,-4.7031,-4.5879,-4.5742,-4.5312,-4.459,-4.4316,-4.3555,-4.2422,-4.2285,-4.3926,0.0,0.0,0.0,0.0,-5.2929,-5.2929,-5.2829,-5.1699,-5.1272,-5.1147,-5.0017,-4.959,-4.959,0.0,0.0,0.0,0.0,0.0,0.0,0.0,-2.1109,-2.1243,-2.1603,-2.1657,-2.1764,-2.2058,-2.183,-2.163,-2.1563,-2.1283,0.0,0.0,0.0,0.0,0.0,0.0,0.0,0.0,-2.1683,-2.2044,-2.2151,-2.2859,-2.3153,-2.3046,-2.3153,-2.3086,-2.2859,-2.2859,0.0,0.0,0.0,0.0,0.0,-2.4516,-2.5235,-2.62,0.0,0.0,0.0,0.0,0.0,0.0,0.0,0.0,0.0,0.0,0.0,0.0,0.0,-3.9199,-4.1601,0.0,-4.5156,-4.6113,-4.6269,-4.5,0.0,-4.3379,-4.1543,-3.9824,-3.9531,-3.8984,-3.8574,-3.8574,-3.8223,-3.8144,-3.8848,-3.875,-3.8945,0.0,0.0,0.0,0.0,0.0,0.0,0.0,0.0,0.0,0.0,0.0,0.0,-4.8867,-4.8711,-4.8301,-4.7598,-4.7578,-4.7051,-4.5918,-4.5586,-4.5156,-4.4629,-4.4141,-4.3476,-4.2656,-4.2344,-4.4009,0.0,0.0,0.0,0.0,-5.2929,-5.2804,-5.2528,-5.1624,-5.1147,-5.0845,-4.9941,-4.959,-4.959,0.0,0.0,0.0,0.0,0.0,0.0,0.0,-2.1109,-2.1109,-2.1109,-2.1109,-2.1216,-2.1496,-2.1269,-2.1216,-2.1496,0.0,0.0,0.0,0.0,0.0,0.0,0.0,0.0,-2.1109,-2.1683,-2.2124,-2.2392,-2.33,-2.3594,-2.334,-2.3634,-2.346,-2.2899,-2.2899,-2.2886,0.0,0.0,0.0,0.0,-2.4462,-2.4569,0.0,0.0,0.0,0.0,0.0,0.0,0.0,0.0,0.0,0.0,0.0,0.0,0.0,0.0,0.0,0.0,0.0,-4.3945,-4.5312,-4.5703,-4.4609,-4.3437,-4.3437,-4.1582,0.0,-3.9844,-3.9141,-3.8535,-3.8574,-3.8184,-3.8027,-3.8496,-3.8574,-3.9023,0.0,0.0,0.0,0.0,0.0,0.0,0.0,0.0,0.0,0.0,0.0,0.0,-4.8867,-4.8437,-4.8008,-4.7598,-4.7519,-4.709,-4.623,-4.5391,-4.4961,-4.4922,-4.3672,-4.3066,-4.3008,-4.2168,-4.3885,0.0,0.0,0.0,0.0,-5.2629,-5.2466,-5.2051,-5.1498,-5.0921,-5.0343,-4.9791,-4.959,-4.959,0.0,0.0,0.0,0.0,0.0,0.0,0.0,0.0,0.0,0.0,-2.1109,-2.1136,-2.1203,-2.1149,-2.1136,0.0,0.0,0.0,0.0,0.0,0.0,0.0,0.0,0.0,-2.1109,-2.1683,-2.2017,-2.2084,-2.2993,-2.3394,-2.334,-2.3634,-2.3567,-2.322,-2.322,-2.3086,0.0,0.0,0.0,0.0,-2.3861,-2.3968,0.0,0.0,0.0,0.0,-3.0775,-3.3152,0.0,0.0,0.0,0.0,0.0,0.0,0.0,0.0,-3.6816,-3.7285,-3.873,0.0,-4.0742,-4.084,-4.084,-4.0781,0.0,-4.0059,0.0,0.0,0.0,0.0,0.0,0.0,-3.7695,-3.8457,-3.8574,-3.8926,-3.9902,0.0,0.0,0.0,0.0,0.0,0.0,0.0,0.0,0.0,0.0,-4.8867,-4.8867,-4.8437,-4.8008,-4.7598,-4.6953,-4.6191,-4.5332,-4.4805,-4.4375,-4.4004,-4.3379,-4.2891,-4.2558,-4.2031,-4.2968,0.0,0.0,0.0,-5.0717,-5.0717,-5.1264,-5.2051,-5.1498,-5.0921,-5.0343,-4.9791,-4.959,-4.959,0.0,0.0,0.0,0.0,0.0,0.0,0.0,0.0,0.0,0.0,0.0,-2.1109,-2.1109,-2.1109,0.0,0.0,0.0,0.0,0.0,0.0,0.0,0.0,0.0,-2.1109,-2.1109,-2.1683,-2.2044,-2.2178,-2.3086,-2.3527,-2.3541,-2.3834,-2.3741,-2.3313,-2.318,-2.302,0.0,0.0,0.0,-2.3354,-2.3647,0.0,0.0,0.0,0.0,0.0,-2.9715,-3.1896,0.0,-3.5181,-3.5664,-3.5937,0.0,0.0,0.0,0.0,-3.5918,-3.623,-3.6875,-3.8105,-3.9258,-3.9473,-3.9844,-4.0137,-3.9941,0.0,0.0,0.0,0.0,0.0,0.0,0.0,0.0,-3.8164,-3.8437,-3.9219,0.0,0.0,0.0,0.0,0.0,0.0,0.0,0.0,0.0,0.0,0.0,-4.8769,-4.8574,-4.8144,-4.7734,-4.7285,-4.6465,-4.5801,-4.5332,-4.4492,-4.4062,-4.4004,-4.3183,-4.2754,-4.2695,-4.209,-4.2717,0.0,0.0,0.0,-4.9961,-4.9961,-5.0676,-5.1699,-5.1398,-5.077,-5.0017,-4.9715,-4.959,-4.959,0.0,0.0,0.0,0.0,0.0,0.0,0.0,0.0,0.0,0.0,0.0,0.0,0.0,0.0,0.0,0.0,0.0,0.0,0.0,0.0,0.0,0.0,-2.1109,-2.1109,-2.1109,-2.1683,-2.2111,-2.2352,-2.3354,-2.3834,-2.3848,-2.4222,-2.4062,-2.3447,-2.314,-2.2953,0.0,0.0,0.0,-2.3273,-2.3527,0.0,0.0,0.0,0.0,0.0,0.0,0.0,0.0,-3.4241,-3.52,-3.5742,-3.5332,0.0,0.0,0.0,0.0,0.0,-3.5957,-3.7578,-3.916,-3.9434,-3.9824,-4.0019,-3.959,0.0,0.0,0.0,0.0,0.0,0.0,0.0,0.0,0.0,0.0,0.0,0.0,0.0,0.0,0.0,0.0,0.0,0.0,0.0,0.0,0.0,0.0,-4.8594,-4.8223,-4.7734,-4.7305,-4.6933,-4.6113,-4.5644,-4.5566,-4.4394,-4.3965,-4.4277,-4.3086,-4.2695,-4.2949,-4.2168,-4.2661,-4.4203,0.0,0.0,-4.9081,-4.9297,-5.0017,-5.0821,-5.1039,-5.0519,-4.959,-4.959,-4.959,-4.959,0.0,0.0,0.0,0.0,0.0,0.0,0.0,0.0,0.0,0.0,0.0,0.0,0.0,0.0,0.0,0.0,0.0,0.0,0.0,0.0,0.0,-2.1109,-2.1109,-2.1109,-2.1109,-2.1683,-2.2004,-2.2044,-2.3447,-2.4142,-2.4155,-2.4943,-2.4863,-2.4062,-2.3768,-2.334,-2.2859,0.0,0.0,-2.2939,-2.2979,0.0,0.0,0.0,0.0,0.0,0.0,0.0,0.0,-3.2089,-3.3331,-3.4824,-3.4414,0.0,0.0,0.0,0.0,0.0,-3.625,-3.7598,-3.8516,-3.7851,-3.8008,-3.8223,-3.7793,0.0,0.0,0.0,0.0,0.0,0.0,0.0,0.0,0.0,0.0,0.0,0.0,0.0,0.0,0.0,0.0,0.0,0.0,0.0,0.0,0.0,0.0,-4.8281,-4.8203,-4.7461,-4.6992,-4.6933,-4.6113,-4.5508,-4.5117,-4.457,-4.4141,-4.3808,-4.3242,-4.2812,-4.25,-4.2031,-4.1759,-4.1697,0.0,-4.2922,-4.5084,-4.629,-4.7513,-4.8916,-5.0033,-5.0167,-4.959,-4.959,-4.959,-4.959,0.0,0.0,0.0,0.0,0.0,0.0,0.0,0.0,0.0,0.0,0.0,0.0,0.0,0.0,0.0,0.0,0.0,0.0,0.0,0.0,-2.1176,-2.1336,-2.1189,-2.1109,-2.1109,-2.1844,-2.2378,-2.2712,-2.3875,-2.469,-2.5144,-2.5077,-2.4743,-2.4182,-2.3554,-2.3126,-2.2859,-2.2859,-2.2859,-2.2859,0.0,0.0,0.0,0.0,0.0,0.0,0.0,0.0,0.0,0.0,-3.3049,-3.4629,-3.4199,0.0,0.0,0.0,0.0,0.0,-3.5371,-3.6387,-3.7207,-3.7285,-3.8496,-3.9512,-3.8848,0.0,0.0,0.0,0.0,0.0,0.0,0.0,0.0,0.0,0.0,0.0,0.0,0.0,0.0,0.0,0.0,0.0,0.0,0.0,0.0,0.0,0.0,0.0,-4.7539,-4.7148,-4.6816,-4.6601,-4.5996,-4.5469,-4.5039,-4.4609,-4.4062,-4.3359,-4.2695,-4.2285,-4.207,-4.166,-4.1348,-4.1172,0.0,-4.2943,-4.5701,-4.6344,-4.7981,-4.994,-5.068,-5.0368,-4.959,-4.959,-4.959,-4.959,0.0,0.0,0.0,0.0,0.0,0.0,0.0,0.0,0.0,0.0,0.0,0.0,0.0,0.0,0.0,0.0,0.0,0.0,0.0,-2.1109,-2.1203,-2.1443,-2.1296,-2.1283,-2.1416,-2.2218,-2.2926,-2.3527,-2.4556,-2.5424,-2.6146,-2.5331,-2.4756,-2.4369,-2.3474,-2.3033,-2.2966,-2.2899,-2.2859,-2.2859,0.0,0.0,0.0,0.0,0.0,0.0,0.0,0.0,0.0,0.0,0.0,0.0,0.0,0.0,0.0,-3.3613,-3.3652,-3.4062,-3.4687,-3.5508,-3.6348,-3.7109,0.0,-4.0059,0.0,0.0,0.0,0.0,0.0,0.0,0.0,0.0,0.0,0.0,0.0,0.0,0.0,0.0,0.0,0.0,0.0,0.0,0.0,0.0,0.0,0.0,0.0,0.0,-4.6973,-4.6836,-4.6582,-4.6172,-4.584,-4.541,-4.4883,-4.4551,-4.3965,-4.3066,-4.2402,-4.1992,-4.1797,-4.1465,-4.1269,-4.1172,-4.1172,-4.3075,-4.6293,-4.6624,-4.838,-5.0687,-5.0989,-5.0469,-4.959,-4.959,-4.959,-4.959,0.0,0.0,0.0,0.0,0.0,0.0,0.0,0.0,0.0,0.0,0.0,0.0,0.0,0.0,0.0,0.0,0.0,0.0,0.0,-2.1109,-2.1122,-2.1136,-2.139,-2.1777,-2.2311,-2.2939,-2.3554,-2.4142,-2.5571,-2.644,-2.6747,-2.6146,-2.5558,-2.4983,-2.4102,-2.3554,-2.3273,-2.2979,-2.2859,-2.2859,-2.2859,0.0,0.0,0.0,0.0,0.0,0.0,0.0,0.0,0.0,0.0,0.0,0.0,0.0,-3.3496,-3.3437,-3.3437,-3.375,-3.5,-3.5976,-3.6738,-3.7187,0.0,0.0,0.0,0.0,0.0,0.0,0.0,0.0,0.0,0.0,0.0,0.0,0.0,0.0,0.0,0.0,0.0,0.0,0.0,0.0,0.0,0.0,0.0,0.0,0.0,0.0,-4.6933,-4.6562,-4.6152,-4.5742,-4.5703,-4.5273,-4.4453,-4.4414,-4.3965,-4.3086,-4.3008,-4.2558,-4.1797,-4.1777,-4.1543,-4.1172,-4.1172,-4.235,-4.4356,-4.5662,-4.7183,-4.8619,-4.9958,-5.0117,-4.959,-4.959,-4.959,-4.959,0.0,0.0,0.0,0.0,0.0,0.0,0.0,0.0,0.0,0.0,0.0,0.0,0.0,0.0,0.0,0.0,0.0,0.0,0.0,-2.1109,-2.1189,-2.1376,-2.1309,-2.163,-2.2405,-2.3367,-2.4342,-2.5291,-2.6573,-2.6987,-2.6533,-2.5772,-2.4997,-2.4235,-2.3527,-2.314,-2.3033,-2.2913,-2.2859,-2.2859,-2.2859,-2.2859,0.0,0.0,0.0,0.0,0.0,0.0,0.0,0.0,-2.8158,-3.0807,-3.0952,-3.2094,-3.3418,-3.3418,-3.3418,-3.3594,-3.4355,-3.541,-3.6367,-3.6797,0.0,0.0,0.0,0.0,0.0,0.0,0.0,0.0,0.0,0.0,0.0,0.0,0.0,0.0,0.0,0.0,0.0,0.0,0.0,0.0,0.0,0.0,0.0,0.0,0.0,0.0,-4.6172,-4.5996,-4.5723,-4.5293,-4.5019,-4.4726,-4.4394,-4.3848,-4.3281,-4.2676,-4.2676,-4.2226,-4.1406,-4.1406,-4.1328,-4.1172,-4.1172,-4.2943,-4.5998,-4.6535,-4.8213,-5.0678,-5.0481,-5.0067,-4.964,-4.9967,-5.0117,-5.0167,0.0,0.0,0.0,0.0,0.0,0.0,0.0,0.0,0.0,0.0,0.0,0.0,0.0,0.0,0.0,0.0,0.0,0.0,-2.1109,-2.1109,-2.1203,-2.1403,-2.1309,-2.1617,-2.2405,-2.3688,-2.4823,-2.5812,-2.7081,-2.7201,-2.6239,-2.5451,-2.4703,-2.4008,-2.322,-2.2966,-2.314,-2.2939,-2.2859,-2.2859,-2.2859,-2.2859,0.0,0.0,0.0,0.0,0.0,0.0,0.0,0.0,-2.6947,-2.9213,-2.9202,-3.075,-3.26,-3.2467,-3.3019,-3.3672,-3.3828,-3.4726,-3.5703,-3.6152,0.0,0.0,0.0,0.0,0.0,0.0,0.0,0.0,0.0,0.0,0.0,0.0,0.0,0.0,0.0,0.0,0.0,0.0,0.0,0.0,0.0,0.0,0.0,0.0,0.0,0.0,0.0,-4.5469,-4.5273,-4.4844,-4.4551,-4.4258,-4.3984,-4.3379,-4.2793,-4.2226,-4.2226,-4.1855,-4.1172,-4.1172,-4.1172,-4.1172,-4.1172,-4.3075,-4.6146,-4.6735,-4.8991,-5.1749,-5.0795,-5.0193,-4.9891,-5.0268,-5.0519,-5.0745,0.0,0.0,0.0,0.0,0.0,0.0,0.0,0.0,0.0,0.0,0.0,0.0,0.0,0.0,0.0,0.0,0.0,0.0,-2.1109,-2.1109,-2.1109,-2.1109,-2.139,-2.1817,-2.2392,-2.3861,-2.4917,-2.5518,-2.6974,-2.7081,-2.5932,-2.5344,-2.4917,-2.4569,-2.3394,-2.3193,-2.3728,-2.3113,-2.2859,-2.2859,-2.2859,-2.2859,-2.2859,0.0,0.0,0.0,0.0,0.0,0.0,0.0,-2.4581,-2.5577,-2.5906,-2.8178,-3.0717,-3.0302,-3.2072,-3.3984,-3.3535,-3.4043,-3.4805,-3.5273,0.0,0.0,0.0,0.0,0.0,0.0,0.0,0.0,0.0,0.0,0.0,0.0,0.0,0.0,0.0,0.0,0.0,0.0,0.0,0.0,0.0,0.0,0.0,0.0,0.0,0.0,0.0,-4.5019,-4.4824,-4.4394,-4.4375,-4.3965,-4.3086,-4.3066,-4.2637,-4.1797,-4.1797,-4.1582,-4.1172,-4.1172,-4.1172,-4.1172,-4.1172,-4.235,-4.4226,-4.6146,-4.878,-5.1222,-5.067,-5.0444,-5.0419,-5.0444,-5.0795,-5.1297,0.0,0.0,0.0,0.0,0.0,0.0,0.0,0.0,0.0,0.0,0.0,0.0,0.0,0.0,0.0,0.0,0.0,0.0,-2.1109,-2.1109,-2.1109,-2.1109,-2.1189,-2.1323,-2.1496,-2.2739,-2.4289,-2.6132,-2.656,-2.6066,-2.4716,-2.4543,-2.4075,-2.338,-2.3247,-2.3166,-2.3126,-2.2939,-2.2859,-2.2859,-2.2859,-2.2859,-2.2859,0.0,0.0,0.0,0.0,0.0,0.0,0.0,0.0,0.0,-2.5637,-2.7383,-2.9679,-3.0081,-3.1029,-3.1986,-3.244,-3.3594,0.0,0.0,0.0,0.0,0.0,0.0,0.0,0.0,0.0,0.0,0.0,0.0,0.0,0.0,0.0,0.0,0.0,0.0,0.0,0.0,0.0,0.0,0.0,0.0,0.0,0.0,0.0,0.0,0.0,-4.4277,-4.3906,-4.3476,-4.3164,-4.2891,-4.2617,-4.2324,-4.2051,-4.1797,-4.1504,-4.1289,-4.1172,-4.1172,-4.1172,-4.1172,-4.1172,-4.235,-4.4377,-4.7759,-5.0167,-5.185,-5.1674,-5.1373,-5.1071,-5.1473,-5.1724,-5.1925,0.0,0.0,0.0,0.0,0.0,0.0,0.0,0.0,0.0,0.0,0.0,0.0,0.0,0.0,0.0,0.0,0.0,0.0,0.0,-2.1109,-2.1109,-2.1109,-2.1109,-2.1269,-2.1617,-2.2432,-2.3621,-2.517,-2.5518,-2.513,-2.4035,-2.4262,-2.3968,-2.3233,-2.3661,-2.3607,-2.322,-2.322,-2.3086,-2.2859,-2.2859,-2.2859,-2.2859,0.0,0.0,0.0,0.0,0.0,0.0,0.0,0.0,0.0,-2.4266,-2.5636,-2.7483,-2.8802,-3.0001,-3.1338,-3.2758,0.0,0.0,0.0,0.0,0.0,0.0,0.0,0.0,0.0,0.0,0.0,0.0,0.0,0.0,0.0,0.0,0.0,0.0,0.0,0.0,0.0,0.0,0.0,0.0,0.0,0.0,0.0,0.0,0.0,0.0,-4.3437,-4.3086,-4.2832,-4.2558,-4.2344,-4.2187,-4.1933,-4.1719,-4.1543,-4.1289,-4.1172,-4.1172,-4.1172,-4.1172,-4.1172,-4.1172,-4.279,-4.5425,-4.7781,-5.0098,-5.2101,-5.2101,-5.19,-5.1649,-5.1975,-5.2251,-5.2477,0.0,0.0,0.0,0.0,0.0,0.0,0.0,0.0,0.0,0.0,0.0,0.0,0.0,0.0,0.0,0.0,0.0,0.0,0.0,-2.1109,-2.1109,-2.1109,-2.1109,-2.1483,-2.2285,-2.2565,-2.2873,-2.3207,-2.4115,-2.4262,-2.3701,-2.4315,-2.4302,-2.3794,-2.4356,-2.4289,-2.3768,-2.3714,-2.338,-2.2899,-2.2899,-2.2899,-2.2899,-2.2899,0.0,0.0,0.0,0.0,0.0,0.0,0.0,0.0,-2.2458,-2.3336,-2.484,-2.6858,-2.9051,-3.1283,0.0,0.0,0.0,0.0,0.0,0.0,0.0,0.0,0.0,0.0,0.0,0.0,0.0,0.0,0.0,0.0,0.0,0.0,0.0,0.0,0.0,0.0,0.0,0.0,0.0,0.0,0.0,0.0,0.0,0.0,0.0,-4.2598,-4.2363,-4.2363,-4.2324,-4.2129,-4.1758,-4.1738,-4.1543,-4.1172,-4.1172,-4.1172,-4.1172,-4.1172,-4.1172,-4.1172,-4.1172,-4.338,-4.7029,-4.7029,-4.9109,-5.2176,-5.2176,-5.2176,-5.2176,-5.2176,-5.2477,-5.2854,0.0,0.0,0.0,0.0,0.0,0.0,0.0,0.0,0.0,0.0,0.0,0.0,0.0,0.0,0.0,0.0,0.0,0.0,0.0,-2.1109,-2.1109,-2.1109,-2.1109,-2.1203,-2.139,-2.1456,-2.175,-2.2271,-2.3407,-2.3647,-2.3073,-2.3901,-2.4115,-2.3781,-2.4142,-2.4102,-2.3741,-2.326,-2.3126,-2.322,-2.322,-2.322,-2.322,-2.322,-2.3073,0.0,0.0,0.0,0.0,0.0,0.0,0.0,-2.2766,-2.316,-2.3843,-2.4859,-2.7066,-2.9492,0.0,0.0,0.0,0.0,0.0,0.0,0.0,0.0,0.0,0.0,0.0,0.0,0.0,0.0,0.0,0.0,0.0,0.0,0.0,0.0,0.0,0.0,0.0,0.0,0.0,0.0,0.0,0.0,0.0,0.0,-4.2598,-4.2168,-4.1933,-4.1933,-4.1621,-4.1406,-4.1308,-4.1308,-4.1269,0.0,-4.1172,-4.1172,-4.1172,-4.1172,-4.1172,-4.1172,-4.1172,-4.338,-4.7029,-4.7029,-4.9321,-5.2754,-5.2754,-5.2754,-5.2754,-5.2754,-5.2553,-5.2277,0.0,0.0,0.0,0.0,0.0,0.0,0.0,0.0,0.0,0.0,0.0,0.0,0.0,0.0,0.0,0.0,0.0,0.0,0.0,0.0,-2.1109,-2.1109,-2.0322,-1.9814,-1.9814,-2.0067,-2.0345,-2.0762,-2.2474,-2.3247,-2.31,-2.3848,-2.4128,-2.3995,-2.4436,-2.4302,-2.3754,-2.3434,-2.322,-2.31,-2.31,-2.31,-2.31,-2.31,-2.2913,-2.2645,-2.2645,0.0,0.0,0.0,0.0,0.0,0.0,0.0,-2.2835,-2.432,-2.5666,-2.7455,0.0,0.0,0.0,0.0,0.0,0.0,0.0,0.0,0.0,0.0,0.0,0.0,0.0,0.0,0.0,0.0,0.0,0.0,0.0,0.0,0.0,0.0,0.0,0.0,0.0,0.0,0.0,0.0,0.0,-4.2363,-4.2129,-4.1719,-4.1504,-4.1504,-4.1289,-4.1172,-4.1172,-4.1172,-4.1172,-4.1172,-4.1172,-4.1172,-4.1172,-4.1172,-4.1172,-4.1172,-4.0957,-4.3174,-4.7029,-4.6782,-4.9179,-5.2929,-5.2929,-5.2929,-5.2929,-5.2929,-5.2754,-5.2452,0.0,0.0,0.0,0.0,0.0,0.0,0.0,0.0,0.0,0.0,0.0,0.0,0.0,0.0,0.0,0.0,0.0,0.0,0.0,0.0,0.0,-2.1109,-1.9419,-1.8512,-1.8512,-1.8889,-1.9149,-1.9409,-2.1739,-2.3046,-2.342,-2.4008,-2.4249,-2.4222,-2.4716,-2.4502,-2.3768,-2.3661,-2.3354,-2.2939,-2.2939,-2.2939,-2.2939,-2.2939,-2.2726,-2.2418,-2.2418,-2.2392,-2.2352,-2.2405,0.0,0.0,0.0,0.0,-2.21,-2.4072,-2.471,-2.5689,0.0,0.0,0.0,0.0,0.0,0.0,0.0,0.0,0.0,0.0,0.0,0.0,0.0,0.0,0.0,0.0,0.0,0.0,0.0,0.0,0.0,0.0,0.0,0.0,0.0,0.0,0.0,0.0,0.0,-4.1758,-4.1699,-4.1367,-4.1172,-4.1172,-4.1172,-4.1172,-4.1172,-4.1172,-4.1172,-4.1172,-4.1172,-4.1172,-4.1172,-4.1094,-4.1055,-4.1035,-4.0971,-4.3185,-4.6872,-4.6902,-4.9227,-5.2929,-5.2929,-5.2929,-5.2929,-5.2829,-5.2729,-5.2578,0.0,0.0,0.0,0.0,0.0,0.0,0.0,0.0,0.0,0.0,0.0,0.0,0.0,0.0,0.0,0.0,0.0,0.0,-2.1109,0.0,0.0,-2.1109,-1.9419,-1.8512,-1.8512,-1.8889,-1.9149,-1.9409,-2.1739,-2.3153,-2.3728,-2.4302,-2.4449,-2.4209,-2.4289,-2.4115,-2.3741,-2.3207,-2.3086,-2.326,-2.326,-2.326,-2.326,-2.326,-2.2913,-2.2418,-2.2418,-2.2258,-2.2084,-2.2338,-2.2418,0.0,0.0,0.0,-2.2028,-2.21,-2.3336,-2.51,0.0,0.0,0.0,0.0,0.0,0.0,0.0,0.0,0.0,0.0,0.0,0.0,0.0,0.0,0.0,0.0,0.0,0.0,0.0,0.0,0.0,0.0,0.0,0.0,0.0,0.0,0.0,0.0,-4.1836,-4.1641,-4.1269,-4.1211,-4.1172,-4.1172,-4.1172,-4.1172,-4.1172,-4.1172,-4.1172,-4.1172,-4.1172,-4.1172,-4.1172,-4.0781,-4.0605,-4.0759,-4.2269,-4.4313,-4.6546,-4.805,-5.0374,-5.2929,-5.2929,-5.2929,-5.2879,-5.2402,-5.1925,-5.1423,0.0,0.0,0.0,0.0,0.0,0.0,0.0,0.0,0.0,0.0,0.0,0.0,0.0,0.0,0.0,-2.1109,-2.1109,-2.1109,-2.1109,-2.1109,-2.1109,-2.1109,-1.8512,-1.7076,-1.7076,-1.7577,-1.7817,-1.7927,-2.1483,-2.3434,0.0,-2.4436,-2.4569,-2.4436,-2.4102,-2.3888,-2.3728,-2.3126,-2.2939,-2.3073,-2.3073,-2.2966,-2.2832,-2.3006,-2.2592,-2.1951,-2.2124,-2.1991,-2.1764,-2.1897,-2.2044,-2.2151,-2.1991,0.0,0.0,0.0,0.0,0.0,0.0,0.0,0.0,0.0,0.0,0.0,0.0,0.0,0.0,0.0,0.0,0.0,0.0,0.0,0.0,0.0,0.0,0.0,0.0,0.0,0.0,0.0,0.0,0.0,0.0,0.0,0.0,0.0,-4.1445,-4.1367,-4.1191,-4.1172,-4.1172,-4.1172,-4.1172,-4.1172,-4.1172,-4.1172,-4.1172,-4.1172,-4.1172,-4.1172,-4.1152,-4.0723,-4.0527,-4.0488,-4.0843,-4.292,-4.6051,-4.6859,-4.9336,-5.2503,-5.2804,-5.2929,-5.2854,-5.2302,-5.195,-5.1624,0.0,0.0,0.0,0.0,0.0,0.0,0.0,0.0,0.0,0.0,0.0,0.0,0.0,0.0,0.0,0.0,-2.1109,-2.1109,-2.1109,-2.1109,-2.1109,-2.1109,-1.7731,-1.5913,-1.5913,-1.6032,-1.6251,-1.684,-2.0695,0.0,-2.4209,-2.4583,-2.4823,0.0,-2.4289,-2.3955,-2.3848,-2.3233,-2.302,-2.3073,-2.2846,-2.2619,-2.2432,-2.2579,-2.2191,-2.1577,-2.1804,0.0,0.0,0.0,0.0,0.0,0.0,0.0,0.0,0.0,0.0,0.0,0.0,0.0,0.0,0.0,0.0,0.0,0.0,0.0,0.0,0.0,0.0,0.0,0.0,0.0,0.0,0.0,0.0,0.0,0.0,0.0,0.0,0.0,0.0,0.0,0.0,0.0,0.0,0.0,-4.1172,-4.1172,-4.1172,-4.1172,-4.1172,-4.1172,-4.1172,-4.1172,-4.1172,-4.1172,-4.1172,-4.1172,-4.1172,-4.1172,-4.1152,-4.0723,-4.0469,-4.0312,-3.9959,-4.1939,-4.5393,-4.5934,-4.8511,-5.195,-5.2352,-5.2503,-5.2452,-5.1875,-5.1674,-5.1523,0.0,0.0,0.0,0.0,0.0,0.0,0.0,0.0,0.0,0.0,0.0,0.0,-2.1109,-2.1109,-2.1109,-2.1109,-2.1109,-2.1109,-2.1109,-2.1109,-2.1109,-2.1109,-1.7731,0.0,-1.5913,-1.4572,-1.4898,-1.684,-1.9255,0.0,-2.4209,-2.4783,-2.5358,-2.5852,-2.4983,-2.4436,-2.4142,0.0,0.0,0.0,-2.2792,-2.2432,-2.2392,-2.2124,0.0,0.0,0.0,0.0,0.0,0.0,0.0,0.0,0.0,0.0,0.0,0.0,0.0,0.0,0.0,0.0,0.0,0.0,0.0,0.0,0.0,0.0,0.0,0.0,0.0,0.0,0.0,0.0,0.0,0.0,0.0,0.0,0.0,0.0,0.0,0.0,0.0,0.0,0.0,0.0,0.0,0.0,-4.1172,-4.1172,-4.1172,-4.1172,-4.1172,-4.1172,-4.1172,-4.1172,-4.1172,-4.1172,-4.1172,-4.1172,-4.1172,-4.1172,-4.1152,-4.0723,-4.0312,-4.0053,-4.1273,-4.3021,-4.5017,-4.6814,-4.912,-5.1322,-5.1348,-5.1373,-5.1297,-5.072,-5.0494,-5.0419,0.0,0.0,0.0,0.0,0.0,0.0,0.0,0.0,0.0,0.0,0.0,0.0,0.0,-2.1109,-2.1109,-2.1109,-2.1109,-2.1109,-2.1109,-2.1109,-2.1109,-2.1109,-1.7731,-1.5913,-1.5913,-1.4563,-1.4754,-1.684,-1.8936,-2.1331,-2.3928,-2.4329,-2.473,-2.5104,-2.4983,-2.4756,-2.4436,-2.3661,0.0,0.0,0.0,0.0,-2.2124,0.0,0.0,0.0,0.0,0.0,0.0,0.0,0.0,0.0,0.0,0.0,0.0,0.0,0.0,0.0,0.0,0.0,0.0,0.0,0.0,0.0,0.0,0.0,0.0,0.0,0.0,0.0,0.0,0.0,0.0,0.0,0.0,0.0,0.0,0.0,0.0,0.0,0.0,0.0,0.0,0.0,0.0,0.0,0.0,-4.1172,-4.1172,-4.1172,-4.1172,-4.1172,-4.1172,-4.1172,-4.1172,-4.1172,-4.1172,-4.1172,-4.1172,-4.1172,-4.1152,-4.0449,-4.0039,-3.9994,-4.109,-4.2569,-4.4546,-4.6787,-4.8853,-5.077,-5.1147,-5.1272,-5.1222,-5.0619,-5.0419,-5.0343,0.0,0.0,0.0,0.0,0.0,0.0,0.0,0.0,0.0,0.0,0.0,0.0,0.0,0.0,-2.0195,-2.0195,-2.0195,-2.0462,-2.1109,-2.1109,-2.1109,-2.1109,-1.7731,-1.5913,-1.5913,-1.3839,-1.3763,-1.5905,-1.713,-1.9277,-2.1869,-2.2866,-2.3503,-2.3864,-2.4578,-2.4823,0.0,0.0,0.0,-2.3113,0.0,0.0,-2.2111,0.0,0.0,0.0,0.0,0.0,0.0,0.0,0.0,0.0,0.0,0.0,0.0,0.0,0.0,0.0,0.0,0.0,0.0,0.0,0.0,0.0,0.0,0.0,0.0,0.0,0.0,0.0,0.0,0.0,0.0,0.0,0.0,0.0,0.0,0.0,0.0,0.0,0.0,0.0,0.0,0.0,0.0,0.0,0.0,0.0,-4.1172,-4.1172,-4.1172,-4.1172,-4.1172,-4.1172,-4.1172,-4.1172,-4.1172,-4.1172,-4.1172,-4.1094,-4.0937,-4.0508,-4.0361,-4.0632,-4.1997,-4.3154,-4.4276,-4.6505,-4.8464,-5.0167,-5.0569,-5.072,-5.067,-5.0293,-5.0142,-5.0092,0.0,0.0,0.0,0.0,0.0,0.0,0.0,0.0,0.0,-2.0843,0.0,0.0,0.0,0.0,0.0,-1.8652,-1.864,-1.9291,-2.0982,-2.1109,-2.1109,-2.1109,-1.7859,-1.5913,-1.5913,-1.2545,-1.1792,-1.4019,-1.4019,-1.5375,-1.8186,-2.0331,-2.1597,-2.2373,-2.3825,-2.4462,-2.4583,0.0,-2.4008,-2.3647,0.0,-2.2164,-2.2352,0.0,0.0,0.0,-2.1991,-2.1991,0.0,0.0,0.0,0.0,0.0,0.0,0.0,0.0,0.0,0.0,0.0,0.0,0.0,0.0,0.0,0.0,0.0,0.0,0.0,0.0,0.0,0.0,0.0,0.0,0.0,0.0,0.0,0.0,0.0,0.0,0.0,0.0,0.0,0.0,0.0,0.0,0.0,0.0,-4.1172,-4.1172,-4.1172,-4.1172,-4.1172,-4.1172,-4.1172,-4.1172,-4.1172,-4.1172,-4.1172,-4.1172,-4.1172,-4.0937,-4.0527,-4.0937,-4.1434,-4.2204,-4.4332,-4.485,-4.439,-4.613,-4.7929,-4.959,-4.959,-4.959,-4.959,-4.9615,-4.9615,-4.959,0.0,0.0,0.0,0.0,0.0,0.0,-1.3744,-1.5524,-1.7216,0.0,0.0,0.0,-1.8771,-1.8664,-1.9184,-2.0631,-2.0579,-2.0589,-2.1109,-2.1109,-2.1109,-2.1109,-1.9024,-1.7205,-1.5913,-1.3709,-1.3111,-1.4019,-1.4019,-1.5229,-1.744,-1.838,-1.957,-2.1018,-2.1922,-2.2746,-2.3688,-2.3607,0.0,0.0,-2.2525,-2.2352,0.0,0.0,0.0,0.0,0.0,-2.2124,0.0,0.0,-2.2004,-2.2084,0.0,0.0,0.0,0.0,0.0,0.0,-2.1109,0.0,0.0,0.0,0.0,0.0,0.0,0.0,0.0,0.0,0.0,0.0,0.0,0.0,0.0,0.0,0.0,0.0,0.0,0.0,0.0,0.0,0.0,0.0,0.0,0.0,0.0,0.0,-4.1172,-4.1172,-4.1172,-4.1172,-4.1172,-4.1172,-4.1172,-4.1172,-4.1172,-4.1172,-4.1172,-4.1172,-4.0859,-4.0644,-4.0508,-3.998,-4.0552,-4.2018,-4.3771,-4.5028,-4.613,-4.806,-4.9177,-4.959,-4.959,-4.959,-4.964,-5.0042,-4.9941,-4.9665,0.0,0.0,0.0,0.0,0.0,-1.1696,-1.3327,-1.4343,-1.5893,0.0,0.0,0.0,-1.9029,-1.7631,-1.7445,-1.9292,-1.8499,-1.8231,-1.8908,-1.9658,-1.9799,-1.8896,-1.864,-1.7731,-1.5913,-1.4232,-1.3502,-1.3883,-1.3207,-1.3522,-1.4867,-1.668,-1.8007,-1.916,-2.1172,-2.2435,0.0,0.0,0.0,0.0,-2.2539,0.0,0.0,-2.2285,-2.2245,0.0,0.0,0.0,-2.2726,-2.2311,-2.2124,0.0,0.0,0.0,0.0,0.0,0.0,0.0,0.0,0.0,0.0,0.0,0.0,0.0,-2.4142,-2.5375,0.0,0.0,0.0,0.0,0.0,0.0,0.0,0.0,0.0,0.0,0.0,0.0,0.0,0.0,0.0,0.0,0.0,-4.1172,-4.1172,-4.1172,-4.1172,-4.1172,-4.1172,-4.0996,-4.0976,-4.1172,-4.0996,-4.0898,-4.0898,-4.0898,-4.082,-4.0644,-4.0391,-4.0156,-3.9961,-4.0484,-4.14,-4.3002,-4.4729,-4.65,-4.806,-4.9177,-4.959,-4.959,-4.959,-4.959,-4.964,-4.9967,-5.0017,-4.9992,0.0,0.0,-1.1728,-1.1463,-1.1531,-1.2087,-1.3303,-1.3651,-1.4928,0.0,-1.8588,-1.88,-1.9154,-1.6171,-1.4727,-1.6318,-1.4842,-1.4476,-1.5834,-1.7456,-1.7729,-1.6312,-1.7731,-1.7731,-1.6172,-1.4623,-1.3892,-1.3712,-1.2239,-1.1587,-1.1592,-1.5274,-1.6967,-1.7398,-2.1032,0.0,0.0,0.0,0.0,-2.2846,-2.2579,-2.2619,0.0,0.0,-2.2632,0.0,-2.2859,-2.302,-2.314,-2.2605,-2.2058,0.0,0.0,0.0,0.0,0.0,-2.1136,0.0,0.0,0.0,0.0,0.0,0.0,0.0,-2.4516,-2.4289,-2.4075,0.0,0.0,0.0,0.0,0.0,0.0,0.0,0.0,0.0,0.0,0.0,0.0,0.0,0.0,0.0,-4.1172,-4.1172,-4.1172,-4.1172,-4.1172,-4.1172,-4.1172,-4.0762,-4.0703,-4.1094,-4.0684,-4.0449,-4.0449,-4.0449,-4.0273,-3.9902,-3.9844,-3.9609,-3.9219,-4.1249,-4.2821,-4.4276,-4.6238,-4.8125,-4.959,-4.959,-4.959,-4.959,-4.959,-4.959,-4.9615,-4.9665,-4.9992,-5.0419,0.0,0.0,-1.164,-1.1586,-1.1599,-1.1743,-1.1959,-1.3091,-1.4224,-1.4871,-1.6236,-1.7203,-1.7244,-1.6656,-1.6363,-1.6636,-1.6205,-1.5883,-1.6074,-1.6359,-1.7075,-1.7999,-1.8372,-1.8372,-1.7988,-1.7602,-1.6175,-1.352,-1.3399,-1.2627,-1.1436,-1.3807,-1.5698,-1.7248,-1.9634,0.0,0.0,0.0,0.0,-2.2859,-2.2806,0.0,-2.2859,-2.2806,-2.2806,-2.2859,-2.2859,-2.2752,-2.2579,0.0,-2.2191,-2.1937,0.0,0.0,0.0,0.0,0.0,0.0,0.0,0.0,0.0,0.0,0.0,0.0,-2.2485,-2.2311,-2.2365,0.0,0.0,0.0,0.0,0.0,0.0,0.0,0.0,0.0,0.0,0.0,0.0,0.0,0.0,0.0,-4.1172,-4.1172,-4.1172,-4.1172,-4.1172,-4.1172,-4.1172,-4.0762,-4.0566,-4.0644,-4.0234,-4.0019,-4.0019,-4.0019,-3.998,-3.9883,-3.9512,-3.9297,-3.9199,-3.9366,-4.1108,-4.4116,-4.4618,-4.6674,-4.959,-4.959,-4.959,-4.959,-4.959,-4.959,-4.964,-5.0092,-5.0318,-5.0494,0.0,-1.1674,-1.1728,-1.1728,-1.185,-1.1932,-1.185,-1.3421,-1.4499,-1.4173,-1.5747,-1.6937,-1.6937,-1.6144,-1.5524,-1.5524,-1.4475,-1.3763,-1.3486,-1.4352,-1.4806,-1.4633,-1.7076,-1.8116,-1.7205,-1.7216,-1.6416,-1.4796,-1.3165,-1.1942,-1.128,-1.3372,-1.4798,-1.569,-1.8688,-2.0545,0.0,0.0,-2.31,-2.3086,-2.2926,0.0,-2.3073,-2.2926,-2.2953,-2.3073,-2.2926,-2.2766,-2.2659,-2.2819,-2.2672,0.0,0.0,-2.2111,-2.1764,0.0,-2.1657,-2.155,0.0,0.0,0.0,-2.1737,0.0,0.0,0.0,-2.1977,-2.2071,-2.3113,0.0,0.0,0.0,0.0,0.0,0.0,0.0,0.0,0.0,0.0,0.0,0.0,0.0,0.0,-4.1172,-4.1172,-4.1172,-4.1172,-4.1172,-4.1074,-4.0859,-4.0449,-4.0215,-4.0215,-3.9785,-3.9551,-3.9551,-3.9551,-3.9453,-3.9238,-3.9004,-3.8887,-3.8887,-3.965,-4.0921,-4.2849,-4.4641,-4.6556,-4.8347,-4.9177,-4.959,-4.959,-4.959,-4.959,-4.9665,-5.0218,-5.0594,-5.0921,0.0,-1.1708,-1.1796,-1.1823,-1.206,-1.2216,-1.2121,-1.3522,-1.4497,-1.3986,-1.5373,-1.6394,-1.6131,-1.4964,-1.4039,-1.3693,-1.2226,-1.1274,-1.109,-1.246,-1.2624,-1.1297,-1.5294,-1.6947,-1.5913,-1.5913,-1.5744,-1.5526,-1.2791,-1.1274,-1.1124,-1.3189,-1.4173,-1.4216,-1.8215,-1.9977,0.0,0.0,0.0,-2.33,0.0,-2.31,-2.33,-2.3046,-2.3073,-2.3193,-2.2886,-2.2819,-2.2886,-2.3086,0.0,-2.2832,-2.2645,-2.2512,0.0,0.0,0.0,0.0,0.0,0.0,0.0,0.0,0.0,-2.1897,0.0,0.0,0.0,-2.2779,0.0,0.0,0.0,0.0,0.0,0.0,0.0,0.0,0.0,0.0,0.0,0.0,0.0,0.0,0.0,-4.0976,-4.0996,-4.1172,-4.1016,-4.084,-4.0664,-4.0176,-3.9902,-3.9902,-3.9375,-3.9082,-3.9082,-3.9082,-3.8867,-3.8457,-3.8457,-3.8457,-3.8437,-3.9963,-4.0838,-4.1467,-4.4891,-4.6532,-4.6955,-4.8893,-4.959,-4.959,-4.959,-4.959,-4.9665,-5.0218,-5.077,-5.1373,-1.1619,-1.1633,-1.1681,-1.1809,-1.1972,-1.2128,-1.2244,-1.2313,-1.2275,-1.1969,-1.3603,-1.4014,0.0,0.0,0.0,0.0,0.0,0.0,-1.1525,0.0,-1.1752,-1.3177,-1.3673,-1.4493,-1.5913,-1.5913,-1.5154,-1.3613,-1.3394,-1.2419,-1.0975,-1.3022,-1.4122,-1.4388,-1.7944,0.0,0.0,0.0,-2.3073,0.0,-2.3287,-2.33,0.0,-2.3287,-2.3126,-2.2873,-2.2579,-2.2632,-2.2832,0.0,-2.2672,-2.2899,0.0,-2.2859,0.0,0.0,0.0,0.0,0.0,0.0,0.0,0.0,-2.2539,0.0,0.0,0.0,-2.1871,-2.1443,0.0,0.0,0.0,0.0,0.0,0.0,0.0,0.0,0.0,0.0,0.0,0.0,0.0,0.0,0.0,-4.0254,-4.0351,-4.1113,-4.0469,-4.0351,-4.1055,-4.0332,-3.9902,-3.9902,-3.9082,-3.8652,-3.8652,-3.8652,-3.8418,-3.7988,-3.7988,-3.7988,-3.8008,-3.8132,-3.9434,-4.1467,-4.3542,-4.5321,-4.6955,-4.8893,-4.959,-4.959,-4.959,-4.959,-4.9665,-5.0218,-5.077,-5.1373,-1.1504,-1.1626,0.0,-1.1714,-1.1904,-1.2115,-1.2271,-1.2305,-1.2684,-1.3637,-1.3466,-1.2882,0.0,0.0,0.0,0.0,0.0,0.0,0.0,0.0,-1.1434,-1.2157,-1.3979,-1.48,-1.4536,-1.5463,-1.5005,-1.3325,-1.2359,-1.1473,-1.0819,-1.1774,-1.2285,-1.249,-1.6294,0.0,-1.8473,0.0,0.0,0.0,0.0,0.0,0.0,-2.3394,-2.3247,-2.3113,-2.2993,-2.3033,-2.3086,0.0,-2.3113,0.0,0.0,0.0,0.0,0.0,0.0,0.0,0.0,0.0,0.0,0.0,0.0,0.0,0.0,0.0,-2.1617,0.0,0.0,0.0,0.0,0.0,0.0,0.0,-2.5128,0.0,0.0,0.0,0.0,0.0,0.0,0.0,0.0,0.0,0.0,0.0,-3.9687,-3.9551,-3.9668,-3.9551,-3.9258,-3.8769,-3.8633,-3.834,-3.7832,-3.8086,-3.7988,-3.7559,-3.7559,-3.7695,-3.793,-3.793,-3.8576,-3.9962,-4.287,-4.4505,-4.5457,-4.8347,-4.959,-4.9615,-4.9941,-5.0067,-5.0142,-5.072,-5.1272,-5.185,-1.1409,0.0,0.0,0.0,-1.1769,-1.1993,-1.2142,-1.225,-1.2726,0.0,0.0,0.0,-1.2332,-1.2311,0.0,0.0,0.0,-1.1925,0.0,0.0,-1.1307,0.0,0.0,0.0,0.0,-1.4095,-1.4155,-1.3325,-1.1505,-1.0717,-1.0724,-1.0833,-1.0928,-1.1145,0.0,-1.6147,-1.6619,0.0,0.0,-2.2756,-2.3851,-2.4075,-2.3861,-2.3567,-2.3394,-2.3327,-2.3327,-2.3273,-2.318,-2.3033,-2.3474,0.0,-2.3313,0.0,0.0,0.0,0.0,0.0,-2.2926,0.0,0.0,0.0,0.0,0.0,0.0,0.0,0.0,0.0,0.0,0.0,0.0,0.0,0.0,0.0,0.0,-2.4849,0.0,0.0,0.0,0.0,0.0,0.0,0.0,0.0,0.0,0.0,0.0,-3.8574,-3.875,-3.8926,-3.8789,-3.8281,-3.8476,-3.8223,-3.748,-3.7773,-3.7656,-3.7129,-3.7129,-3.7344,-3.7754,-3.7754,-3.8047,-3.872,-4.189,-4.3542,-4.439,-4.7533,-4.9252,-4.9866,-5.0268,-5.0594,-5.0921,-5.1348,-5.1749,-5.2176,-1.1396,-1.1396,0.0,0.0,0.0,-1.1681,-1.1823,-1.185,0.0,0.0,0.0,0.0,0.0,0.0,0.0,0.0,0.0,-1.2054,-1.204,0.0,-1.126,0.0,0.0,0.0,0.0,0.0,-1.1792,-1.3325,-1.1505,-1.0717,-1.0717,-1.0724,-1.088,-1.1289,-1.2895,-1.3925,-1.4716,-1.891,-2.0734,-2.1126,-2.3339,-2.4195,-2.4155,0.0,-2.3581,-2.3327,-2.3327,0.0,0.0,-2.3207,-2.3527,0.0,0.0,0.0,0.0,0.0,0.0,0.0,0.0,0.0,0.0,-2.2939,0.0,0.0,0.0,0.0,-2.2579,0.0,0.0,0.0,0.0,0.0,0.0,-2.1977,0.0,0.0,0.0,0.0,0.0,0.0,0.0,0.0,0.0,0.0,0.0,0.0,0.0,0.0,-3.9082,-3.8809,-3.8769,-3.9141,-3.8789,-3.8359,-3.791,-3.791,-3.75,-3.6699,-3.6699,-3.6914,-3.7324,-3.7324,-3.7773,-3.872,-4.0657,-4.2452,-4.4253,-4.613,-4.822,-5.0393,-5.0419,-5.1071,-5.2051,-5.2076,-5.2101,-5.2176,0.0,0.0,0.0,0.0,0.0,0.0,0.0,-1.1986,0.0,0.0,0.0,0.0,0.0,0.0,-1.3193,0.0,0.0,-1.2671,-1.2372,-1.3446,0.0,0.0,0.0,-1.4207,0.0,0.0,0.0,-1.163,-1.0982,-1.0717,-1.0717,-1.0717,-1.0826,-1.1023,0.0,-1.3959,0.0,0.0,0.0,0.0,0.0,-2.4315,-2.4476,0.0,0.0,-2.3915,-2.3915,-2.3834,0.0,-2.3647,-2.3821,-2.4022,-2.3834,-2.3768,-2.3714,-2.342,-2.3247,0.0,0.0,0.0,-2.35,-2.2993,0.0,0.0,0.0,0.0,0.0,0.0,0.0,0.0,0.0,0.0,-2.1991,-2.1991,-2.1817,0.0,0.0,0.0,0.0,0.0,0.0,0.0,0.0,0.0,0.0,0.0,0.0,0.0,0.0,-3.7246,-3.7383,-3.7519,-3.793,-3.7949,-3.7519,-3.7793,-3.75,-3.668,-3.6953,-3.7168,-3.7305,-3.7598,-3.8027,-3.872,-4.0494,-4.1608,-4.2452,-4.5963,-4.7868,-4.8804,-5.0821,-5.1774,-5.2101,-5.2101,-5.2327,-5.2678,-1.1457,0.0,0.0,0.0,0.0,0.0,0.0,0.0,0.0,0.0,-1.2915,0.0,-1.3722,0.0,-1.3688,0.0,-1.3498,-1.3173,-1.2617,-1.3759,0.0,-1.1775,-1.4058,0.0,0.0,0.0,0.0,0.0,0.0,-1.143,-1.0717,-1.0717,-1.0806,-1.0955,0.0,0.0,0.0,0.0,-1.8693,0.0,0.0,-2.3862,0.0,0.0,-2.4516,-2.4342,0.0,-2.4142,-2.4035,-2.3955,-2.4048,-2.4168,-2.3981,-2.3928,-2.3861,-2.3567,-2.3487,-2.342,-2.3113,-2.3313,0.0,-2.2993,-2.31,0.0,-2.2191,0.0,0.0,0.0,0.0,0.0,0.0,0.0,0.0,-2.2151,-2.1897,-2.163,0.0,-2.223,0.0,0.0,0.0,0.0,0.0,0.0,0.0,0.0,0.0,0.0,0.0,0.0,-3.6504,-3.666,-3.7344,-3.7578,-3.7305,-3.7559,-3.7422,-3.6894,-3.7168,-3.7383,-3.7539,-3.7793,-3.8242,-3.8935,-3.9878,-4.1147,-4.271,-4.553,-4.759,-4.912,-5.132,-5.2226,-5.2402,-5.2402,-5.2628,-5.2929,0.0,0.0,0.0,0.0,-1.164,0.0,0.0,0.0,-1.2617,0.0,-1.3112,-1.3431,-1.4021,-1.3953,-1.3919,-1.4068,-1.3939,0.0,-1.2834,-1.3068,0.0,0.0,-1.2234,-1.2816,-1.3804,-1.4077,0.0,0.0,0.0,0.0,-1.0864,-1.0724,-1.0799,-1.0941,-1.1097,0.0,-1.155,-1.4019,-1.5138,-1.5624,-1.9883,-2.2806,-2.4502,-2.4636,-2.4649,-2.4623,-2.4329,-2.4048,-2.3861,-2.4128,-2.4209,-2.4209,-2.4222,-2.4209,-2.4128,-2.3875,-2.3781,-2.3701,-2.3407,-2.334,-2.3273,-2.2939,0.0,0.0,0.0,0.0,-2.3527,0.0,0.0,0.0,0.0,0.0,0.0,-2.2445,-2.2151,-2.1764,0.0,0.0,0.0,0.0,0.0,0.0,0.0,0.0,0.0,0.0,0.0,0.0,0.0,0.0,-3.6133,-3.6601,-3.7031,-3.7285,-3.7324,-3.7324,-3.7324,-3.7324,-3.7344,-3.7559,-3.793,-3.7949,-3.8418,-3.918,-3.8916,-4.0946,-4.4575,-4.504,-4.7577,-5.1239,-5.1925,-5.2477,-5.2929,-5.2929,-5.2929,-5.2929,-1.187,-1.1864,-1.1891,0.0,-1.1674,-1.1653,0.0,0.0,0.0,0.0,-1.3512,-1.3817,-1.4197,-1.4204,-1.4197,-1.4238,-1.4102,0.0,0.0,0.0,0.0,-1.509,-1.6402,-1.6359,-1.4992,-1.4474,0.0,-1.3933,0.0,0.0,-1.3003,-1.143,-1.0744,-1.0792,0.0,0.0,-1.1386,-1.3834,-1.5958,-1.7714,-2.0354,-2.1989,0.0,0.0,-2.477,-2.493,-2.4636,-2.4476,-2.4422,-2.4502,-2.4382,-2.4235,-2.4449,-2.4222,-2.3915,-2.4048,-2.3941,-2.3701,-2.3407,-2.3487,-2.3527,-2.2993,-2.31,-2.3207,0.0,0.0,0.0,0.0,0.0,0.0,0.0,0.0,0.0,0.0,-2.1857,0.0,0.0,0.0,0.0,0.0,0.0,0.0,0.0,0.0,0.0,0.0,0.0,0.0,0.0,0.0,0.0,-3.5703,-3.6445,-3.7129,-3.7754,-3.7773,-3.7773,-3.7773,-3.8086,-3.8144,-3.793,-3.8262,-3.8691,-3.9347,-4.0654,-4.1979,-4.3558,-4.6767,-4.8867,-5.0052,-5.1905,-5.2804,-5.2929,-5.2929,-5.2929,-5.2929,-1.2074,0.0,0.0,-1.2244,0.0,0.0,-1.2433,0.0,0.0,-1.3342,-1.3654,0.0,-1.4082,-1.4217,-1.4299,-1.4299,-1.4224,0.0,0.0,0.0,0.0,-1.625,-1.718,-1.7388,-1.6739,-1.6183,0.0,-1.5394,0.0,0.0,-1.3477,-1.1541,-1.0717,-1.0731,0.0,-1.1165,0.0,-1.2919,-1.4922,-1.7038,-1.8229,0.0,0.0,-2.257,-2.3366,-2.3642,-2.4393,-2.4636,-2.4636,-2.4636,-2.4529,-2.4422,-2.4583,-2.4409,-2.4182,-2.4342,-2.4182,-2.3901,-2.3594,-2.3647,-2.3661,-2.318,-2.3394,-2.3594,-2.3166,-2.3527,-2.3875,0.0,0.0,0.0,0.0,0.0,0.0,0.0,0.0,0.0,0.0,0.0,0.0,0.0,0.0,0.0,0.0,0.0,0.0,0.0,0.0,0.0,0.0,0.0,0.0,-3.5078,-3.6289,-3.7266,-3.791,-3.8105,-3.8203,-3.8223,-3.8457,-3.8535,-3.8496,-3.873,-3.9082,-3.9492,-4.066,-4.221,-4.4185,-4.6968,-4.9036,-5.0685,-5.2266,-5.2929,-5.2929,-5.2929,-5.2929,-5.2929,0.0,0.0,0.0,0.0,0.0,0.0,0.0,-1.2996,0.0,-1.3458,0.0,-1.3939,-1.3905,-1.4136,-1.4299,-1.4299,0.0,-1.419,-1.3919,-1.4347,-1.5175,-1.6845,-1.6595,-1.7318,-1.9138,-1.8467,0.0,0.0,0.0,-1.4083,-1.3621,-1.1644,-1.0717,-1.0731,0.0,0.0,0.0,-1.1599,-1.2963,-1.4886,-1.521,-1.64,-1.8421,-2.0692,-2.1601,-2.19,-2.387,-2.4636,-2.4636,-2.4636,-2.4636,-2.4636,-2.4636,-2.4636,-2.4636,-2.4636,-2.4436,-2.4142,-2.3848,-2.3768,-2.3701,-2.3407,-2.3768,-2.4062,-2.3554,-2.3861,-2.4182,-2.3888,-2.3621,-2.3567,0.0,0.0,0.0,0.0,0.0,0.0,0.0,0.0,0.0,0.0,0.0,0.0,0.0,0.0,0.0,0.0,0.0,0.0,0.0,0.0,0.0,-3.4687,-3.6328,-3.7441,-3.791,0.0,-3.8555,-3.8652,-3.8652,-3.8848,-3.9199,-3.9258,-3.9551,-3.998,-4.0262,-4.2437,-4.5819,-4.6532,-4.9015,-5.2251,-5.2729,-5.2929,-5.2929,-5.2929,-5.2929,-5.2929,0.0,0.0,0.0,0.0,0.0,-1.3329,-1.3451,-1.3702,-1.3899,-1.3946,-1.4319,-1.4489,-1.4245,-1.4265,-1.4299,-1.4299,-1.4299,0.0,0.0,0.0,0.0,-1.957,-1.9346,-2.004,-2.1705,-2.0796,-2.0021,0.0,-1.7214,-1.6002,-1.5791,-1.2351,-1.0717,-1.0724,0.0,0.0,-1.1179,-1.1382,0.0,-1.25,-1.4391,-1.5535,-1.6447,-2.023,-2.1601,-2.19,-2.387,-2.4636,-2.4636,-2.4636,-2.4636,-2.4636,-2.4636,-2.4636,-2.4636,-2.4636,-2.4436,-2.4142,-2.3848,-2.3768,-2.3701,-2.3407,-2.3768,-2.4182,-2.4075,-2.4315,-2.4476,-2.4195,-2.4088,-2.3848,-2.322,0.0,0.0,0.0,0.0,0.0,0.0,0.0,0.0,0.0,0.0,0.0,0.0,0.0,0.0,0.0,0.0,0.0,0.0,0.0,0.0,0.0,-3.6055,0.0,0.0,0.0,-3.8398,-3.9082,-3.9082,-3.9121,-3.9219,-3.9609,-4.0,-4.0563,-4.2147,-4.4399,-4.6928,-4.8631,-5.0712,-5.2804,-5.2879,-5.2929,-5.2929,-5.2929,-5.2929,-5.2929,0.0,0.0,0.0,0.0,0.0,0.0,0.0,-1.4346,0.0,-1.4,-1.4136,-1.419,-1.3973,-1.4163,-1.4299,-1.4299,-1.4299,-1.4299,-1.4299,-1.5272,-1.6655,-1.8566,-1.9425,0.0,-2.2388,-2.1484,-2.121,-2.1659,-1.7287,-1.551,-1.6075,-1.2452,-1.0717,-1.0724,0.0,-1.107,0.0,0.0,0.0,-1.2107,-1.3059,-1.3725,-1.433,-1.736,-1.9176,-2.038,-2.236,-2.3722,-2.4636,-2.4636,-2.4636,-2.4636,-2.4636,-2.4636,-2.4636,-2.4636,-2.4436,-2.4168,-2.4035,-2.3995,-2.3928,-2.3634,-2.3888,-2.4168,-2.4008,-2.4088,-2.4155,-2.4008,-2.3981,-2.3808,-2.3207,-2.2619,0.0,0.0,0.0,0.0,0.0,0.0,0.0,0.0,0.0,0.0,0.0,0.0,0.0,0.0,0.0,0.0,0.0,0.0,0.0,0.0,0.0,0.0,0.0,0.0,0.0,-3.8887,-3.8887,-3.9121,-3.957,-3.9785,-4.0117,-4.0527,-4.1795,-4.3331,-4.5374,-4.8678,-5.1163,-5.2929,-5.2929,-5.2929,-5.2929,-5.2929,-5.2929,-5.2929,0.0,-1.3532,0.0,0.0,-1.3946,0.0,-1.4462,-1.4774,-1.476,-1.4156,-1.4082,-1.4027,-1.3878,-1.415,-1.4346,-1.4346,-1.4319,-1.4299,-1.4299,-1.4299,-1.5199,-1.7069,-1.8903,-2.0779,-2.2245,-2.2061,-2.2287,0.0,-1.7705,-1.5386,-1.5784,-1.2676,-1.1108,0.0,0.0,0.0,0.0,0.0,-1.1633,-1.202,-1.2088,-1.2271,-1.2656,-1.4782,-1.6447,-1.827,-2.0692,-2.2657,-2.4031,-2.4488,-2.4636,-2.4636,-2.4636,-2.4636,-2.4636,-2.4636,-2.4436,-2.4209,-2.4209,-2.4209,-2.4142,-2.3848,-2.4035,-2.4209,-2.3848,-2.3821,-2.3834,-2.3701,-2.3674,-2.3581,-2.3287,-2.2939,0.0,0.0,0.0,0.0,0.0,0.0,0.0,0.0,0.0,0.0,0.0,0.0,0.0,0.0,0.0,-3.1426,-3.1504,-3.2637,-3.3633,0.0,0.0,-3.7363,-3.7793,0.0,-3.8945,-3.8711,-3.8809,-3.918,-3.9766,-4.0039,-4.0293,-4.0547,-4.0976,-4.2301,-4.4611,-4.8344,-5.1163,-5.2929,-5.2929,-5.2929,-5.2929,-5.2929,-5.2929,-5.2929,0.0,0.0,0.0,0.0,0.0,0.0,0.0,-1.4774,-1.4943,-1.4875,-1.4862,-1.4808,-1.4652,-1.455,-1.4489,-1.4489,-1.4373,-1.4299,-1.4299,-1.4299,-1.5199,-1.7069,-1.9203,-2.0947,-2.2245,-2.3438,-2.3612,0.0,0.0,-1.7598,0.0,-1.397,-1.215,0.0,0.0,0.0,0.0,-1.128,-1.1572,-1.1877,-1.2155,-1.2366,-1.2656,-1.4782,-1.5693,-1.6294,-2.023,-2.1751,-2.2198,-2.4031,-2.4636,-2.4636,-2.4636,-2.4636,-2.4636,-2.4636,-2.4436,-2.4209,-2.4209,-2.4209,-2.4142,-2.3848,-2.4182,-2.4449,-2.3901,-2.3968,-2.4008,-2.3474,-2.3367,-2.3273,-2.2966,-2.3313,-2.3474,0.0,0.0,0.0,0.0,0.0,0.0,0.0,0.0,0.0,0.0,-2.6851,0.0,0.0,-2.9941,-3.1113,-3.1504,-3.2363,-3.3066,-3.3535,0.0,-3.6934,-3.7344,-3.8203,-3.8809,-3.9141,-3.957,-3.959,-3.9316,-4.0508,-4.0859,-4.0547,-4.0976,-4.3207,-4.6837,-4.9058,-5.1163,-5.2929,-5.2929,-5.2929,-5.2929,-5.2929,-5.2929,-5.2929,0.0,0.0,0.0,0.0,0.0,0.0,0.0,-1.5018,-1.5099,-1.5099,-1.4943,-1.4774,-1.4618,-1.455,-1.4475,-1.4394,-1.4333,-1.4299,-1.4299,-1.4299,-1.4548,-1.5182,-1.8452,-2.0436,-2.0772,-2.3314,-2.4289,0.0,0.0,0.0,0.0,0.0,0.0,0.0,0.0,-1.1043,-1.1355,-1.1477,-1.1755,-1.2115,-1.2244,-1.2372,-1.2656,-1.3414,-1.4475,-1.5845,-1.8723,-2.0542,-2.19,-2.387,-2.4636,-2.4636,-2.4636,-2.4636,-2.4636,-2.4636,-2.4556,-2.4462,-2.4462,-2.4462,-2.4356,-2.3888,-2.4075,-2.4168,-2.3407,-2.346,-2.3554,-2.314,-2.334,-2.3661,-2.3888,-2.3848,-2.3808,0.0,0.0,0.0,0.0,0.0,0.0,0.0,0.0,0.0,0.0,0.0,0.0,0.0,0.0,-3.1074,-3.1504,-3.1836,-3.2461,-3.3398,0.0,-3.623,-3.6914,-3.8027,-3.8652,-3.8828,-3.9258,-3.9531,-3.9648,-4.043,-4.084,-4.0918,-4.1094,-4.338,-4.7029,-4.7904,-5.0127,-5.2929,-5.2929,-5.2929,-5.2929,-5.2929,-5.2929,-5.2929,-1.4801,0.0,-1.4611,0.0,-1.4855,-1.4814,-1.5133,-1.5181,-1.5181,-1.5181,-1.4997,-1.4814,-1.4665,-1.4563,-1.4468,-1.4373,-1.4326,-1.4299,-1.4299,-1.4299,-1.4211,-1.4014,-1.8122,0.0,-1.9644,-2.3279,-2.469,-2.3901,-2.171,0.0,0.0,0.0,0.0,0.0,-1.1009,-1.1212,-1.1558,-1.1647,-1.1891,-1.223,-1.2318,-1.2413,-1.2501,-1.2501,-1.3414,-1.4935,-1.7663,-1.9478,-2.1141,-2.3722,-2.4636,-2.4636,-2.4636,-2.4636,-2.4636,-2.4636,-2.4636,-2.4636,-2.4636,-2.4636,-2.4489,-2.3915,-2.3981,-2.3968,-2.3073,-2.3166,-2.3367,-2.306,-2.3407,-2.3901,-2.4302,-2.4182,-2.4128,-2.4449,0.0,0.0,0.0,0.0,0.0,0.0,-2.2017,-2.147,-2.1256,-2.3135,0.0,0.0,0.0,0.0,-3.1504,-3.1641,0.0,0.0,0.0,0.0,0.0,-3.793,-3.8633,-3.8769,-3.9199,-3.957,-3.9902,-4.0332,-4.0762,-4.1172,-4.1753,-4.3966,-4.7029,-4.7613,-4.9819,-5.2929,-5.2929,-5.2929,-5.2929,-5.2929,-5.2929,-5.2929,-1.4936,-1.4964,-1.5011,-1.5153,-1.5174,-1.5174,-1.5181,-1.5181,-1.5181,-1.5181,-1.5181,-1.512,-1.4984,-1.4692,-1.4509,-1.4509,-1.438,-1.4299,-1.4299,-1.4299,-1.4163,0.0,0.0,-2.0086,-1.9573,-2.3181,-2.4796,-2.4195,0.0,0.0,-1.9264,0.0,-1.2632,-1.1158,-1.1158,-1.1246,-1.1409,-1.1701,-1.1918,-1.2088,-1.2379,-1.2501,-1.2501,-1.2501,-1.2501,-1.3112,-1.7208,-1.8572,-1.9176,-2.3264,-2.4636,-2.4636,-2.4636,-2.4636,-2.4636,-2.4636,-2.4636,-2.4636,-2.4636,-2.4636,-2.4489,-2.3915,-2.3981,-2.3968,-2.3073,-2.3327,-2.3688,-2.338,-2.3554,-2.3768,-2.3781,-2.4249,-2.4529,-2.4249,0.0,0.0,0.0,0.0,0.0,0.0,-2.2271,-2.155,-2.155,0.0,0.0,0.0,0.0,0.0,0.0,0.0,0.0,-3.2793,-3.4883,0.0,-3.666,-3.793,-3.8789,-3.9199,-3.9668,-3.9883,-3.9902,-4.0332,-4.0762,-4.1327,-4.3207,-4.5127,-4.7175,-4.9081,-5.1163,-5.2929,-5.2929,-5.2929,-5.2929,-5.2929,-5.2929,-5.2929,-1.5242,-1.5187,-1.5126,-1.5174,-1.5181,-1.5181,-1.5181,-1.5181,-1.5181,-1.5181,-1.5004,-1.4862,-1.4821,-1.4726,-1.4584,0.0,-1.4326,-1.4299,0.0,-1.4299,-1.4258,-1.4156,-1.8022,-2.0296,-2.0086,-2.383,-2.5491,-2.509,0.0,0.0,0.0,-1.592,-1.385,-1.3245,-1.1981,-1.1552,-1.1701,-1.1904,-1.2074,-1.2237,-1.2427,-1.2501,-1.2501,-1.2501,-1.2501,-1.3112,-1.7056,-1.8572,-1.9025,-2.1601,-2.2509,-2.236,-2.0991,-2.236,-2.4327,-2.2967,-2.3574,-2.4636,-2.4636,-2.4636,-2.4543,-2.4155,-2.4289,-2.4315,-2.3634,-2.3634,-2.3794,-2.3901,-2.3995,-2.4128,-2.4329,-2.4676,-2.4836,-2.4543,-2.4743,0.0,0.0,0.0,0.0,0.0,-2.1724,-2.1256,0.0,-2.3451,0.0,0.0,0.0,0.0,0.0,0.0,0.0,0.0,-3.4883,0.0,-3.666,-3.793,-3.8789,-3.9199,-3.9668,-4.0195,-4.0781,-4.0898,-4.1035,-4.1327,-4.3207,-4.5276,-4.7175,-4.9224,-5.1163,-5.2929,-5.2929,-5.2929,-5.2929,-5.2929,-5.2929,-5.2929,-1.5377,-1.5289,-1.5181,-1.5181,-1.5181,-1.5181,-1.5181,-1.5181,-1.5181,-1.5181,-1.5025,-1.4882,-1.4835,-1.4774,0.0,-1.4326,-1.4299,-1.4299,-1.4299,-1.4299,-1.4272,-1.4217,-1.7442,-1.9091,-1.9108,0.0,0.0,-2.4418,-2.4232,-2.2937,-2.0379,-1.7228,-1.5212,-1.4466,-1.2598,-1.1837,-1.1932,-1.2081,-1.2203,-1.2305,-1.2447,-1.2535,-1.2589,-1.2589,-1.2589,-1.3049,-1.641,-1.7426,-1.7815,-1.9779,-2.0542,-2.008,-1.8118,-1.9629,-2.2211,-2.1751,-2.2509,-2.3574,-2.4327,-2.4636,-2.4569,-2.4275,-2.4342,-2.4382,-2.4022,-2.3848,-2.3848,-2.4142,-2.4209,-2.4262,-2.4436,-2.481,-2.5024,-2.4836,-2.4957,-2.481,-2.4048,0.0,0.0,0.0,0.0,0.0,0.0,-2.3902,-2.5945,0.0,0.0,0.0,0.0,0.0,0.0,-3.3496,-3.5293,0.0,-3.7129,-3.8086,-3.8867,-3.9473,-4.0078,-4.0664,-4.1172,-4.1172,-4.1172,-4.1327,-4.3207,-4.5276,-4.7175,-4.9224,-5.1163,-5.2929,-5.2929,-5.2929,-5.2929,-5.2929,-5.2929,-5.2929,-1.5398,-1.5303,-1.5194,0.0,-1.5181,0.0,-1.5181,-1.5181,-1.5181,-1.5181,-1.5174,-1.512,-1.4984,-1.4821,-1.4611,-1.434,0.0,0.0,0.0,-1.4299,-1.4238,-1.4095,-1.6129,-1.7153,-1.6985,-2.069,-2.2704,-2.2764,-2.3792,-2.3387,-2.1519,-1.9015,-1.6885,-1.5138,-1.3245,-1.2216,-1.2074,-1.2223,-1.2291,-1.2305,-1.2454,-1.2603,-1.2732,-1.2745,-1.2745,-1.3054,-1.5055,-1.5717,-1.588,-1.7673,-1.8431,-1.7986,-1.5998,-1.6599,-1.8572,-2.0542,-2.1291,-2.19,-2.387,-2.4341,-2.4422,-2.4302,-2.4235,-2.4235,-2.4235,-2.4022,-2.3915,-2.4182,-2.4249,-2.4262,-2.4262,-2.4743,-2.513,-2.509,-2.5077,-2.4863,-2.4235,0.0,0.0,0.0,0.0,0.0,0.0,-2.5199,-2.7652,0.0,0.0,0.0,0.0,0.0,-3.3945,-3.4726,-3.6055,-3.7129,-3.791,-3.8359,-3.9023,-3.9902,-4.0762,-4.1172,-4.1172,-4.1172,-4.1172,-4.1327,-4.3207,-4.5127,-4.6882,-4.8938,-5.0998,-5.2629,-5.2629,-5.2792,-5.2929,-5.2929,-5.2929,-5.2929,0.0,0.0,-1.5316,-1.5201,-1.5181,-1.5181,-1.5181,-1.5181,-1.5181,-1.5181,-1.5086,-1.5011,-1.4977,-1.4726,-1.4536,-1.4468,-1.436,-1.4299,-1.4299,-1.4299,-1.4285,-1.4245,-1.6191,-1.727,-1.7187,-1.9512,-2.1416,-2.2764,-2.4572,-2.5033,-2.378,-2.1876,-1.9531,-1.7185,-1.5274,-1.3641,-1.2074,-1.2223,-1.2291,-1.2311,-1.2569,-1.2698,-1.2745,-1.2861,-1.2908,-1.3207,-1.5104,-1.5886,-1.5912,-1.6094,-1.6401,-1.6044,-1.3913,-1.3568,-1.433,-1.6294,-1.8118,-1.9779,-2.1751,-2.236,-2.2645,-2.4101,-2.4529,-2.4529,-2.4529,-2.4476,-2.4449,-2.4516,-2.4716,-2.4877,-2.4877,-2.5358,-2.5598,-2.5157,-2.5077,-2.4716,-2.3674,-2.3153,0.0,0.0,-2.2124,-2.2218,-2.2218,-2.4509,-2.6581,0.0,0.0,0.0,0.0,-3.4863,-3.5351,-3.5234,-3.6777,-3.7734,-3.793,-3.8359,-3.9023,-3.9902,-4.0762,-4.1172,-4.1172,-4.1172,-4.1172,-4.1327,-4.3207,-4.4377,-4.4977,-4.6882,-4.8938,-5.0717,-5.0717,-5.1583,-5.2929,-5.2929,-5.2929,-5.2929,-1.5628,-1.5513,-1.5384,-1.5303,-1.5228,-1.5208,-1.5276,-1.5228,-1.5181,-1.5181,-1.5113,-1.5065,-1.5065,-1.4862,-1.4719,-1.4719,-1.4462,-1.4299,-1.4299,-1.4299,-1.4299,-1.4299,-1.5432,-1.5859,-1.5782,-1.7713,-2.016,-2.2929,-2.3938,-2.4752,-2.5237,-2.2949,-2.114,-1.9702,-1.6729,-1.4732,-1.3612,-1.2803,-1.2386,-1.2406,-1.2637,-1.2773,-1.2854,-1.3003,-1.3057,-1.3205,-1.4229,-1.4677,-1.4661,-1.4476,-1.4422,-1.4109,-1.2943,-1.2556,-1.2649,-1.3868,-1.554,-1.7663,-1.9629,-2.0841,-2.2049,-2.4031,-2.387,-2.3451,-2.4648,-2.4836,-2.4877,-2.501,-2.517,-2.5277,-2.5277,-2.5651,-2.5758,-2.517,-2.497,-2.4462,-2.3273,-2.2846,0.0,-2.2044,-2.2365,-2.2686,-2.2819,-2.4825,-2.6938,-2.8525,-3.1073,0.0,-3.4829,-3.6191,-3.6621,-3.5996,-3.7246,-3.8027,-3.8223,-3.8867,-3.9414,-3.9902,-4.0762,-4.1172,-4.1172,-4.1172,-4.1172,-4.1327,-4.235,-4.3207,-4.4226,-4.5276,-4.6882,-4.865,-4.9677,-5.0717,-5.1747,-5.2629,-5.2929,-5.2929,-1.5689,-1.5554,-1.5438,-1.5411,-1.5282,-1.5228,-1.5357,-1.5269,-1.5181,-1.5181,-1.5181,-1.5181,-1.5181,-1.5059,-1.497,-1.497,-1.4597,-1.4353,-1.4333,-1.4312,-1.4299,-1.4299,-1.4299,-1.4238,-1.4109,-1.6168,-1.8736,-2.2223,-2.2658,-2.3793,-2.5465,-2.355,-2.2365,-2.1814,-1.7788,-1.5871,-1.5387,-1.3414,-1.2515,-1.2549,-1.2705,-1.2854,-1.301,-1.3152,-1.3207,-1.3207,-1.318,-1.3112,-1.3017,-1.2949,-1.2854,-1.2759,-1.2712,-1.261,-1.2501,-1.2501,-1.3737,-1.5573,-1.7521,-1.9629,-2.1613,-2.3676,-2.2881,-2.2283,-2.4599,-2.5117,-2.5157,-2.5451,-2.5545,-2.5585,-2.5585,-2.5785,-2.5758,-2.517,-2.4796,-2.4155,-2.2966,0.0,-2.2432,-2.2084,-2.2645,-2.3166,-2.3434,-2.5555,-2.7709,-2.928,-3.2036,-3.4334,-3.5996,-3.7207,-3.7539,-3.6875,-3.7617,-3.8203,-3.8574,-3.9453,-3.9902,-3.9902,-4.0762,-4.1172,-4.1172,-4.1172,-4.1172,-4.1172,-4.1172,-4.2196,-4.3663,-4.3663,-4.4827,-4.6735,-4.8794,-4.9677,-5.0269,-5.2189,-5.2929,-5.2929,-1.6089,-1.573,-1.556,-1.5432,-1.5282,-1.5194,-1.5215,-1.5201,-1.5181,-1.5181,-1.5181,-1.5181,-1.5181,-1.5059,-1.497,-1.497,-1.4787,-1.4618,-1.4489,-1.4367,-1.4299,-1.4299,-1.4299,-1.4292,-1.4265,-1.6167,-1.7426,-1.7879,-2.1448,-2.3336,-2.3236,-2.4739,-2.4136,-2.1977,-1.9479,-1.7367,-1.5387,-1.3414,-1.2576,-1.2705,-1.2861,-1.301,-1.3159,-1.3308,-1.3363,-1.3349,-1.322,-1.3241,-1.3275,-1.2895,-1.2834,-1.2881,-1.2617,-1.2522,-1.2501,-1.2501,-1.2745,-1.3589,-1.5429,-1.7512,-1.9573,-2.1989,-2.2082,-2.2331,-2.4849,-2.5251,-2.5157,-2.5451,-2.5718,-2.5892,-2.5892,-2.5932,-2.5758,-2.517,-2.4623,-2.3848,-2.2659,0.0,-2.2979,-2.2418,-2.3327,-2.4008,-2.4062,-2.5813,-2.791,-2.9987,-3.1843,-3.4009,-3.6385,-3.709,-3.75,-3.7734,-3.8203,-3.8496,-3.8574,-3.9453,-3.9902,-3.9902,-4.0762,-4.1172,-4.1172,-4.1172,-4.1172,-4.1172,-4.1172,-4.1327,-4.1618,-4.1618,-4.279,-4.4677,-4.6735,-4.8506,-5.0269,-5.2189,-5.2929,-5.2929,-1.5539,-1.5832,-1.571,-1.556,-1.5404,-1.5303,-1.5303,-1.5235,-1.5181,-1.5181,-1.5181,-1.5181,-1.5181,-1.5126,-1.5086,-1.5086,-1.495,-1.4801,-1.4645,-1.4496,-1.438,-1.4306,-1.4299,-1.4265,-1.4177,-1.5133,-1.5949,-1.6935,-1.891,-2.0874,-2.2964,-2.3781,-2.4221,-2.3957,-2.055,-1.8384,-1.7214,-1.4004,-1.2664,-1.2752,-1.2983,-1.3112,-1.3193,-1.3342,-1.3403,-1.339,-1.3322,-1.3342,-1.337,-1.3159,-1.3085,-1.3051,-1.2908,-1.2813,-1.2752,-1.2752,-1.2739,-1.3197,-1.5212,-1.6458,-1.8058,-2.1533,-2.2189,-2.273,-2.5177,-2.5651,-2.5638,-2.5932,-2.6092,-2.6186,-2.6186,-2.6066,-2.5812,-2.5384,-2.4556,0.0,0.0,-2.3006,-2.3033,-2.2926,-2.3674,-2.4262,-2.4422,-2.6127,-2.8233,-3.0574,-3.2298,-3.4408,-3.7144,-3.7539,-3.7832,-3.8262,-3.8476,-3.8574,-3.8574,-3.9453,-3.9902,-3.9902,-4.0762,-4.1172,-4.1172,-4.1172,-4.1172,-4.1172,-4.1172,-4.1172,-4.1172,-4.1172,-4.1773,-4.279,-4.5871,-4.7613,-4.8794,-5.1747,-5.2929,-5.2929,-1.4985,-1.5879,-1.5771,-1.5655,-1.5486,-1.5357,-1.5357,-1.5255,-1.5181,-1.5181,-1.5215,-1.5221,-1.5187,-1.5215,-1.5221,-1.5187,-1.5086,-1.4957,-1.4801,-1.4652,-1.4482,-1.4306,-1.4299,-1.4245,-1.4129,-1.4122,-1.483,-1.6165,-1.6668,-1.8523,-2.1673,-2.2452,-2.3611,-2.4971,-2.1024,-1.9101,-1.8742,-1.443,-1.2732,-1.2759,-1.3051,-1.3173,-1.3193,-1.3342,-1.3403,-1.3403,-1.3403,-1.3403,-1.3397,-1.3363,-1.3268,-1.3166,-1.3132,-1.3051,-1.2963,-1.2963,-1.3214,-1.3951,-1.5647,-1.6131,-1.7223,-2.1413,-2.2459,-2.308,-2.5491,-2.5999,-2.6039,-2.6333,-2.6386,-2.6386,-2.6386,-2.6146,-2.5838,-2.5464,0.0,0.0,0.0,-2.3233,-2.3233,-2.3407,-2.3955,-2.4422,-2.4716,-2.6896,-2.9023,-3.0953,-3.3304,-3.5519,-3.7747,-3.793,-3.8125,-3.8555,-3.8574,-3.8574,-3.8574,-3.9453,-3.9902,-3.9902,-4.0762,-4.1172,-4.1172,-4.1172,-4.1172,-4.1172,-4.1172,-4.1172,-4.1172,-4.1172,-4.1463,-4.2196,-4.5723,-4.7321,-4.8072,-5.1607,-5.2929,-5.2929,-1.51,-1.5866,-1.5649,-1.5642,-1.5398,-1.5201,-1.5201,-1.5187,-1.5181,-1.5181,-1.5303,-1.5343,-1.5201,-1.5309,-1.5337,-1.5194,-1.5174,-1.5106,-1.4964,-1.4808,-1.4597,-1.4312,-1.4299,-1.4292,-1.4285,-1.4285,-1.4129,-1.3995,-1.6018,-1.7011,-1.713,-2.1168,-2.2987,-2.291,-2.0576,-1.9243,-1.8742,-1.443,-1.2732,-1.2759,-1.3051,-1.3173,-1.3193,-1.3342,-1.3403,-1.3403,-1.3403,-1.3403,-1.3376,-1.3241,-1.318,-1.3152,-1.3017,-1.2969,-1.2963,-1.2963,-1.4479,-1.619,-1.636,-1.6233,-1.7286,-2.1838,-2.2717,-2.3128,-2.5741,-2.6146,-2.6039,-2.6333,-2.6386,-2.6386,-2.6386,-2.6146,-2.5772,-2.5197,0.0,0.0,-2.3447,-2.3781,-2.4008,-2.3768,-2.4249,-2.4716,-2.5024,-2.8511,-3.097,-3.1317,-3.488,-3.73,-3.7891,-3.793,-3.8125,-3.8555,-3.8574,-3.8574,-3.8574,-3.9453,-3.9902,-3.9902,-4.0762,-4.1172,-4.1172,-4.1172,-4.1172,-4.1172,-4.1172,-4.1172,-4.1172,-4.1172,-4.2196,-4.4096,-4.6146,-4.8217,-4.9961,-5.2189,-5.2929,-5.2929,-1.5618,-1.5879,-1.5716,-1.5533,-1.5404,-1.5289,-1.5194,-1.5181,-1.5215,-1.5309,-1.5289,-1.5282,-1.5316,-1.5289,-1.5248,-1.5187,-1.5181,-1.512,-1.4977,-1.4828,-1.4611,-1.4312,-1.4299,-1.4299,-1.4299,-1.4299,-1.4197,-1.3987,-1.4736,-1.5578,-1.6825,-1.8328,-1.9684,-2.09,-1.8586,-1.7426,-1.7096,-1.4229,-1.2956,-1.2901,-1.3193,-1.3315,-1.3322,-1.3376,-1.3403,-1.3403,-1.3403,-1.3403,-1.339,-1.3336,-1.3315,-1.3302,-1.3254,-1.3234,-1.3554,-1.4837,-1.682,-1.8817,-2.0258,-2.0516,-2.0974,-2.2602,-2.3964,-2.5152,-2.6175,-2.6306,-2.6253,-2.6373,-2.6386,-2.6386,-2.6386,-2.6146,-2.5945,-2.5905,0.0,-2.4863,-2.4703,-2.4716,-2.4703,-2.4596,-2.493,-2.5224,-2.5331,-2.8862,-3.1333,-3.1713,-3.5447,-3.7871,-3.8301,-3.832,-3.8398,-3.8574,-3.8574,-3.8574,-3.8574,-3.9453,-3.9902,-3.9902,-4.0762,-4.1172,-4.1172,-4.1172,-4.1172,-4.1172,-4.1172,-4.1172,-4.1172,-4.1172,-4.235,-4.4226,-4.6293,-4.8217,-5.0269,-5.2189,-5.2929,-5.2879,-1.6015,-1.5879,-1.5723,-1.552,-1.5404,-1.5303,-1.5201,-1.5221,-1.5289,-1.5398,-1.5364,-1.535,-1.5404,-1.5316,-1.5235,-1.5187,-1.5181,-1.514,-1.5045,-1.4848,-1.4611,-1.4312,-1.4299,-1.4299,-1.4299,-1.4299,-1.4224,-1.4075,-1.3966,-1.4486,-1.5941,-1.6477,-1.7527,-1.876,-1.7109,-1.6309,-1.6199,-1.4091,-1.3091,-1.299,-1.3281,-1.337,-1.3336,-1.3383,-1.3403,-1.3403,-1.3403,-1.3403,-1.3403,-1.3403,-1.3403,-1.3403,-1.3403,-1.3887,-1.4706,-1.6164,-1.8598,-2.12,-2.2659,-2.362,-2.4111,-2.4111,-2.5251,-2.6386,-2.6386,-2.6386,-2.6386,-2.6386,-2.6386,-2.6386,-2.6386,-2.6226,-2.6132,-2.6239,-2.5745,-2.5398,-2.5504,-2.5344,-2.5224,-2.5224,-2.5384,-2.5545,-2.5638,-2.8612,-3.0836,-3.1189,-3.4971,-3.7498,-3.8555,-3.8691,-3.8711,-3.8574,-3.8848,-3.8867,-3.8574,-3.9453,-3.9961,-4.0098,-4.082,-4.1172,-4.1172,-4.1172,-4.1172,-4.1172,-4.1172,-4.1172,-4.1172,-4.1172,-4.235,-4.4226,-4.6293,-4.8217,-5.0269,-5.2189,-5.2929,-5.2879,-1.6137,-1.5866,-1.5642,-1.5635,-1.5384,-1.5181,-1.5181,-1.5309,-1.5411,-1.5411,-1.554,-1.5581,-1.5425,-1.5411,-1.535,-1.5194,-1.5181,-1.5181,-1.5181,-1.4903,-1.4611,-1.4312,-1.4299,-1.4299,-1.4299,-1.4299,-1.4224,-1.4075,-1.4075,-1.3919,-1.3634,-1.5782,-1.6833,-1.6639,-1.647,-1.6385,-1.6224,-1.4142,-1.3091,-1.299,-1.3281,-1.3308,-1.3193,-1.3342,-1.3403,-1.3403,-1.3403,-1.3403,-1.3403,-1.3403,-1.3403,-1.3403,-1.3403,-1.4863,-1.6647,-1.6647,-1.9735,-2.314,-2.314,-2.4761,-2.6386,-2.6386,-2.6386,-2.6386,-2.64,-2.64,-2.64,-2.64,-2.64,-2.64,-2.64,-2.64,-2.6306,-2.6012,-2.5959,-2.5865,-2.5558,-2.5518,-2.5518,-2.5518,-2.5518,-2.5638,-2.5932,-2.776,-2.909,-2.9419,-3.323,-3.6423,-3.8428,-3.8965,-3.9004,-3.8594,-3.9434,-3.9473,-3.8594,-3.9453,-4.0098,-4.0527,-4.0957,-4.1172,-4.1172,-4.1172,-4.1172,-4.1172,-4.1172,-4.1172,-4.1172,-4.1172,-4.235,-4.4377,-4.6293,-4.8217,-5.0269,-5.2189,-5.2929,-5.2929,-1.5967,-1.5778,-1.5608,-1.5499,-1.5316,-1.5181,-1.5181,-1.5221,-1.5289,-1.5398,-1.5357,-1.5343,-1.5404,-1.5316,-1.5228,-1.5187,-1.5181,-1.5092,-1.4882,-1.4787,-1.4611,-1.4312,-1.4299,-1.4299,-1.4299,-1.4299,-1.4278,-1.4231,-1.4122,-1.4027,-1.3939,-1.4501,-1.4696,-1.455,-1.4616,-1.4456,-1.415,-1.3728,-1.3342,-1.3125,-1.3322,-1.337,-1.3336,-1.3383,-1.3403,-1.3417,-1.3519,-1.3492,-1.3417,-1.3526,-1.3559,-1.3895,-1.537,-1.7347,-1.9473,-2.1111,-2.3702,-2.6002,-2.6002,-2.6357,-2.6694,-2.6694,-2.6694,-2.6747,-2.6961,-2.7001,-2.7001,-2.7001,-2.7001,-2.7001,-2.7001,-2.7001,-2.6907,-2.6613,-2.656,-2.6466,-2.6172,-2.6132,-2.6132,-2.6132,-2.6132,-2.6159,-2.6253,-2.8089,-2.9344,-2.9434,-3.323,-3.5812,-3.6423,-3.8188,-3.9004,-3.8594,-3.9434,-3.9766,-3.9512,-4.0059,-4.0254,-4.0098,-4.082,-4.1172,-4.1172,-4.1172,-4.1172,-4.1172,-4.1172,-4.1172,-4.1172,-4.1172,-4.3075,-4.6146,-4.6735,-4.9081,-5.205,-5.2629,-5.2929,-5.2829,-1.59,-1.575,-1.5594,-1.5438,-1.5337,-1.5255,-1.5194,-1.5235,-1.5303,-1.5398,-1.533,-1.5309,-1.5398,-1.5276,-1.5181,-1.5181,-1.5181,-1.5079,-1.4848,-1.4774,-1.4631,-1.4394,-1.4333,-1.4299,-1.4299,-1.4299,-1.4299,-1.4299,-1.4204,-1.4129,-1.4068,-1.3973,-1.3851,-1.3715,-1.3804,-1.3661,-1.3363,-1.3553,-1.3485,-1.3268,-1.3363,-1.3403,-1.341,-1.3464,-1.3492,-1.3512,-1.3661,-1.3654,-1.3587,-1.3682,-1.3675,-1.3971,-1.6357,-1.8486,-2.0745,-2.3154,-2.5451,-2.7268,-2.7268,-2.7134,-2.7028,-2.7134,-2.6907,-2.6734,-2.7028,-2.7094,-2.7094,-2.7094,-2.7188,-2.7268,-2.7268,-2.7175,-2.7028,-2.6854,-2.672,-2.6587,-2.6413,-2.6386,-2.6386,-2.6386,-2.6386,-2.6386,-2.6386,-2.7462,-2.853,-2.9293,-3.2604,-3.498,-3.5749,-3.8158,-3.9277,-3.8828,-3.9687,-3.998,-3.9629,-4.0391,-4.0644,-4.041,-4.0918,-4.1172,-4.1172,-4.1172,-4.1172,-4.1172,-4.1172,-4.1172,-4.1172,-4.1172,-4.2657,-4.4849,-4.6441,-4.8506,-5.0717,-5.2327,-5.2779,-5.2503,-1.5696,-1.5744,-1.5574,-1.5438,-1.5398,-1.5343,-1.5201,-1.5303,-1.5391,-1.5391,-1.5391,-1.5391,-1.5391,-1.5269,-1.5174,-1.5167,-1.516,-1.5106,-1.4977,-1.4841,-1.4692,-1.4536,-1.4394,-1.4319,-1.4319,-1.4306,-1.4299,-1.4299,-1.4299,-1.4231,-1.4095,-1.4095,-1.4007,-1.3865,-1.3878,-1.379,-1.3627,-1.3641,-1.3553,-1.3403,-1.3417,-1.3424,-1.3437,-1.3593,-1.3648,-1.3668,-1.381,-1.3851,-1.3844,-1.3858,-1.377,-1.4175,-1.6842,-1.895,-2.0828,-2.3538,-2.5804,-2.7348,-2.7348,-2.7321,-2.7375,-2.7669,-2.7094,-2.6547,-2.6867,-2.6934,-2.6934,-2.6934,-2.7148,-2.7348,-2.7348,-2.7121,-2.6934,-2.6907,-2.6653,-2.6453,-2.6426,-2.6413,-2.6386,-2.6386,-2.6386,-2.6386,-2.6386,-2.6413,-2.7189,-2.9027,-3.1478,-3.3701,-3.5879,-3.8274,-3.9518,-3.9219,-4.0019,-4.0059,-3.9199,-4.0469,-4.1094,-4.1055,-4.1133,-4.1152,-4.1113,-4.1152,-4.1172,-4.1172,-4.1172,-4.1172,-4.1172,-4.1172,-4.1327,-4.1753,-4.5425,-4.686,-4.7545,-5.123,-5.2366,-5.2026,-1.5703,-1.5567,-1.5452,-1.5418,-1.5309,-1.5221,-1.5187,-1.5208,-1.5228,-1.5228,-1.5228,-1.5228,-1.5228,-1.5201,-1.514,-1.5025,-1.5018,-1.5004,-1.497,-1.4936,-1.4855,-1.4699,-1.455,-1.4468,-1.4468,-1.4353,-1.4299,-1.4299,-1.4299,-1.4285,-1.4251,-1.4251,-1.417,-1.4027,-1.415,-1.3987,-1.3634,-1.3749,-1.3641,-1.341,-1.3532,-1.358,-1.3593,-1.3743,-1.3797,-1.3817,-1.3966,-1.3946,-1.3858,-1.398,-1.3919,-1.4493,-1.8721,-2.0448,-2.16,-2.5712,-2.7429,-2.7949,-2.7949,-2.7776,-2.7669,-2.7976,-2.7562,-2.7215,-2.7736,-2.7856,-2.7856,-2.7856,-2.7909,-2.7949,-2.7949,-2.7896,-2.7776,-2.7549,-2.7268,-2.6987,-2.676,-2.6533,-2.6386,-2.6386,-2.6386,-2.6386,-2.6386,-2.66,-2.688,-2.7346,-2.95,-3.1889,-3.4088,-3.6207,-3.7952,-3.9219,-3.9746,-3.9766,-3.9199,-4.0176,-4.0508,-4.0176,-4.0859,-4.0996,-4.0684,-4.1016,-4.1172,-4.1172,-4.1172,-4.1172,-4.1172,-4.1172,-4.2042,-4.3511,-4.4398,-4.6344,-4.8756,-4.9623,-5.0602,-5.1398,-1.573,-1.5622,-1.5499,-1.5425,-1.5404,-1.535,-1.5208,-1.5181,-1.5181,-1.5181,-1.5181,-1.5181,-1.5181,-1.512,-1.5052,-1.4977,-1.497,-1.4997,-1.5065,-1.5011,-1.4903,-1.4746,-1.459,-1.4482,-1.4414,-1.434,-1.4299,-1.4299,-1.4299,-1.4299,-1.4299,-1.4299,-1.4258,-1.4183,-1.4265,-1.4129,-1.3844,-1.3919,-1.3817,-1.362,-1.3695,-1.3729,-1.3743,-1.3892,-1.3953,-1.3973,-1.4122,-1.4129,-1.4075,-1.4156,-1.4075,-1.483,-1.9437,-2.0968,-2.1927,-2.6491,-2.8016,-2.8136,-2.8136,-2.803,-2.7949,-2.8096,-2.7909,-2.7722,-2.7896,-2.7936,-2.7936,-2.7936,-2.8043,-2.8136,-2.8136,-2.803,-2.7883,-2.7722,-2.7455,-2.7161,-2.6867,-2.6694,-2.6547,-2.6413,-2.6386,-2.6386,-2.6386,-2.6533,-2.668,-2.6814,-2.8976,-3.1441,-3.3826,-3.5556,-3.757,-3.9531,-3.9551,-3.9453,-3.9199,-3.9883,-4.0,-3.957,-4.0664,-4.1055,-4.084,-4.1074,-4.1055,-4.0879,-4.1074,-4.0937,-4.0605,-4.0996,-4.1515,-4.2159,-4.3377,-4.5216,-4.7515,-4.8518,-4.9742,-5.0795,-1.5791,-1.5723,-1.5601,-1.5472,-1.5533,-1.5513,-1.5262,-1.5201,-1.5181,-1.5181,-1.5181,-1.5181,-1.5181,-1.5031,-1.4943,-1.497,-1.4943,-1.5004,-1.5174,-1.5072,-1.4936,-1.4787,-1.4631,-1.4482,-1.434,-1.4312,-1.4299,-1.4299,-1.4299,-1.4299,-1.4299,-1.4299,-1.4299,-1.4299,-1.4299,-1.4217,-1.4075,-1.4075,-1.398,-1.3844,-1.3871,-1.3878,-1.3899,-1.4055,-1.4109,-1.4129,-1.4251,-1.4299,-1.4299,-1.4299,-1.4217,-1.4821,-1.9269,-2.0574,-2.132,-2.564,-2.7279,-2.7617,-2.7617,-2.7968,-2.8136,-2.8136,-2.8136,-2.8083,-2.7829,-2.7776,-2.7776,-2.7776,-2.7976,-2.8136,-2.8136,-2.7936,-2.7776,-2.7776,-2.7535,-2.7255,-2.7001,-2.6881,-2.6734,-2.6493,-2.6413,-2.6386,-2.6386,-2.6426,-2.6587,-2.6867,-2.8901,-3.1258,-3.409,-3.5348,-3.7166,-3.9635,-3.9336,-3.9101,-3.9101,-3.9551,-3.959,-3.9219,-4.0391,-4.0918,-4.084,-4.0918,-4.0762,-4.043,-4.0801,-4.0547,-3.9941,-4.0664,-4.0527,-4.0073,-4.1983,-4.3863,-4.5721,-4.788,-4.9401,-5.0218,-1.5662,-1.5649,-1.5635,-1.5608,-1.5513,-1.5425,-1.5384,-1.5269,-1.5181,-1.5181,-1.5181,-1.5181,-1.5181,-1.4936,-1.4828,-1.4957,-1.4848,-1.4889,-1.5167,-1.5167,-1.5086,-1.4943,-1.4794,-1.4638,-1.4489,-1.4367,-1.4299,-1.4299,-1.4299,-1.4299,-1.4299,-1.4299,-1.4299,-1.4299,-1.4299,-1.4217,-1.4075,-1.4075,-1.398,-1.3851,-1.3987,-1.4041,-1.4055,-1.4211,-1.4272,-1.4272,-1.4292,-1.4299,-1.4299,-1.4299,-1.4285,-1.4794,-1.7405,-1.8261,-1.8766,-2.1384,-2.3641,-2.5203,-2.5203,-2.6588,-2.8136,-2.8136,-2.8136,-2.8136,-2.8096,-2.8083,-2.8083,-2.8083,-2.811,-2.8136,-2.8136,-2.811,-2.8083,-2.8083,-2.7829,-2.7629,-2.7589,-2.7148,-2.6814,-2.6774,-2.6547,-2.6386,-2.6386,-2.6613,-2.6881,-2.7188,-2.7797,-2.9741,-3.3787,-3.3934,-3.5467,-3.9148,-3.8887,-3.8652,-3.8652,-3.9082,-3.9258,-3.9199,-3.9785,-3.9863,-3.9473,-3.9883,-4.0039,-3.998,-4.0039,-4.0,-3.9902,-4.0019,-4.0,-3.9902,-4.0243,-4.2272,-4.5157,-4.8318,-4.9506,-4.969,-1.59,-1.5832,-1.5757,-1.5757,-1.5703,-1.5601,-1.5438,-1.535,-1.5276,-1.5194,-1.5181,-1.5181,-1.5181,-1.4997,-1.4896,-1.4964,-1.4909,-1.4957,-1.5167,-1.5181,-1.512,-1.4977,-1.4821,-1.4665,-1.4516,-1.4373,-1.4299,-1.4299,-1.4299,-1.4299,-1.4299,-1.4299,-1.4299,-1.4299,-1.4299,-1.4265,-1.4197,-1.4197,-1.4156,-1.4102,-1.417,-1.4197,-1.4204,-1.4272,-1.4299,-1.4299,-1.4299,-1.4299,-1.4299,-1.4299,-1.4299,-1.4646,-1.7071,-1.7763,-1.8279,-2.0529,-2.2783,-2.4691,-2.4691,-2.6418,-2.8136,-2.8136,-2.8136,-2.8136,-2.8136,-2.8136,-2.8136,-2.8136,-2.8136,-2.8136,-2.8136,-2.8136,-2.8136,-2.8136,-2.803,-2.7883,-2.7722,-2.7482,-2.7255,-2.7094,-2.6667,-2.6453,-2.6613,-2.66,-2.6774,-2.7228,-2.7228,-2.8627,-3.218,-3.2791,-3.4436,-3.7371,-3.8182,-3.8574,-3.8574,-3.875,-3.8848,-3.8848,-3.9062,-3.9316,-3.959,-3.9805,-3.9746,-3.9512,-3.9785,-3.9609,-3.9199,-3.9687,-3.9609,-3.918,-3.9414,-4.1503,-4.4821,-4.8313,-4.959,-4.9565]}]]